<?xml version="1.0" encoding="UTF-8" standalone="no" ?>
<gpx xmlns="http://www.topografix.com/GPX/1/1" xmlns:xsi="http://www.w3.org/2001/XMLSchema-instance" xsi:schemaLocation="http://www.topografix.com/GPX/1/1 http://www.topografix.com/GPX/1/1/gpx.xsd" version="1.1" creator="VisuGPX - https://www.visugpx.com">
  <metadata>
    <name>parcours 25km L'Huisserie 29.10.17</name>
    <desc><![CDATA[parcours 25km L'Huisserie 29.10.17
Patrick, Totor, Choup, David G, Gillou]]></desc>
  </metadata>
  <trk>
    <name><![CDATA[171029084109 on GPSies.com]]></name>
    <trkseg>
      <trkpt lat="47.99972" lon="-0.73076">
        <ele>76.3</ele>
        <time>2017-10-29T08:41:22Z</time>
      </trkpt>
      <trkpt lat="47.9996" lon="-0.731">
        <ele>76.6</ele>
        <time>2017-10-29T08:41:26Z</time>
      </trkpt>
      <trkpt lat="47.9995" lon="-0.73131">
        <ele>76.4</ele>
        <time>2017-10-29T08:41:30Z</time>
      </trkpt>
      <trkpt lat="47.99936" lon="-0.73162">
        <ele>75.5</ele>
        <time>2017-10-29T08:41:34Z</time>
      </trkpt>
      <trkpt lat="47.99923" lon="-0.73195">
        <ele>74.2</ele>
        <time>2017-10-29T08:41:38Z</time>
      </trkpt>
      <trkpt lat="47.99908" lon="-0.73235">
        <ele>72.4</ele>
        <time>2017-10-29T08:41:42Z</time>
      </trkpt>
      <trkpt lat="47.99896" lon="-0.73279">
        <ele>71.2</ele>
        <time>2017-10-29T08:41:46Z</time>
      </trkpt>
      <trkpt lat="47.99884" lon="-0.73324">
        <ele>70.2</ele>
        <time>2017-10-29T08:41:50Z</time>
      </trkpt>
      <trkpt lat="47.99873" lon="-0.73372">
        <ele>68.4</ele>
        <time>2017-10-29T08:41:54Z</time>
      </trkpt>
      <trkpt lat="47.99862" lon="-0.73419">
        <ele>67</ele>
        <time>2017-10-29T08:41:58Z</time>
      </trkpt>
      <trkpt lat="47.99847" lon="-0.73464">
        <ele>65.5</ele>
        <time>2017-10-29T08:42:02Z</time>
      </trkpt>
      <trkpt lat="47.9983" lon="-0.73501">
        <ele>64</ele>
        <time>2017-10-29T08:42:06Z</time>
      </trkpt>
      <trkpt lat="47.99814" lon="-0.73533">
        <ele>63.2</ele>
        <time>2017-10-29T08:42:10Z</time>
      </trkpt>
      <trkpt lat="47.99796" lon="-0.73564">
        <ele>61.6</ele>
        <time>2017-10-29T08:42:14Z</time>
      </trkpt>
      <trkpt lat="47.99774" lon="-0.73596">
        <ele>59.6</ele>
        <time>2017-10-29T08:42:18Z</time>
      </trkpt>
      <trkpt lat="47.99752" lon="-0.7363">
        <ele>58.3</ele>
        <time>2017-10-29T08:42:22Z</time>
      </trkpt>
      <trkpt lat="47.9973" lon="-0.73668">
        <ele>56.9</ele>
        <time>2017-10-29T08:42:26Z</time>
      </trkpt>
      <trkpt lat="47.99708" lon="-0.73707">
        <ele>55.3</ele>
        <time>2017-10-29T08:42:30Z</time>
      </trkpt>
      <trkpt lat="47.99689" lon="-0.73742">
        <ele>54.3</ele>
        <time>2017-10-29T08:42:34Z</time>
      </trkpt>
      <trkpt lat="47.9967" lon="-0.73778">
        <ele>52</ele>
        <time>2017-10-29T08:42:38Z</time>
      </trkpt>
      <trkpt lat="47.99653" lon="-0.73814">
        <ele>50.5</ele>
        <time>2017-10-29T08:42:42Z</time>
      </trkpt>
      <trkpt lat="47.99636" lon="-0.7385">
        <ele>48.9</ele>
        <time>2017-10-29T08:42:46Z</time>
      </trkpt>
      <trkpt lat="47.99628" lon="-0.73872">
        <ele>48.2</ele>
        <time>2017-10-29T08:42:50Z</time>
      </trkpt>
      <trkpt lat="47.99638" lon="-0.7389">
        <ele>47.9</ele>
        <time>2017-10-29T08:42:54Z</time>
      </trkpt>
      <trkpt lat="47.99644" lon="-0.73906">
        <ele>47.2</ele>
        <time>2017-10-29T08:42:58Z</time>
      </trkpt>
      <trkpt lat="47.99644" lon="-0.73911">
        <ele>47</ele>
        <time>2017-10-29T08:43:46Z</time>
      </trkpt>
      <trkpt lat="47.99645" lon="-0.73922">
        <ele>46.5</ele>
        <time>2017-10-29T08:43:50Z</time>
      </trkpt>
      <trkpt lat="47.99646" lon="-0.73944">
        <ele>45.5</ele>
        <time>2017-10-29T08:43:54Z</time>
      </trkpt>
      <trkpt lat="47.99648" lon="-0.73975">
        <ele>43.4</ele>
        <time>2017-10-29T08:43:58Z</time>
      </trkpt>
      <trkpt lat="47.99654" lon="-0.7401">
        <ele>40.8</ele>
        <time>2017-10-29T08:44:02Z</time>
      </trkpt>
      <trkpt lat="47.9966" lon="-0.74047">
        <ele>38.5</ele>
        <time>2017-10-29T08:44:06Z</time>
      </trkpt>
      <trkpt lat="47.99666" lon="-0.74085">
        <ele>38</ele>
        <time>2017-10-29T08:44:10Z</time>
      </trkpt>
      <trkpt lat="47.99671" lon="-0.74124">
        <ele>38.1</ele>
        <time>2017-10-29T08:44:14Z</time>
      </trkpt>
      <trkpt lat="47.99677" lon="-0.74165">
        <ele>41.8</ele>
        <time>2017-10-29T08:44:18Z</time>
      </trkpt>
      <trkpt lat="47.99682" lon="-0.74205">
        <ele>43.7</ele>
        <time>2017-10-29T08:44:22Z</time>
      </trkpt>
      <trkpt lat="47.99685" lon="-0.74242">
        <ele>46.7</ele>
        <time>2017-10-29T08:44:26Z</time>
      </trkpt>
      <trkpt lat="47.99687" lon="-0.74275">
        <ele>48.4</ele>
        <time>2017-10-29T08:44:30Z</time>
      </trkpt>
      <trkpt lat="47.99682" lon="-0.74295">
        <ele>49.3</ele>
        <time>2017-10-29T08:44:34Z</time>
      </trkpt>
      <trkpt lat="47.99673" lon="-0.74278">
        <ele>47.5</ele>
        <time>2017-10-29T08:44:38Z</time>
      </trkpt>
      <trkpt lat="47.99669" lon="-0.7425">
        <ele>46.2</ele>
        <time>2017-10-29T08:44:42Z</time>
      </trkpt>
      <trkpt lat="47.99665" lon="-0.74221">
        <ele>42.9</ele>
        <time>2017-10-29T08:44:46Z</time>
      </trkpt>
      <trkpt lat="47.99661" lon="-0.74195">
        <ele>41.7</ele>
        <time>2017-10-29T08:44:50Z</time>
      </trkpt>
      <trkpt lat="47.99661" lon="-0.74171">
        <ele>41.5</ele>
        <time>2017-10-29T08:44:54Z</time>
      </trkpt>
      <trkpt lat="47.99672" lon="-0.74147">
        <ele>39.3</ele>
        <time>2017-10-29T08:44:58Z</time>
      </trkpt>
      <trkpt lat="47.99691" lon="-0.74144">
        <ele>39.4</ele>
        <time>2017-10-29T08:45:02Z</time>
      </trkpt>
      <trkpt lat="47.9971" lon="-0.7414">
        <ele>39.6</ele>
        <time>2017-10-29T08:45:06Z</time>
      </trkpt>
      <trkpt lat="47.99728" lon="-0.74133">
        <ele>39.4</ele>
        <time>2017-10-29T08:45:10Z</time>
      </trkpt>
      <trkpt lat="47.99747" lon="-0.74127">
        <ele>38.7</ele>
        <time>2017-10-29T08:45:14Z</time>
      </trkpt>
      <trkpt lat="47.99765" lon="-0.74121">
        <ele>39.3</ele>
        <time>2017-10-29T08:45:18Z</time>
      </trkpt>
      <trkpt lat="47.99786" lon="-0.74114">
        <ele>40.3</ele>
        <time>2017-10-29T08:45:22Z</time>
      </trkpt>
      <trkpt lat="47.99806" lon="-0.74106">
        <ele>41</ele>
        <time>2017-10-29T08:45:26Z</time>
      </trkpt>
      <trkpt lat="47.99826" lon="-0.741">
        <ele>41</ele>
        <time>2017-10-29T08:45:30Z</time>
      </trkpt>
      <trkpt lat="47.99847" lon="-0.74092">
        <ele>41</ele>
        <time>2017-10-29T08:45:34Z</time>
      </trkpt>
      <trkpt lat="47.99868" lon="-0.74085">
        <ele>41</ele>
        <time>2017-10-29T08:45:38Z</time>
      </trkpt>
      <trkpt lat="47.99889" lon="-0.74078">
        <ele>40.8</ele>
        <time>2017-10-29T08:45:42Z</time>
      </trkpt>
      <trkpt lat="47.9991" lon="-0.74069">
        <ele>40.9</ele>
        <time>2017-10-29T08:45:46Z</time>
      </trkpt>
      <trkpt lat="47.9993" lon="-0.74056">
        <ele>41</ele>
        <time>2017-10-29T08:45:50Z</time>
      </trkpt>
      <trkpt lat="47.99948" lon="-0.74038">
        <ele>41.1</ele>
        <time>2017-10-29T08:45:54Z</time>
      </trkpt>
      <trkpt lat="47.99965" lon="-0.74018">
        <ele>40.9</ele>
        <time>2017-10-29T08:45:58Z</time>
      </trkpt>
      <trkpt lat="47.99982" lon="-0.73996">
        <ele>40.9</ele>
        <time>2017-10-29T08:46:02Z</time>
      </trkpt>
      <trkpt lat="47.99999" lon="-0.73977">
        <ele>41</ele>
        <time>2017-10-29T08:46:06Z</time>
      </trkpt>
      <trkpt lat="48.00016" lon="-0.73957">
        <ele>41</ele>
        <time>2017-10-29T08:46:10Z</time>
      </trkpt>
      <trkpt lat="48.00034" lon="-0.73937">
        <ele>41.6</ele>
        <time>2017-10-29T08:46:14Z</time>
      </trkpt>
      <trkpt lat="48.00051" lon="-0.73919">
        <ele>41.3</ele>
        <time>2017-10-29T08:46:18Z</time>
      </trkpt>
      <trkpt lat="48.0007" lon="-0.73901">
        <ele>43.7</ele>
        <time>2017-10-29T08:46:22Z</time>
      </trkpt>
      <trkpt lat="48.00087" lon="-0.73888">
        <ele>43.2</ele>
        <time>2017-10-29T08:46:26Z</time>
      </trkpt>
      <trkpt lat="48.00108" lon="-0.73883">
        <ele>43.8</ele>
        <time>2017-10-29T08:46:30Z</time>
      </trkpt>
      <trkpt lat="48.00131" lon="-0.73878">
        <ele>42.6</ele>
        <time>2017-10-29T08:46:34Z</time>
      </trkpt>
      <trkpt lat="48.00151" lon="-0.73871">
        <ele>41.4</ele>
        <time>2017-10-29T08:46:38Z</time>
      </trkpt>
      <trkpt lat="48.00172" lon="-0.73869">
        <ele>41.3</ele>
        <time>2017-10-29T08:46:42Z</time>
      </trkpt>
      <trkpt lat="48.00195" lon="-0.73862">
        <ele>41</ele>
        <time>2017-10-29T08:46:46Z</time>
      </trkpt>
      <trkpt lat="48.00213" lon="-0.73857">
        <ele>40.8</ele>
        <time>2017-10-29T08:46:50Z</time>
      </trkpt>
      <trkpt lat="48.00237" lon="-0.73849">
        <ele>41.7</ele>
        <time>2017-10-29T08:46:54Z</time>
      </trkpt>
      <trkpt lat="48.00259" lon="-0.7384">
        <ele>42.1</ele>
        <time>2017-10-29T08:46:58Z</time>
      </trkpt>
      <trkpt lat="48.00283" lon="-0.73831">
        <ele>41.9</ele>
        <time>2017-10-29T08:47:02Z</time>
      </trkpt>
      <trkpt lat="48.00306" lon="-0.73826">
        <ele>41.5</ele>
        <time>2017-10-29T08:47:06Z</time>
      </trkpt>
      <trkpt lat="48.00328" lon="-0.73828">
        <ele>41.7</ele>
        <time>2017-10-29T08:47:10Z</time>
      </trkpt>
      <trkpt lat="48.00343" lon="-0.7384">
        <ele>41.9</ele>
        <time>2017-10-29T08:47:14Z</time>
      </trkpt>
      <trkpt lat="48.00354" lon="-0.73852">
        <ele>42.4</ele>
        <time>2017-10-29T08:47:18Z</time>
      </trkpt>
      <trkpt lat="48.00369" lon="-0.73869">
        <ele>43.3</ele>
        <time>2017-10-29T08:47:22Z</time>
      </trkpt>
      <trkpt lat="48.00387" lon="-0.73891">
        <ele>43.9</ele>
        <time>2017-10-29T08:47:26Z</time>
      </trkpt>
      <trkpt lat="48.00401" lon="-0.7391">
        <ele>45.2</ele>
        <time>2017-10-29T08:47:30Z</time>
      </trkpt>
      <trkpt lat="48.00425" lon="-0.73931">
        <ele>43.5</ele>
        <time>2017-10-29T08:47:34Z</time>
      </trkpt>
      <trkpt lat="48.0045" lon="-0.73944">
        <ele>41.8</ele>
        <time>2017-10-29T08:47:38Z</time>
      </trkpt>
      <trkpt lat="48.00475" lon="-0.73954">
        <ele>41.9</ele>
        <time>2017-10-29T08:47:42Z</time>
      </trkpt>
      <trkpt lat="48.00499" lon="-0.73963">
        <ele>41.4</ele>
        <time>2017-10-29T08:47:46Z</time>
      </trkpt>
      <trkpt lat="48.00526" lon="-0.73961">
        <ele>41.2</ele>
        <time>2017-10-29T08:47:50Z</time>
      </trkpt>
      <trkpt lat="48.00553" lon="-0.73957">
        <ele>41.4</ele>
        <time>2017-10-29T08:47:54Z</time>
      </trkpt>
      <trkpt lat="48.00579" lon="-0.73952">
        <ele>41.3</ele>
        <time>2017-10-29T08:47:58Z</time>
      </trkpt>
      <trkpt lat="48.00603" lon="-0.73949">
        <ele>41.2</ele>
        <time>2017-10-29T08:48:02Z</time>
      </trkpt>
      <trkpt lat="48.00628" lon="-0.73947">
        <ele>41.1</ele>
        <time>2017-10-29T08:48:06Z</time>
      </trkpt>
      <trkpt lat="48.00651" lon="-0.73946">
        <ele>41.1</ele>
        <time>2017-10-29T08:48:10Z</time>
      </trkpt>
      <trkpt lat="48.00675" lon="-0.73945">
        <ele>41</ele>
        <time>2017-10-29T08:48:14Z</time>
      </trkpt>
      <trkpt lat="48.007" lon="-0.73945">
        <ele>41</ele>
        <time>2017-10-29T08:48:18Z</time>
      </trkpt>
      <trkpt lat="48.00726" lon="-0.73945">
        <ele>41</ele>
        <time>2017-10-29T08:48:22Z</time>
      </trkpt>
      <trkpt lat="48.00753" lon="-0.73943">
        <ele>41</ele>
        <time>2017-10-29T08:48:26Z</time>
      </trkpt>
      <trkpt lat="48.00779" lon="-0.73939">
        <ele>40.8</ele>
        <time>2017-10-29T08:48:30Z</time>
      </trkpt>
      <trkpt lat="48.00804" lon="-0.73931">
        <ele>40.5</ele>
        <time>2017-10-29T08:48:34Z</time>
      </trkpt>
      <trkpt lat="48.00831" lon="-0.7393">
        <ele>40.5</ele>
        <time>2017-10-29T08:48:38Z</time>
      </trkpt>
      <trkpt lat="48.0088" lon="-0.73951">
        <ele>41.2</ele>
        <time>2017-10-29T08:48:43Z</time>
      </trkpt>
      <trkpt lat="48.00902" lon="-0.73962">
        <ele>41.2</ele>
        <time>2017-10-29T08:48:50Z</time>
      </trkpt>
      <trkpt lat="48.00923" lon="-0.73975">
        <ele>40.9</ele>
        <time>2017-10-29T08:48:54Z</time>
      </trkpt>
      <trkpt lat="48.00944" lon="-0.73986">
        <ele>41</ele>
        <time>2017-10-29T08:48:58Z</time>
      </trkpt>
      <trkpt lat="48.00965" lon="-0.73996">
        <ele>41.1</ele>
        <time>2017-10-29T08:49:02Z</time>
      </trkpt>
      <trkpt lat="48.00987" lon="-0.74005">
        <ele>41.2</ele>
        <time>2017-10-29T08:49:06Z</time>
      </trkpt>
      <trkpt lat="48.01009" lon="-0.74012">
        <ele>41.2</ele>
        <time>2017-10-29T08:49:10Z</time>
      </trkpt>
      <trkpt lat="48.01031" lon="-0.74019">
        <ele>41.3</ele>
        <time>2017-10-29T08:49:14Z</time>
      </trkpt>
      <trkpt lat="48.0105" lon="-0.74026">
        <ele>41.9</ele>
        <time>2017-10-29T08:49:18Z</time>
      </trkpt>
      <trkpt lat="48.01067" lon="-0.74031">
        <ele>42</ele>
        <time>2017-10-29T08:49:22Z</time>
      </trkpt>
      <trkpt lat="48.0108" lon="-0.74034">
        <ele>41.9</ele>
        <time>2017-10-29T08:49:26Z</time>
      </trkpt>
      <trkpt lat="48.01089" lon="-0.74038">
        <ele>42</ele>
        <time>2017-10-29T08:49:30Z</time>
      </trkpt>
      <trkpt lat="48.01095" lon="-0.74045">
        <ele>42.7</ele>
        <time>2017-10-29T08:49:34Z</time>
      </trkpt>
      <trkpt lat="48.01092" lon="-0.74052">
        <ele>43.6</ele>
        <time>2017-10-29T08:49:38Z</time>
      </trkpt>
      <trkpt lat="48.01083" lon="-0.74054">
        <ele>43.9</ele>
        <time>2017-10-29T08:49:42Z</time>
      </trkpt>
      <trkpt lat="48.01072" lon="-0.74053">
        <ele>44.6</ele>
        <time>2017-10-29T08:49:46Z</time>
      </trkpt>
      <trkpt lat="48.01062" lon="-0.74054">
        <ele>45.3</ele>
        <time>2017-10-29T08:49:50Z</time>
      </trkpt>
      <trkpt lat="48.01052" lon="-0.74056">
        <ele>46.4</ele>
        <time>2017-10-29T08:49:54Z</time>
      </trkpt>
      <trkpt lat="48.01039" lon="-0.74059">
        <ele>47.7</ele>
        <time>2017-10-29T08:49:58Z</time>
      </trkpt>
      <trkpt lat="48.01026" lon="-0.74063">
        <ele>49.3</ele>
        <time>2017-10-29T08:50:02Z</time>
      </trkpt>
      <trkpt lat="48.01015" lon="-0.74071">
        <ele>50.1</ele>
        <time>2017-10-29T08:50:06Z</time>
      </trkpt>
      <trkpt lat="48.01005" lon="-0.74082">
        <ele>50.9</ele>
        <time>2017-10-29T08:50:10Z</time>
      </trkpt>
      <trkpt lat="48.00996" lon="-0.74091">
        <ele>51</ele>
        <time>2017-10-29T08:50:14Z</time>
      </trkpt>
      <trkpt lat="48.00987" lon="-0.74102">
        <ele>51.7</ele>
        <time>2017-10-29T08:50:18Z</time>
      </trkpt>
      <trkpt lat="48.00978" lon="-0.74114">
        <ele>52.5</ele>
        <time>2017-10-29T08:50:22Z</time>
      </trkpt>
      <trkpt lat="48.00968" lon="-0.74126">
        <ele>53.6</ele>
        <time>2017-10-29T08:50:26Z</time>
      </trkpt>
      <trkpt lat="48.00956" lon="-0.74138">
        <ele>54.5</ele>
        <time>2017-10-29T08:50:30Z</time>
      </trkpt>
      <trkpt lat="48.00944" lon="-0.74151">
        <ele>55.2</ele>
        <time>2017-10-29T08:50:34Z</time>
      </trkpt>
      <trkpt lat="48.00934" lon="-0.74166">
        <ele>55.3</ele>
        <time>2017-10-29T08:50:38Z</time>
      </trkpt>
      <trkpt lat="48.00929" lon="-0.74189">
        <ele>55.7</ele>
        <time>2017-10-29T08:50:42Z</time>
      </trkpt>
      <trkpt lat="48.00926" lon="-0.74213">
        <ele>56.5</ele>
        <time>2017-10-29T08:50:46Z</time>
      </trkpt>
      <trkpt lat="48.00924" lon="-0.74237">
        <ele>57</ele>
        <time>2017-10-29T08:50:50Z</time>
      </trkpt>
      <trkpt lat="48.00921" lon="-0.74258">
        <ele>57.2</ele>
        <time>2017-10-29T08:50:54Z</time>
      </trkpt>
      <trkpt lat="48.00919" lon="-0.7428">
        <ele>57.7</ele>
        <time>2017-10-29T08:50:58Z</time>
      </trkpt>
      <trkpt lat="48.00917" lon="-0.74302">
        <ele>58.9</ele>
        <time>2017-10-29T08:51:02Z</time>
      </trkpt>
      <trkpt lat="48.00916" lon="-0.74323">
        <ele>60.8</ele>
        <time>2017-10-29T08:51:06Z</time>
      </trkpt>
      <trkpt lat="48.00914" lon="-0.74343">
        <ele>62.4</ele>
        <time>2017-10-29T08:51:10Z</time>
      </trkpt>
      <trkpt lat="48.00913" lon="-0.74362">
        <ele>63.5</ele>
        <time>2017-10-29T08:51:14Z</time>
      </trkpt>
      <trkpt lat="48.00912" lon="-0.74381">
        <ele>63.4</ele>
        <time>2017-10-29T08:51:18Z</time>
      </trkpt>
      <trkpt lat="48.00914" lon="-0.744">
        <ele>64.1</ele>
        <time>2017-10-29T08:51:22Z</time>
      </trkpt>
      <trkpt lat="48.00917" lon="-0.74418">
        <ele>65.1</ele>
        <time>2017-10-29T08:51:26Z</time>
      </trkpt>
      <trkpt lat="48.00919" lon="-0.74436">
        <ele>66</ele>
        <time>2017-10-29T08:51:30Z</time>
      </trkpt>
      <trkpt lat="48.00921" lon="-0.74455">
        <ele>67</ele>
        <time>2017-10-29T08:51:34Z</time>
      </trkpt>
      <trkpt lat="48.00922" lon="-0.74474">
        <ele>67.9</ele>
        <time>2017-10-29T08:51:38Z</time>
      </trkpt>
      <trkpt lat="48.00923" lon="-0.74494">
        <ele>68.8</ele>
        <time>2017-10-29T08:51:42Z</time>
      </trkpt>
      <trkpt lat="48.00924" lon="-0.74511">
        <ele>69.4</ele>
        <time>2017-10-29T08:51:46Z</time>
      </trkpt>
      <trkpt lat="48.00923" lon="-0.74529">
        <ele>70</ele>
        <time>2017-10-29T08:51:50Z</time>
      </trkpt>
      <trkpt lat="48.00924" lon="-0.74548">
        <ele>70.6</ele>
        <time>2017-10-29T08:51:54Z</time>
      </trkpt>
      <trkpt lat="48.00924" lon="-0.74567">
        <ele>70.8</ele>
        <time>2017-10-29T08:51:58Z</time>
      </trkpt>
      <trkpt lat="48.00924" lon="-0.74588">
        <ele>71</ele>
        <time>2017-10-29T08:52:02Z</time>
      </trkpt>
      <trkpt lat="48.00923" lon="-0.74608">
        <ele>71.6</ele>
        <time>2017-10-29T08:52:06Z</time>
      </trkpt>
      <trkpt lat="48.00921" lon="-0.74629">
        <ele>72</ele>
        <time>2017-10-29T08:52:10Z</time>
      </trkpt>
      <trkpt lat="48.00916" lon="-0.74648">
        <ele>72.7</ele>
        <time>2017-10-29T08:52:14Z</time>
      </trkpt>
      <trkpt lat="48.00911" lon="-0.74667">
        <ele>73.1</ele>
        <time>2017-10-29T08:52:18Z</time>
      </trkpt>
      <trkpt lat="48.00905" lon="-0.74684">
        <ele>73.2</ele>
        <time>2017-10-29T08:52:22Z</time>
      </trkpt>
      <trkpt lat="48.00899" lon="-0.74701">
        <ele>73.5</ele>
        <time>2017-10-29T08:52:26Z</time>
      </trkpt>
      <trkpt lat="48.00894" lon="-0.74718">
        <ele>74.1</ele>
        <time>2017-10-29T08:52:30Z</time>
      </trkpt>
      <trkpt lat="48.00889" lon="-0.74736">
        <ele>75</ele>
        <time>2017-10-29T08:52:34Z</time>
      </trkpt>
      <trkpt lat="48.00885" lon="-0.74754">
        <ele>75.7</ele>
        <time>2017-10-29T08:52:38Z</time>
      </trkpt>
      <trkpt lat="48.00881" lon="-0.74773">
        <ele>76.2</ele>
        <time>2017-10-29T08:52:42Z</time>
      </trkpt>
      <trkpt lat="48.00879" lon="-0.74792">
        <ele>76.8</ele>
        <time>2017-10-29T08:52:46Z</time>
      </trkpt>
      <trkpt lat="48.00876" lon="-0.74811">
        <ele>77.2</ele>
        <time>2017-10-29T08:52:50Z</time>
      </trkpt>
      <trkpt lat="48.00874" lon="-0.7483">
        <ele>77.4</ele>
        <time>2017-10-29T08:52:54Z</time>
      </trkpt>
      <trkpt lat="48.00872" lon="-0.74849">
        <ele>77.9</ele>
        <time>2017-10-29T08:52:58Z</time>
      </trkpt>
      <trkpt lat="48.00869" lon="-0.74869">
        <ele>78.3</ele>
        <time>2017-10-29T08:53:02Z</time>
      </trkpt>
      <trkpt lat="48.00866" lon="-0.74893">
        <ele>78.2</ele>
        <time>2017-10-29T08:53:06Z</time>
      </trkpt>
      <trkpt lat="48.00865" lon="-0.74919">
        <ele>78.3</ele>
        <time>2017-10-29T08:53:10Z</time>
      </trkpt>
      <trkpt lat="48.00868" lon="-0.74945">
        <ele>78.5</ele>
        <time>2017-10-29T08:53:14Z</time>
      </trkpt>
      <trkpt lat="48.00871" lon="-0.74971">
        <ele>79.3</ele>
        <time>2017-10-29T08:53:18Z</time>
      </trkpt>
      <trkpt lat="48.00875" lon="-0.74995">
        <ele>79.9</ele>
        <time>2017-10-29T08:53:22Z</time>
      </trkpt>
      <trkpt lat="48.0088" lon="-0.75019">
        <ele>80.6</ele>
        <time>2017-10-29T08:53:26Z</time>
      </trkpt>
      <trkpt lat="48.00889" lon="-0.75036">
        <ele>81.3</ele>
        <time>2017-10-29T08:53:30Z</time>
      </trkpt>
      <trkpt lat="48.00903" lon="-0.75048">
        <ele>82.2</ele>
        <time>2017-10-29T08:53:34Z</time>
      </trkpt>
      <trkpt lat="48.00916" lon="-0.7506">
        <ele>83.2</ele>
        <time>2017-10-29T08:53:38Z</time>
      </trkpt>
      <trkpt lat="48.00944" lon="-0.75082">
        <ele>84.9</ele>
        <time>2017-10-29T08:53:43Z</time>
      </trkpt>
      <trkpt lat="48.00957" lon="-0.75094">
        <ele>85.8</ele>
        <time>2017-10-29T08:53:50Z</time>
      </trkpt>
      <trkpt lat="48.00972" lon="-0.75105">
        <ele>86.8</ele>
        <time>2017-10-29T08:53:54Z</time>
      </trkpt>
      <trkpt lat="48.00985" lon="-0.75117">
        <ele>87.8</ele>
        <time>2017-10-29T08:53:58Z</time>
      </trkpt>
      <trkpt lat="48.00999" lon="-0.75127">
        <ele>88.3</ele>
        <time>2017-10-29T08:54:02Z</time>
      </trkpt>
      <trkpt lat="48.01013" lon="-0.75139">
        <ele>88.9</ele>
        <time>2017-10-29T08:54:06Z</time>
      </trkpt>
      <trkpt lat="48.01026" lon="-0.7515">
        <ele>89.9</ele>
        <time>2017-10-29T08:54:10Z</time>
      </trkpt>
      <trkpt lat="48.0104" lon="-0.75161">
        <ele>90.4</ele>
        <time>2017-10-29T08:54:14Z</time>
      </trkpt>
      <trkpt lat="48.01053" lon="-0.75173">
        <ele>91.1</ele>
        <time>2017-10-29T08:54:18Z</time>
      </trkpt>
      <trkpt lat="48.01067" lon="-0.75184">
        <ele>92.2</ele>
        <time>2017-10-29T08:54:22Z</time>
      </trkpt>
      <trkpt lat="48.01082" lon="-0.75196">
        <ele>93</ele>
        <time>2017-10-29T08:54:26Z</time>
      </trkpt>
      <trkpt lat="48.01095" lon="-0.75209">
        <ele>93.7</ele>
        <time>2017-10-29T08:54:30Z</time>
      </trkpt>
      <trkpt lat="48.01106" lon="-0.75224">
        <ele>94</ele>
        <time>2017-10-29T08:54:34Z</time>
      </trkpt>
      <trkpt lat="48.01118" lon="-0.75239">
        <ele>94.2</ele>
        <time>2017-10-29T08:54:38Z</time>
      </trkpt>
      <trkpt lat="48.01129" lon="-0.75253">
        <ele>94.6</ele>
        <time>2017-10-29T08:54:42Z</time>
      </trkpt>
      <trkpt lat="48.0114" lon="-0.75267">
        <ele>94.4</ele>
        <time>2017-10-29T08:54:46Z</time>
      </trkpt>
      <trkpt lat="48.01152" lon="-0.75281">
        <ele>94.4</ele>
        <time>2017-10-29T08:54:50Z</time>
      </trkpt>
      <trkpt lat="48.01163" lon="-0.75295">
        <ele>94.3</ele>
        <time>2017-10-29T08:54:54Z</time>
      </trkpt>
      <trkpt lat="48.01175" lon="-0.75309">
        <ele>94.3</ele>
        <time>2017-10-29T08:54:58Z</time>
      </trkpt>
      <trkpt lat="48.01187" lon="-0.75323">
        <ele>94.7</ele>
        <time>2017-10-29T08:55:02Z</time>
      </trkpt>
      <trkpt lat="48.01199" lon="-0.75336">
        <ele>95.2</ele>
        <time>2017-10-29T08:55:06Z</time>
      </trkpt>
      <trkpt lat="48.01212" lon="-0.75351">
        <ele>95.2</ele>
        <time>2017-10-29T08:55:10Z</time>
      </trkpt>
      <trkpt lat="48.01224" lon="-0.75365">
        <ele>95.1</ele>
        <time>2017-10-29T08:55:14Z</time>
      </trkpt>
      <trkpt lat="48.01237" lon="-0.75379">
        <ele>95.5</ele>
        <time>2017-10-29T08:55:18Z</time>
      </trkpt>
      <trkpt lat="48.0125" lon="-0.75393">
        <ele>96</ele>
        <time>2017-10-29T08:55:22Z</time>
      </trkpt>
      <trkpt lat="48.01263" lon="-0.75407">
        <ele>96</ele>
        <time>2017-10-29T08:55:26Z</time>
      </trkpt>
      <trkpt lat="48.01276" lon="-0.75418">
        <ele>96</ele>
        <time>2017-10-29T08:55:30Z</time>
      </trkpt>
      <trkpt lat="48.0129" lon="-0.75427">
        <ele>96.7</ele>
        <time>2017-10-29T08:55:34Z</time>
      </trkpt>
      <trkpt lat="48.01305" lon="-0.75437">
        <ele>97</ele>
        <time>2017-10-29T08:55:38Z</time>
      </trkpt>
      <trkpt lat="48.01315" lon="-0.75457">
        <ele>97</ele>
        <time>2017-10-29T08:55:42Z</time>
      </trkpt>
      <trkpt lat="48.01316" lon="-0.7548">
        <ele>97</ele>
        <time>2017-10-29T08:55:46Z</time>
      </trkpt>
      <trkpt lat="48.01316" lon="-0.75503">
        <ele>97</ele>
        <time>2017-10-29T08:55:50Z</time>
      </trkpt>
      <trkpt lat="48.01315" lon="-0.75526">
        <ele>97</ele>
        <time>2017-10-29T08:55:54Z</time>
      </trkpt>
      <trkpt lat="48.01314" lon="-0.75548">
        <ele>97.7</ele>
        <time>2017-10-29T08:55:58Z</time>
      </trkpt>
      <trkpt lat="48.01314" lon="-0.75569">
        <ele>98</ele>
        <time>2017-10-29T08:56:02Z</time>
      </trkpt>
      <trkpt lat="48.01316" lon="-0.75591">
        <ele>98</ele>
        <time>2017-10-29T08:56:06Z</time>
      </trkpt>
      <trkpt lat="48.01318" lon="-0.75612">
        <ele>98</ele>
        <time>2017-10-29T08:56:10Z</time>
      </trkpt>
      <trkpt lat="48.01322" lon="-0.75633">
        <ele>98</ele>
        <time>2017-10-29T08:56:14Z</time>
      </trkpt>
      <trkpt lat="48.01327" lon="-0.75655">
        <ele>98.5</ele>
        <time>2017-10-29T08:56:18Z</time>
      </trkpt>
      <trkpt lat="48.01332" lon="-0.75677">
        <ele>99</ele>
        <time>2017-10-29T08:56:22Z</time>
      </trkpt>
      <trkpt lat="48.01337" lon="-0.757">
        <ele>99</ele>
        <time>2017-10-29T08:56:26Z</time>
      </trkpt>
      <trkpt lat="48.01343" lon="-0.75724">
        <ele>98.6</ele>
        <time>2017-10-29T08:56:30Z</time>
      </trkpt>
      <trkpt lat="48.01349" lon="-0.7575">
        <ele>98</ele>
        <time>2017-10-29T08:56:34Z</time>
      </trkpt>
      <trkpt lat="48.01356" lon="-0.75778">
        <ele>97.2</ele>
        <time>2017-10-29T08:56:38Z</time>
      </trkpt>
      <trkpt lat="48.01364" lon="-0.75808">
        <ele>96.9</ele>
        <time>2017-10-29T08:56:42Z</time>
      </trkpt>
      <trkpt lat="48.01372" lon="-0.75839">
        <ele>95.9</ele>
        <time>2017-10-29T08:56:46Z</time>
      </trkpt>
      <trkpt lat="48.01382" lon="-0.75869">
        <ele>95.4</ele>
        <time>2017-10-29T08:56:50Z</time>
      </trkpt>
      <trkpt lat="48.01393" lon="-0.75894">
        <ele>96</ele>
        <time>2017-10-29T08:56:54Z</time>
      </trkpt>
      <trkpt lat="48.01401" lon="-0.75921">
        <ele>96.5</ele>
        <time>2017-10-29T08:56:58Z</time>
      </trkpt>
      <trkpt lat="48.0141" lon="-0.75947">
        <ele>96.8</ele>
        <time>2017-10-29T08:57:02Z</time>
      </trkpt>
      <trkpt lat="48.01418" lon="-0.75972">
        <ele>97</ele>
        <time>2017-10-29T08:57:06Z</time>
      </trkpt>
      <trkpt lat="48.01426" lon="-0.75995">
        <ele>97.3</ele>
        <time>2017-10-29T08:57:10Z</time>
      </trkpt>
      <trkpt lat="48.01435" lon="-0.76018">
        <ele>98.3</ele>
        <time>2017-10-29T08:57:14Z</time>
      </trkpt>
      <trkpt lat="48.01446" lon="-0.76038">
        <ele>99</ele>
        <time>2017-10-29T08:57:18Z</time>
      </trkpt>
      <trkpt lat="48.01457" lon="-0.76056">
        <ele>99.5</ele>
        <time>2017-10-29T08:57:22Z</time>
      </trkpt>
      <trkpt lat="48.01468" lon="-0.76074">
        <ele>99.9</ele>
        <time>2017-10-29T08:57:26Z</time>
      </trkpt>
      <trkpt lat="48.0148" lon="-0.76092">
        <ele>100.5</ele>
        <time>2017-10-29T08:57:30Z</time>
      </trkpt>
      <trkpt lat="48.01492" lon="-0.76109">
        <ele>101</ele>
        <time>2017-10-29T08:57:34Z</time>
      </trkpt>
      <trkpt lat="48.01504" lon="-0.76126">
        <ele>101.6</ele>
        <time>2017-10-29T08:57:38Z</time>
      </trkpt>
      <trkpt lat="48.01516" lon="-0.76144">
        <ele>102</ele>
        <time>2017-10-29T08:57:42Z</time>
      </trkpt>
      <trkpt lat="48.01528" lon="-0.76161">
        <ele>102</ele>
        <time>2017-10-29T08:57:46Z</time>
      </trkpt>
      <trkpt lat="48.0154" lon="-0.76178">
        <ele>102.7</ele>
        <time>2017-10-29T08:57:50Z</time>
      </trkpt>
      <trkpt lat="48.01552" lon="-0.76195">
        <ele>103</ele>
        <time>2017-10-29T08:57:54Z</time>
      </trkpt>
      <trkpt lat="48.01563" lon="-0.76212">
        <ele>103.7</ele>
        <time>2017-10-29T08:57:58Z</time>
      </trkpt>
      <trkpt lat="48.01576" lon="-0.76228">
        <ele>104</ele>
        <time>2017-10-29T08:58:02Z</time>
      </trkpt>
      <trkpt lat="48.01588" lon="-0.76245">
        <ele>104.2</ele>
        <time>2017-10-29T08:58:06Z</time>
      </trkpt>
      <trkpt lat="48.01598" lon="-0.76264">
        <ele>104.3</ele>
        <time>2017-10-29T08:58:10Z</time>
      </trkpt>
      <trkpt lat="48.01608" lon="-0.76284">
        <ele>104</ele>
        <time>2017-10-29T08:58:14Z</time>
      </trkpt>
      <trkpt lat="48.01622" lon="-0.763">
        <ele>104.4</ele>
        <time>2017-10-29T08:58:18Z</time>
      </trkpt>
      <trkpt lat="48.01636" lon="-0.76315">
        <ele>104.9</ele>
        <time>2017-10-29T08:58:22Z</time>
      </trkpt>
      <trkpt lat="48.0165" lon="-0.76331">
        <ele>105</ele>
        <time>2017-10-29T08:58:26Z</time>
      </trkpt>
      <trkpt lat="48.01665" lon="-0.76347">
        <ele>105</ele>
        <time>2017-10-29T08:58:30Z</time>
      </trkpt>
      <trkpt lat="48.01679" lon="-0.76363">
        <ele>105.4</ele>
        <time>2017-10-29T08:58:34Z</time>
      </trkpt>
      <trkpt lat="48.01693" lon="-0.76379">
        <ele>105.3</ele>
        <time>2017-10-29T08:58:38Z</time>
      </trkpt>
      <trkpt lat="48.01722" lon="-0.76417">
        <ele>105</ele>
        <time>2017-10-29T08:58:43Z</time>
      </trkpt>
      <trkpt lat="48.01738" lon="-0.76439">
        <ele>104.2</ele>
        <time>2017-10-29T08:58:50Z</time>
      </trkpt>
      <trkpt lat="48.01756" lon="-0.76462">
        <ele>103.4</ele>
        <time>2017-10-29T08:58:54Z</time>
      </trkpt>
      <trkpt lat="48.01774" lon="-0.76488">
        <ele>102.5</ele>
        <time>2017-10-29T08:58:58Z</time>
      </trkpt>
      <trkpt lat="48.01794" lon="-0.76514">
        <ele>102</ele>
        <time>2017-10-29T08:59:02Z</time>
      </trkpt>
      <trkpt lat="48.01813" lon="-0.7654">
        <ele>101.4</ele>
        <time>2017-10-29T08:59:06Z</time>
      </trkpt>
      <trkpt lat="48.01832" lon="-0.76566">
        <ele>100.6</ele>
        <time>2017-10-29T08:59:10Z</time>
      </trkpt>
      <trkpt lat="48.01851" lon="-0.76593">
        <ele>99.5</ele>
        <time>2017-10-29T08:59:14Z</time>
      </trkpt>
      <trkpt lat="48.0187" lon="-0.76617">
        <ele>99.2</ele>
        <time>2017-10-29T08:59:18Z</time>
      </trkpt>
      <trkpt lat="48.01887" lon="-0.76641">
        <ele>99.8</ele>
        <time>2017-10-29T08:59:22Z</time>
      </trkpt>
      <trkpt lat="48.01905" lon="-0.76665">
        <ele>99.2</ele>
        <time>2017-10-29T08:59:26Z</time>
      </trkpt>
      <trkpt lat="48.01923" lon="-0.76688">
        <ele>99.6</ele>
        <time>2017-10-29T08:59:30Z</time>
      </trkpt>
      <trkpt lat="48.01942" lon="-0.76708">
        <ele>100.8</ele>
        <time>2017-10-29T08:59:34Z</time>
      </trkpt>
      <trkpt lat="48.01961" lon="-0.76724">
        <ele>101.6</ele>
        <time>2017-10-29T08:59:38Z</time>
      </trkpt>
      <trkpt lat="48.01978" lon="-0.76737">
        <ele>102.2</ele>
        <time>2017-10-29T08:59:42Z</time>
      </trkpt>
      <trkpt lat="48.01993" lon="-0.76738">
        <ele>102.7</ele>
        <time>2017-10-29T08:59:46Z</time>
      </trkpt>
      <trkpt lat="48.02002" lon="-0.76723">
        <ele>103.1</ele>
        <time>2017-10-29T08:59:50Z</time>
      </trkpt>
      <trkpt lat="48.02007" lon="-0.767">
        <ele>103.3</ele>
        <time>2017-10-29T08:59:54Z</time>
      </trkpt>
      <trkpt lat="48.02012" lon="-0.76677">
        <ele>103.4</ele>
        <time>2017-10-29T08:59:58Z</time>
      </trkpt>
      <trkpt lat="48.02018" lon="-0.76654">
        <ele>103.7</ele>
        <time>2017-10-29T09:00:02Z</time>
      </trkpt>
      <trkpt lat="48.02026" lon="-0.7663">
        <ele>103.9</ele>
        <time>2017-10-29T09:00:06Z</time>
      </trkpt>
      <trkpt lat="48.02034" lon="-0.76608">
        <ele>104.2</ele>
        <time>2017-10-29T09:00:10Z</time>
      </trkpt>
      <trkpt lat="48.02041" lon="-0.76588">
        <ele>104.1</ele>
        <time>2017-10-29T09:00:14Z</time>
      </trkpt>
      <trkpt lat="48.0205" lon="-0.76566">
        <ele>103.9</ele>
        <time>2017-10-29T09:00:18Z</time>
      </trkpt>
      <trkpt lat="48.02057" lon="-0.76543">
        <ele>104.1</ele>
        <time>2017-10-29T09:00:22Z</time>
      </trkpt>
      <trkpt lat="48.0206" lon="-0.76517">
        <ele>104.2</ele>
        <time>2017-10-29T09:00:26Z</time>
      </trkpt>
      <trkpt lat="48.0206" lon="-0.7649">
        <ele>104.6</ele>
        <time>2017-10-29T09:00:30Z</time>
      </trkpt>
      <trkpt lat="48.0206" lon="-0.76465">
        <ele>105.2</ele>
        <time>2017-10-29T09:00:34Z</time>
      </trkpt>
      <trkpt lat="48.02071" lon="-0.76452">
        <ele>105.5</ele>
        <time>2017-10-29T09:00:38Z</time>
      </trkpt>
      <trkpt lat="48.02085" lon="-0.76448">
        <ele>106.1</ele>
        <time>2017-10-29T09:00:42Z</time>
      </trkpt>
      <trkpt lat="48.02097" lon="-0.7644">
        <ele>106.5</ele>
        <time>2017-10-29T09:00:46Z</time>
      </trkpt>
      <trkpt lat="48.02095" lon="-0.76421">
        <ele>106.4</ele>
        <time>2017-10-29T09:00:50Z</time>
      </trkpt>
      <trkpt lat="48.02089" lon="-0.76399">
        <ele>106.3</ele>
        <time>2017-10-29T09:00:54Z</time>
      </trkpt>
      <trkpt lat="48.02083" lon="-0.76379">
        <ele>106.7</ele>
        <time>2017-10-29T09:00:58Z</time>
      </trkpt>
      <trkpt lat="48.0208" lon="-0.76363">
        <ele>107.8</ele>
        <time>2017-10-29T09:01:02Z</time>
      </trkpt>
      <trkpt lat="48.02081" lon="-0.76349">
        <ele>108</ele>
        <time>2017-10-29T09:01:06Z</time>
      </trkpt>
      <trkpt lat="48.02085" lon="-0.76334">
        <ele>108.1</ele>
        <time>2017-10-29T09:01:10Z</time>
      </trkpt>
      <trkpt lat="48.02086" lon="-0.7632">
        <ele>108.5</ele>
        <time>2017-10-29T09:01:14Z</time>
      </trkpt>
      <trkpt lat="48.02089" lon="-0.76309">
        <ele>108.9</ele>
        <time>2017-10-29T09:02:02Z</time>
      </trkpt>
      <trkpt lat="48.0209" lon="-0.7631">
        <ele>108.9</ele>
        <time>2017-10-29T09:02:06Z</time>
      </trkpt>
      <trkpt lat="48.0209" lon="-0.76309">
        <ele>108.9</ele>
        <time>2017-10-29T09:02:10Z</time>
      </trkpt>
      <trkpt lat="48.02089" lon="-0.76305">
        <ele>109</ele>
        <time>2017-10-29T09:02:14Z</time>
      </trkpt>
      <trkpt lat="48.02091" lon="-0.76297">
        <ele>109</ele>
        <time>2017-10-29T09:02:18Z</time>
      </trkpt>
      <trkpt lat="48.0209" lon="-0.76294">
        <ele>109</ele>
        <time>2017-10-29T09:02:22Z</time>
      </trkpt>
      <trkpt lat="48.02088" lon="-0.76288">
        <ele>109</ele>
        <time>2017-10-29T09:02:26Z</time>
      </trkpt>
      <trkpt lat="48.02088" lon="-0.76282">
        <ele>109</ele>
        <time>2017-10-29T09:02:30Z</time>
      </trkpt>
      <trkpt lat="48.02092" lon="-0.76278">
        <ele>109</ele>
        <time>2017-10-29T09:02:34Z</time>
      </trkpt>
      <trkpt lat="48.02096" lon="-0.76273">
        <ele>109</ele>
        <time>2017-10-29T09:02:38Z</time>
      </trkpt>
      <trkpt lat="48.02095" lon="-0.76268">
        <ele>109</ele>
        <time>2017-10-29T09:02:42Z</time>
      </trkpt>
      <trkpt lat="48.02096" lon="-0.76263">
        <ele>109</ele>
        <time>2017-10-29T09:02:46Z</time>
      </trkpt>
      <trkpt lat="48.02099" lon="-0.76259">
        <ele>109</ele>
        <time>2017-10-29T09:02:50Z</time>
      </trkpt>
      <trkpt lat="48.02099" lon="-0.76256">
        <ele>109</ele>
        <time>2017-10-29T09:02:54Z</time>
      </trkpt>
      <trkpt lat="48.02095" lon="-0.7625">
        <ele>109</ele>
        <time>2017-10-29T09:02:58Z</time>
      </trkpt>
      <trkpt lat="48.02095" lon="-0.76238">
        <ele>109</ele>
        <time>2017-10-29T09:03:02Z</time>
      </trkpt>
      <trkpt lat="48.02093" lon="-0.7623">
        <ele>109</ele>
        <time>2017-10-29T09:03:06Z</time>
      </trkpt>
      <trkpt lat="48.02097" lon="-0.76224">
        <ele>109</ele>
        <time>2017-10-29T09:03:10Z</time>
      </trkpt>
      <trkpt lat="48.02105" lon="-0.7622">
        <ele>109.1</ele>
        <time>2017-10-29T09:03:14Z</time>
      </trkpt>
      <trkpt lat="48.0211" lon="-0.7622">
        <ele>109.1</ele>
        <time>2017-10-29T09:03:18Z</time>
      </trkpt>
      <trkpt lat="48.02116" lon="-0.76214">
        <ele>109.2</ele>
        <time>2017-10-29T09:03:22Z</time>
      </trkpt>
      <trkpt lat="48.0212" lon="-0.76214">
        <ele>109.2</ele>
        <time>2017-10-29T09:03:26Z</time>
      </trkpt>
      <trkpt lat="48.02129" lon="-0.76205">
        <ele>109.2</ele>
        <time>2017-10-29T09:03:30Z</time>
      </trkpt>
      <trkpt lat="48.02135" lon="-0.76202">
        <ele>109.1</ele>
        <time>2017-10-29T09:03:34Z</time>
      </trkpt>
      <trkpt lat="48.02136" lon="-0.76202">
        <ele>109.1</ele>
        <time>2017-10-29T09:03:38Z</time>
      </trkpt>
      <trkpt lat="48.02142" lon="-0.76201">
        <ele>109</ele>
        <time>2017-10-29T09:03:42Z</time>
      </trkpt>
      <trkpt lat="48.02119" lon="-0.76219">
        <ele>109.1</ele>
        <time>2017-10-29T09:03:50Z</time>
      </trkpt>
      <trkpt lat="48.02117" lon="-0.76222">
        <ele>109</ele>
        <time>2017-10-29T09:03:54Z</time>
      </trkpt>
      <trkpt lat="48.02097" lon="-0.76231">
        <ele>109</ele>
        <time>2017-10-29T09:04:02Z</time>
      </trkpt>
      <trkpt lat="48.0208" lon="-0.76237">
        <ele>108.9</ele>
        <time>2017-10-29T09:04:06Z</time>
      </trkpt>
      <trkpt lat="48.02101" lon="-0.7623">
        <ele>109</ele>
        <time>2017-10-29T09:04:10Z</time>
      </trkpt>
      <trkpt lat="48.02109" lon="-0.76223">
        <ele>109</ele>
        <time>2017-10-29T09:04:14Z</time>
      </trkpt>
      <trkpt lat="48.02111" lon="-0.76221">
        <ele>109</ele>
        <time>2017-10-29T09:04:18Z</time>
      </trkpt>
      <trkpt lat="48.0212" lon="-0.76213">
        <ele>109.2</ele>
        <time>2017-10-29T09:04:26Z</time>
      </trkpt>
      <trkpt lat="48.02121" lon="-0.76215">
        <ele>109.2</ele>
        <time>2017-10-29T09:04:30Z</time>
      </trkpt>
      <trkpt lat="48.02115" lon="-0.76213">
        <ele>109.3</ele>
        <time>2017-10-29T09:04:34Z</time>
      </trkpt>
      <trkpt lat="48.02118" lon="-0.76209">
        <ele>109.4</ele>
        <time>2017-10-29T09:04:38Z</time>
      </trkpt>
      <trkpt lat="48.02127" lon="-0.76199">
        <ele>109.3</ele>
        <time>2017-10-29T09:04:46Z</time>
      </trkpt>
      <trkpt lat="48.02137" lon="-0.76195">
        <ele>109.1</ele>
        <time>2017-10-29T09:04:50Z</time>
      </trkpt>
      <trkpt lat="48.02151" lon="-0.76183">
        <ele>109</ele>
        <time>2017-10-29T09:04:58Z</time>
      </trkpt>
      <trkpt lat="48.02155" lon="-0.76174">
        <ele>109</ele>
        <time>2017-10-29T09:05:02Z</time>
      </trkpt>
      <trkpt lat="48.0216" lon="-0.76165">
        <ele>108.9</ele>
        <time>2017-10-29T09:05:06Z</time>
      </trkpt>
      <trkpt lat="48.02165" lon="-0.76158">
        <ele>108.7</ele>
        <time>2017-10-29T09:05:10Z</time>
      </trkpt>
      <trkpt lat="48.02172" lon="-0.76155">
        <ele>108.6</ele>
        <time>2017-10-29T09:05:14Z</time>
      </trkpt>
      <trkpt lat="48.02211" lon="-0.76123">
        <ele>107.4</ele>
        <time>2017-10-29T09:05:26Z</time>
      </trkpt>
      <trkpt lat="48.02176" lon="-0.76177">
        <ele>109</ele>
        <time>2017-10-29T09:05:34Z</time>
      </trkpt>
      <trkpt lat="48.02151" lon="-0.7619">
        <ele>109</ele>
        <time>2017-10-29T09:05:38Z</time>
      </trkpt>
      <trkpt lat="48.02144" lon="-0.76192">
        <ele>109</ele>
        <time>2017-10-29T09:05:42Z</time>
      </trkpt>
      <trkpt lat="48.02152" lon="-0.76184">
        <ele>109</ele>
        <time>2017-10-29T09:05:46Z</time>
      </trkpt>
      <trkpt lat="48.02147" lon="-0.76199">
        <ele>109.1</ele>
        <time>2017-10-29T09:05:50Z</time>
      </trkpt>
      <trkpt lat="48.02147" lon="-0.76201">
        <ele>109.1</ele>
        <time>2017-10-29T09:05:58Z</time>
      </trkpt>
      <trkpt lat="48.02139" lon="-0.76211">
        <ele>109</ele>
        <time>2017-10-29T09:06:02Z</time>
      </trkpt>
      <trkpt lat="48.02147" lon="-0.7621">
        <ele>109.2</ele>
        <time>2017-10-29T09:06:06Z</time>
      </trkpt>
      <trkpt lat="48.02138" lon="-0.76212">
        <ele>109</ele>
        <time>2017-10-29T09:06:10Z</time>
      </trkpt>
      <trkpt lat="48.02129" lon="-0.7621">
        <ele>109.2</ele>
        <time>2017-10-29T09:06:14Z</time>
      </trkpt>
      <trkpt lat="48.02118" lon="-0.76207">
        <ele>109.4</ele>
        <time>2017-10-29T09:06:18Z</time>
      </trkpt>
      <trkpt lat="48.02113" lon="-0.76211">
        <ele>109.4</ele>
        <time>2017-10-29T09:06:34Z</time>
      </trkpt>
      <trkpt lat="48.02111" lon="-0.76216">
        <ele>109.2</ele>
        <time>2017-10-29T09:06:38Z</time>
      </trkpt>
      <trkpt lat="48.02108" lon="-0.76221">
        <ele>109</ele>
        <time>2017-10-29T09:06:42Z</time>
      </trkpt>
      <trkpt lat="48.02103" lon="-0.76228">
        <ele>109</ele>
        <time>2017-10-29T09:06:46Z</time>
      </trkpt>
      <trkpt lat="48.02097" lon="-0.7623">
        <ele>109</ele>
        <time>2017-10-29T09:06:50Z</time>
      </trkpt>
      <trkpt lat="48.02099" lon="-0.76236">
        <ele>109</ele>
        <time>2017-10-29T09:06:54Z</time>
      </trkpt>
      <trkpt lat="48.02104" lon="-0.76236">
        <ele>109</ele>
        <time>2017-10-29T09:07:06Z</time>
      </trkpt>
      <trkpt lat="48.02108" lon="-0.7623">
        <ele>109</ele>
        <time>2017-10-29T09:07:10Z</time>
      </trkpt>
      <trkpt lat="48.02114" lon="-0.7622">
        <ele>109.1</ele>
        <time>2017-10-29T09:07:14Z</time>
      </trkpt>
      <trkpt lat="48.02115" lon="-0.76214">
        <ele>109.2</ele>
        <time>2017-10-29T09:07:18Z</time>
      </trkpt>
      <trkpt lat="48.02115" lon="-0.76211">
        <ele>109.4</ele>
        <time>2017-10-29T09:07:22Z</time>
      </trkpt>
      <trkpt lat="48.02117" lon="-0.76207">
        <ele>109.4</ele>
        <time>2017-10-29T09:07:26Z</time>
      </trkpt>
      <trkpt lat="48.02119" lon="-0.76207">
        <ele>109.4</ele>
        <time>2017-10-29T09:07:30Z</time>
      </trkpt>
      <trkpt lat="48.02123" lon="-0.76199">
        <ele>109.5</ele>
        <time>2017-10-29T09:07:34Z</time>
      </trkpt>
      <trkpt lat="48.02103" lon="-0.76227">
        <ele>109</ele>
        <time>2017-10-29T09:07:58Z</time>
      </trkpt>
      <trkpt lat="48.02101" lon="-0.76239">
        <ele>109</ele>
        <time>2017-10-29T09:08:14Z</time>
      </trkpt>
      <trkpt lat="48.02102" lon="-0.76246">
        <ele>109</ele>
        <time>2017-10-29T09:08:18Z</time>
      </trkpt>
      <trkpt lat="48.02102" lon="-0.76246">
        <ele>109</ele>
        <time>2017-10-29T09:08:22Z</time>
      </trkpt>
      <trkpt lat="48.02104" lon="-0.76247">
        <ele>109</ele>
        <time>2017-10-29T09:08:30Z</time>
      </trkpt>
      <trkpt lat="48.02105" lon="-0.7625">
        <ele>109</ele>
        <time>2017-10-29T09:08:34Z</time>
      </trkpt>
      <trkpt lat="48.02098" lon="-0.76288">
        <ele>109</ele>
        <time>2017-10-29T09:09:06Z</time>
      </trkpt>
      <trkpt lat="48.02095" lon="-0.76297">
        <ele>109</ele>
        <time>2017-10-29T09:09:10Z</time>
      </trkpt>
      <trkpt lat="48.02096" lon="-0.76301">
        <ele>109</ele>
        <time>2017-10-29T09:09:14Z</time>
      </trkpt>
      <trkpt lat="48.02094" lon="-0.76302">
        <ele>109</ele>
        <time>2017-10-29T09:09:18Z</time>
      </trkpt>
      <trkpt lat="48.02088" lon="-0.76288">
        <ele>109</ele>
        <time>2017-10-29T09:09:42Z</time>
      </trkpt>
      <trkpt lat="48.02092" lon="-0.76287">
        <ele>109</ele>
        <time>2017-10-29T09:09:46Z</time>
      </trkpt>
      <trkpt lat="48.02086" lon="-0.76278">
        <ele>109</ele>
        <time>2017-10-29T09:10:02Z</time>
      </trkpt>
      <trkpt lat="48.02089" lon="-0.76275">
        <ele>109</ele>
        <time>2017-10-29T09:10:06Z</time>
      </trkpt>
      <trkpt lat="48.02082" lon="-0.76274">
        <ele>108.9</ele>
        <time>2017-10-29T09:10:18Z</time>
      </trkpt>
      <trkpt lat="48.02081" lon="-0.76269">
        <ele>108.9</ele>
        <time>2017-10-29T09:10:22Z</time>
      </trkpt>
      <trkpt lat="48.02083" lon="-0.76264">
        <ele>109</ele>
        <time>2017-10-29T09:10:26Z</time>
      </trkpt>
      <trkpt lat="48.02082" lon="-0.76258">
        <ele>108.9</ele>
        <time>2017-10-29T09:10:30Z</time>
      </trkpt>
      <trkpt lat="48.02088" lon="-0.76254">
        <ele>109</ele>
        <time>2017-10-29T09:10:34Z</time>
      </trkpt>
      <trkpt lat="48.02093" lon="-0.76253">
        <ele>109</ele>
        <time>2017-10-29T09:10:38Z</time>
      </trkpt>
      <trkpt lat="48.02089" lon="-0.76266">
        <ele>109</ele>
        <time>2017-10-29T09:10:46Z</time>
      </trkpt>
      <trkpt lat="48.02094" lon="-0.76265">
        <ele>109</ele>
        <time>2017-10-29T09:11:06Z</time>
      </trkpt>
      <trkpt lat="48.02094" lon="-0.76268">
        <ele>109</ele>
        <time>2017-10-29T09:11:10Z</time>
      </trkpt>
      <trkpt lat="48.02093" lon="-0.76274">
        <ele>109</ele>
        <time>2017-10-29T09:11:14Z</time>
      </trkpt>
      <trkpt lat="48.02091" lon="-0.76279">
        <ele>109</ele>
        <time>2017-10-29T09:11:18Z</time>
      </trkpt>
      <trkpt lat="48.02087" lon="-0.76283">
        <ele>109</ele>
        <time>2017-10-29T09:11:22Z</time>
      </trkpt>
      <trkpt lat="48.02086" lon="-0.76291">
        <ele>109</ele>
        <time>2017-10-29T09:11:26Z</time>
      </trkpt>
      <trkpt lat="48.02086" lon="-0.76297">
        <ele>109</ele>
        <time>2017-10-29T09:11:30Z</time>
      </trkpt>
      <trkpt lat="48.02086" lon="-0.76304">
        <ele>109</ele>
        <time>2017-10-29T09:11:34Z</time>
      </trkpt>
      <trkpt lat="48.02086" lon="-0.76311">
        <ele>108.8</ele>
        <time>2017-10-29T09:11:38Z</time>
      </trkpt>
      <trkpt lat="48.02087" lon="-0.76317">
        <ele>108.6</ele>
        <time>2017-10-29T09:11:42Z</time>
      </trkpt>
      <trkpt lat="48.02085" lon="-0.76323">
        <ele>108.4</ele>
        <time>2017-10-29T09:13:18Z</time>
      </trkpt>
      <trkpt lat="48.02089" lon="-0.76311">
        <ele>108.8</ele>
        <time>2017-10-29T09:14:58Z</time>
      </trkpt>
      <trkpt lat="48.02087" lon="-0.76306">
        <ele>109</ele>
        <time>2017-10-29T09:15:26Z</time>
      </trkpt>
      <trkpt lat="48.02085" lon="-0.763">
        <ele>109</ele>
        <time>2017-10-29T09:15:30Z</time>
      </trkpt>
      <trkpt lat="48.02085" lon="-0.7629">
        <ele>109</ele>
        <time>2017-10-29T09:15:34Z</time>
      </trkpt>
      <trkpt lat="48.02085" lon="-0.76281">
        <ele>109</ele>
        <time>2017-10-29T09:15:38Z</time>
      </trkpt>
      <trkpt lat="48.0208" lon="-0.76276">
        <ele>108.9</ele>
        <time>2017-10-29T09:15:42Z</time>
      </trkpt>
      <trkpt lat="48.02071" lon="-0.76275">
        <ele>108.5</ele>
        <time>2017-10-29T09:15:46Z</time>
      </trkpt>
      <trkpt lat="48.02061" lon="-0.76267">
        <ele>108.2</ele>
        <time>2017-10-29T09:15:50Z</time>
      </trkpt>
      <trkpt lat="48.02065" lon="-0.76247">
        <ele>108.3</ele>
        <time>2017-10-29T09:15:54Z</time>
      </trkpt>
      <trkpt lat="48.02072" lon="-0.76231">
        <ele>108.6</ele>
        <time>2017-10-29T09:15:58Z</time>
      </trkpt>
      <trkpt lat="48.02076" lon="-0.76214">
        <ele>108.7</ele>
        <time>2017-10-29T09:16:02Z</time>
      </trkpt>
      <trkpt lat="48.02075" lon="-0.76195">
        <ele>108.7</ele>
        <time>2017-10-29T09:16:06Z</time>
      </trkpt>
      <trkpt lat="48.02076" lon="-0.76173">
        <ele>108.7</ele>
        <time>2017-10-29T09:16:10Z</time>
      </trkpt>
      <trkpt lat="48.02078" lon="-0.76152">
        <ele>108.9</ele>
        <time>2017-10-29T09:16:14Z</time>
      </trkpt>
      <trkpt lat="48.0209" lon="-0.76148">
        <ele>108.8</ele>
        <time>2017-10-29T09:16:18Z</time>
      </trkpt>
      <trkpt lat="48.02098" lon="-0.7614">
        <ele>108.5</ele>
        <time>2017-10-29T09:16:22Z</time>
      </trkpt>
      <trkpt lat="48.02095" lon="-0.76129">
        <ele>108.4</ele>
        <time>2017-10-29T09:16:26Z</time>
      </trkpt>
      <trkpt lat="48.02081" lon="-0.7613">
        <ele>108.7</ele>
        <time>2017-10-29T09:16:30Z</time>
      </trkpt>
      <trkpt lat="48.02071" lon="-0.76133">
        <ele>108.8</ele>
        <time>2017-10-29T09:16:34Z</time>
      </trkpt>
      <trkpt lat="48.0206" lon="-0.76134">
        <ele>108.8</ele>
        <time>2017-10-29T09:16:38Z</time>
      </trkpt>
      <trkpt lat="48.02047" lon="-0.76134">
        <ele>108.6</ele>
        <time>2017-10-29T09:16:42Z</time>
      </trkpt>
      <trkpt lat="48.02033" lon="-0.76135">
        <ele>108.3</ele>
        <time>2017-10-29T09:16:46Z</time>
      </trkpt>
      <trkpt lat="48.02016" lon="-0.76136">
        <ele>108.5</ele>
        <time>2017-10-29T09:16:50Z</time>
      </trkpt>
      <trkpt lat="48.01998" lon="-0.76137">
        <ele>108.9</ele>
        <time>2017-10-29T09:16:54Z</time>
      </trkpt>
      <trkpt lat="48.01979" lon="-0.7614">
        <ele>108.2</ele>
        <time>2017-10-29T09:16:58Z</time>
      </trkpt>
      <trkpt lat="48.01962" lon="-0.76144">
        <ele>108.1</ele>
        <time>2017-10-29T09:17:02Z</time>
      </trkpt>
      <trkpt lat="48.01946" lon="-0.7615">
        <ele>108.2</ele>
        <time>2017-10-29T09:17:06Z</time>
      </trkpt>
      <trkpt lat="48.01936" lon="-0.76156">
        <ele>108</ele>
        <time>2017-10-29T09:17:10Z</time>
      </trkpt>
      <trkpt lat="48.01923" lon="-0.76162">
        <ele>108</ele>
        <time>2017-10-29T09:17:14Z</time>
      </trkpt>
      <trkpt lat="48.01906" lon="-0.7617">
        <ele>107.8</ele>
        <time>2017-10-29T09:17:18Z</time>
      </trkpt>
      <trkpt lat="48.01886" lon="-0.76179">
        <ele>107.7</ele>
        <time>2017-10-29T09:17:22Z</time>
      </trkpt>
      <trkpt lat="48.01868" lon="-0.76187">
        <ele>108</ele>
        <time>2017-10-29T09:17:26Z</time>
      </trkpt>
      <trkpt lat="48.01849" lon="-0.76195">
        <ele>108</ele>
        <time>2017-10-29T09:17:30Z</time>
      </trkpt>
      <trkpt lat="48.0183" lon="-0.76203">
        <ele>108.1</ele>
        <time>2017-10-29T09:17:34Z</time>
      </trkpt>
      <trkpt lat="48.01807" lon="-0.7621">
        <ele>108.4</ele>
        <time>2017-10-29T09:17:38Z</time>
      </trkpt>
      <trkpt lat="48.01786" lon="-0.76218">
        <ele>108</ele>
        <time>2017-10-29T09:17:42Z</time>
      </trkpt>
      <trkpt lat="48.0176" lon="-0.76228">
        <ele>108</ele>
        <time>2017-10-29T09:17:46Z</time>
      </trkpt>
      <trkpt lat="48.01736" lon="-0.76236">
        <ele>107.5</ele>
        <time>2017-10-29T09:17:50Z</time>
      </trkpt>
      <trkpt lat="48.01711" lon="-0.76243">
        <ele>106.7</ele>
        <time>2017-10-29T09:17:54Z</time>
      </trkpt>
      <trkpt lat="48.01677" lon="-0.7625">
        <ele>106</ele>
        <time>2017-10-29T09:17:58Z</time>
      </trkpt>
      <trkpt lat="48.01651" lon="-0.76256">
        <ele>105.5</ele>
        <time>2017-10-29T09:18:02Z</time>
      </trkpt>
      <trkpt lat="48.01629" lon="-0.76262">
        <ele>104.8</ele>
        <time>2017-10-29T09:18:06Z</time>
      </trkpt>
      <trkpt lat="48.01609" lon="-0.76274">
        <ele>104.1</ele>
        <time>2017-10-29T09:18:10Z</time>
      </trkpt>
      <trkpt lat="48.01615" lon="-0.76283">
        <ele>104.1</ele>
        <time>2017-10-29T09:18:14Z</time>
      </trkpt>
      <trkpt lat="48.01628" lon="-0.76296">
        <ele>104.6</ele>
        <time>2017-10-29T09:18:18Z</time>
      </trkpt>
      <trkpt lat="48.01645" lon="-0.76314">
        <ele>105.1</ele>
        <time>2017-10-29T09:18:22Z</time>
      </trkpt>
      <trkpt lat="48.01661" lon="-0.76332">
        <ele>105</ele>
        <time>2017-10-29T09:18:26Z</time>
      </trkpt>
      <trkpt lat="48.01676" lon="-0.76348">
        <ele>105.3</ele>
        <time>2017-10-29T09:18:30Z</time>
      </trkpt>
      <trkpt lat="48.01688" lon="-0.76363">
        <ele>105.7</ele>
        <time>2017-10-29T09:18:34Z</time>
      </trkpt>
      <trkpt lat="48.01679" lon="-0.7638">
        <ele>105.1</ele>
        <time>2017-10-29T09:18:38Z</time>
      </trkpt>
      <trkpt lat="48.01662" lon="-0.76393">
        <ele>104.7</ele>
        <time>2017-10-29T09:18:43Z</time>
      </trkpt>
      <trkpt lat="48.01642" lon="-0.76388">
        <ele>104.1</ele>
        <time>2017-10-29T09:18:46Z</time>
      </trkpt>
      <trkpt lat="48.01621" lon="-0.76385">
        <ele>103.3</ele>
        <time>2017-10-29T09:18:50Z</time>
      </trkpt>
      <trkpt lat="48.01611" lon="-0.76399">
        <ele>102.6</ele>
        <time>2017-10-29T09:18:54Z</time>
      </trkpt>
      <trkpt lat="48.01609" lon="-0.76427">
        <ele>101.6</ele>
        <time>2017-10-29T09:18:58Z</time>
      </trkpt>
      <trkpt lat="48.01606" lon="-0.7646">
        <ele>100.7</ele>
        <time>2017-10-29T09:19:02Z</time>
      </trkpt>
      <trkpt lat="48.01604" lon="-0.76496">
        <ele>99.9</ele>
        <time>2017-10-29T09:19:06Z</time>
      </trkpt>
      <trkpt lat="48.016" lon="-0.76532">
        <ele>98.6</ele>
        <time>2017-10-29T09:19:10Z</time>
      </trkpt>
      <trkpt lat="48.01597" lon="-0.76568">
        <ele>98</ele>
        <time>2017-10-29T09:19:14Z</time>
      </trkpt>
      <trkpt lat="48.01596" lon="-0.76605">
        <ele>96.7</ele>
        <time>2017-10-29T09:19:18Z</time>
      </trkpt>
      <trkpt lat="48.01592" lon="-0.76642">
        <ele>96.2</ele>
        <time>2017-10-29T09:19:22Z</time>
      </trkpt>
      <trkpt lat="48.01589" lon="-0.76683">
        <ele>93.9</ele>
        <time>2017-10-29T09:19:26Z</time>
      </trkpt>
      <trkpt lat="48.01585" lon="-0.7673">
        <ele>92.1</ele>
        <time>2017-10-29T09:19:30Z</time>
      </trkpt>
      <trkpt lat="48.01582" lon="-0.76774">
        <ele>91.9</ele>
        <time>2017-10-29T09:19:34Z</time>
      </trkpt>
      <trkpt lat="48.01578" lon="-0.76807">
        <ele>91.6</ele>
        <time>2017-10-29T09:19:38Z</time>
      </trkpt>
      <trkpt lat="48.01577" lon="-0.76832">
        <ele>90.8</ele>
        <time>2017-10-29T09:19:42Z</time>
      </trkpt>
      <trkpt lat="48.01569" lon="-0.76849">
        <ele>90.8</ele>
        <time>2017-10-29T09:19:46Z</time>
      </trkpt>
      <trkpt lat="48.01552" lon="-0.76852">
        <ele>89.6</ele>
        <time>2017-10-29T09:19:50Z</time>
      </trkpt>
      <trkpt lat="48.0153" lon="-0.76855">
        <ele>87.2</ele>
        <time>2017-10-29T09:19:54Z</time>
      </trkpt>
      <trkpt lat="48.01518" lon="-0.76858">
        <ele>86.3</ele>
        <time>2017-10-29T09:19:58Z</time>
      </trkpt>
      <trkpt lat="48.0151" lon="-0.76854">
        <ele>85.9</ele>
        <time>2017-10-29T09:20:02Z</time>
      </trkpt>
      <trkpt lat="48.0151" lon="-0.76842">
        <ele>86.2</ele>
        <time>2017-10-29T09:20:06Z</time>
      </trkpt>
      <trkpt lat="48.01509" lon="-0.76827">
        <ele>86.5</ele>
        <time>2017-10-29T09:20:10Z</time>
      </trkpt>
      <trkpt lat="48.01498" lon="-0.7682">
        <ele>86.6</ele>
        <time>2017-10-29T09:20:14Z</time>
      </trkpt>
      <trkpt lat="48.01485" lon="-0.76816">
        <ele>87.2</ele>
        <time>2017-10-29T09:20:18Z</time>
      </trkpt>
      <trkpt lat="48.01468" lon="-0.76808">
        <ele>88.2</ele>
        <time>2017-10-29T09:20:22Z</time>
      </trkpt>
      <trkpt lat="48.01454" lon="-0.76806">
        <ele>89.3</ele>
        <time>2017-10-29T09:20:26Z</time>
      </trkpt>
      <trkpt lat="48.0144" lon="-0.76807">
        <ele>89.8</ele>
        <time>2017-10-29T09:20:30Z</time>
      </trkpt>
      <trkpt lat="48.01428" lon="-0.76807">
        <ele>89.4</ele>
        <time>2017-10-29T09:20:34Z</time>
      </trkpt>
      <trkpt lat="48.01422" lon="-0.76807">
        <ele>89.1</ele>
        <time>2017-10-29T09:20:38Z</time>
      </trkpt>
      <trkpt lat="48.01421" lon="-0.7682">
        <ele>88.6</ele>
        <time>2017-10-29T09:20:42Z</time>
      </trkpt>
      <trkpt lat="48.01422" lon="-0.76842">
        <ele>87.7</ele>
        <time>2017-10-29T09:20:46Z</time>
      </trkpt>
      <trkpt lat="48.01425" lon="-0.76868">
        <ele>86.7</ele>
        <time>2017-10-29T09:20:50Z</time>
      </trkpt>
      <trkpt lat="48.0143" lon="-0.76895">
        <ele>85.2</ele>
        <time>2017-10-29T09:20:54Z</time>
      </trkpt>
      <trkpt lat="48.01434" lon="-0.76919">
        <ele>83.6</ele>
        <time>2017-10-29T09:20:58Z</time>
      </trkpt>
      <trkpt lat="48.01438" lon="-0.76937">
        <ele>82.2</ele>
        <time>2017-10-29T09:21:02Z</time>
      </trkpt>
      <trkpt lat="48.01437" lon="-0.76952">
        <ele>81.5</ele>
        <time>2017-10-29T09:21:06Z</time>
      </trkpt>
      <trkpt lat="48.01428" lon="-0.76958">
        <ele>82.6</ele>
        <time>2017-10-29T09:21:10Z</time>
      </trkpt>
      <trkpt lat="48.01414" lon="-0.76949">
        <ele>83.6</ele>
        <time>2017-10-29T09:21:14Z</time>
      </trkpt>
      <trkpt lat="48.01403" lon="-0.76956">
        <ele>81.9</ele>
        <time>2017-10-29T09:21:18Z</time>
      </trkpt>
      <trkpt lat="48.01399" lon="-0.76947">
        <ele>81.3</ele>
        <time>2017-10-29T09:21:22Z</time>
      </trkpt>
      <trkpt lat="48.01382" lon="-0.7694">
        <ele>79.8</ele>
        <time>2017-10-29T09:21:26Z</time>
      </trkpt>
      <trkpt lat="48.01365" lon="-0.76933">
        <ele>79.1</ele>
        <time>2017-10-29T09:21:30Z</time>
      </trkpt>
      <trkpt lat="48.01347" lon="-0.76924">
        <ele>79</ele>
        <time>2017-10-29T09:21:34Z</time>
      </trkpt>
      <trkpt lat="48.01329" lon="-0.76913">
        <ele>79.1</ele>
        <time>2017-10-29T09:21:38Z</time>
      </trkpt>
      <trkpt lat="48.01314" lon="-0.76904">
        <ele>79.2</ele>
        <time>2017-10-29T09:21:42Z</time>
      </trkpt>
      <trkpt lat="48.01302" lon="-0.76896">
        <ele>79.7</ele>
        <time>2017-10-29T09:21:46Z</time>
      </trkpt>
      <trkpt lat="48.01288" lon="-0.7689">
        <ele>79.6</ele>
        <time>2017-10-29T09:21:50Z</time>
      </trkpt>
      <trkpt lat="48.01275" lon="-0.76881">
        <ele>79.6</ele>
        <time>2017-10-29T09:21:54Z</time>
      </trkpt>
      <trkpt lat="48.01264" lon="-0.76875">
        <ele>79.7</ele>
        <time>2017-10-29T09:21:58Z</time>
      </trkpt>
      <trkpt lat="48.01255" lon="-0.76871">
        <ele>79.8</ele>
        <time>2017-10-29T09:22:02Z</time>
      </trkpt>
      <trkpt lat="48.01244" lon="-0.76863">
        <ele>80.2</ele>
        <time>2017-10-29T09:22:06Z</time>
      </trkpt>
      <trkpt lat="48.01236" lon="-0.76858">
        <ele>80.1</ele>
        <time>2017-10-29T09:22:10Z</time>
      </trkpt>
      <trkpt lat="48.01225" lon="-0.76852">
        <ele>79.9</ele>
        <time>2017-10-29T09:22:14Z</time>
      </trkpt>
      <trkpt lat="48.01215" lon="-0.76847">
        <ele>80.2</ele>
        <time>2017-10-29T09:22:18Z</time>
      </trkpt>
      <trkpt lat="48.0121" lon="-0.76844">
        <ele>80.6</ele>
        <time>2017-10-29T09:22:22Z</time>
      </trkpt>
      <trkpt lat="48.01206" lon="-0.76838">
        <ele>81.2</ele>
        <time>2017-10-29T09:22:26Z</time>
      </trkpt>
      <trkpt lat="48.01205" lon="-0.76833">
        <ele>81.9</ele>
        <time>2017-10-29T09:22:38Z</time>
      </trkpt>
      <trkpt lat="48.01204" lon="-0.76828">
        <ele>82.7</ele>
        <time>2017-10-29T09:22:42Z</time>
      </trkpt>
      <trkpt lat="48.01204" lon="-0.76824">
        <ele>83.7</ele>
        <time>2017-10-29T09:22:46Z</time>
      </trkpt>
      <trkpt lat="48.01204" lon="-0.76818">
        <ele>85.1</ele>
        <time>2017-10-29T09:22:50Z</time>
      </trkpt>
      <trkpt lat="48.01202" lon="-0.76812">
        <ele>86.3</ele>
        <time>2017-10-29T09:22:54Z</time>
      </trkpt>
      <trkpt lat="48.01201" lon="-0.76806">
        <ele>87.4</ele>
        <time>2017-10-29T09:22:58Z</time>
      </trkpt>
      <trkpt lat="48.01199" lon="-0.76801">
        <ele>88.4</ele>
        <time>2017-10-29T09:23:02Z</time>
      </trkpt>
      <trkpt lat="48.01197" lon="-0.76796">
        <ele>89.3</ele>
        <time>2017-10-29T09:23:06Z</time>
      </trkpt>
      <trkpt lat="48.01195" lon="-0.76792">
        <ele>90</ele>
        <time>2017-10-29T09:23:10Z</time>
      </trkpt>
      <trkpt lat="48.01194" lon="-0.76788">
        <ele>90.8</ele>
        <time>2017-10-29T09:23:14Z</time>
      </trkpt>
      <trkpt lat="48.01192" lon="-0.76783">
        <ele>91.5</ele>
        <time>2017-10-29T09:23:18Z</time>
      </trkpt>
      <trkpt lat="48.01191" lon="-0.76779">
        <ele>92.1</ele>
        <time>2017-10-29T09:23:22Z</time>
      </trkpt>
      <trkpt lat="48.0119" lon="-0.76774">
        <ele>92.8</ele>
        <time>2017-10-29T09:23:26Z</time>
      </trkpt>
      <trkpt lat="48.01187" lon="-0.7677">
        <ele>93.3</ele>
        <time>2017-10-29T09:23:30Z</time>
      </trkpt>
      <trkpt lat="48.01185" lon="-0.76766">
        <ele>93.7</ele>
        <time>2017-10-29T09:23:34Z</time>
      </trkpt>
      <trkpt lat="48.01183" lon="-0.76761">
        <ele>94.5</ele>
        <time>2017-10-29T09:23:38Z</time>
      </trkpt>
      <trkpt lat="48.01182" lon="-0.76757">
        <ele>95.2</ele>
        <time>2017-10-29T09:23:42Z</time>
      </trkpt>
      <trkpt lat="48.0118" lon="-0.76752">
        <ele>95.9</ele>
        <time>2017-10-29T09:23:46Z</time>
      </trkpt>
      <trkpt lat="48.01178" lon="-0.76749">
        <ele>96.4</ele>
        <time>2017-10-29T09:23:50Z</time>
      </trkpt>
      <trkpt lat="48.01176" lon="-0.76747">
        <ele>96.4</ele>
        <time>2017-10-29T09:24:18Z</time>
      </trkpt>
      <trkpt lat="48.01174" lon="-0.76745">
        <ele>96.6</ele>
        <time>2017-10-29T09:24:26Z</time>
      </trkpt>
      <trkpt lat="48.01168" lon="-0.76741">
        <ele>96.8</ele>
        <time>2017-10-29T09:24:30Z</time>
      </trkpt>
      <trkpt lat="48.0116" lon="-0.76739">
        <ele>96.4</ele>
        <time>2017-10-29T09:24:34Z</time>
      </trkpt>
      <trkpt lat="48.01152" lon="-0.76735">
        <ele>96.3</ele>
        <time>2017-10-29T09:24:38Z</time>
      </trkpt>
      <trkpt lat="48.01142" lon="-0.76735">
        <ele>95.6</ele>
        <time>2017-10-29T09:24:42Z</time>
      </trkpt>
      <trkpt lat="48.01128" lon="-0.76739">
        <ele>93.2</ele>
        <time>2017-10-29T09:24:46Z</time>
      </trkpt>
      <trkpt lat="48.01112" lon="-0.76744">
        <ele>90.4</ele>
        <time>2017-10-29T09:24:50Z</time>
      </trkpt>
      <trkpt lat="48.01098" lon="-0.76749">
        <ele>88.2</ele>
        <time>2017-10-29T09:24:54Z</time>
      </trkpt>
      <trkpt lat="48.01086" lon="-0.76758">
        <ele>85.6</ele>
        <time>2017-10-29T09:24:58Z</time>
      </trkpt>
      <trkpt lat="48.0107" lon="-0.76769">
        <ele>82.5</ele>
        <time>2017-10-29T09:25:02Z</time>
      </trkpt>
      <trkpt lat="48.01047" lon="-0.76777">
        <ele>80.1</ele>
        <time>2017-10-29T09:25:06Z</time>
      </trkpt>
      <trkpt lat="48.0102" lon="-0.76785">
        <ele>78.7</ele>
        <time>2017-10-29T09:25:10Z</time>
      </trkpt>
      <trkpt lat="48.00989" lon="-0.76792">
        <ele>76.6</ele>
        <time>2017-10-29T09:25:14Z</time>
      </trkpt>
      <trkpt lat="48.00968" lon="-0.768">
        <ele>75.4</ele>
        <time>2017-10-29T09:25:18Z</time>
      </trkpt>
      <trkpt lat="48.00955" lon="-0.76804">
        <ele>75</ele>
        <time>2017-10-29T09:25:22Z</time>
      </trkpt>
      <trkpt lat="48.0094" lon="-0.76813">
        <ele>75.2</ele>
        <time>2017-10-29T09:25:26Z</time>
      </trkpt>
      <trkpt lat="48.00931" lon="-0.76821">
        <ele>75.5</ele>
        <time>2017-10-29T09:25:30Z</time>
      </trkpt>
      <trkpt lat="48.00919" lon="-0.76824">
        <ele>75.9</ele>
        <time>2017-10-29T09:25:34Z</time>
      </trkpt>
      <trkpt lat="48.00908" lon="-0.76827">
        <ele>76.6</ele>
        <time>2017-10-29T09:25:38Z</time>
      </trkpt>
      <trkpt lat="48.00897" lon="-0.76831">
        <ele>77.4</ele>
        <time>2017-10-29T09:25:42Z</time>
      </trkpt>
      <trkpt lat="48.00883" lon="-0.76835">
        <ele>78.4</ele>
        <time>2017-10-29T09:25:46Z</time>
      </trkpt>
      <trkpt lat="48.00867" lon="-0.76838">
        <ele>79.5</ele>
        <time>2017-10-29T09:25:50Z</time>
      </trkpt>
      <trkpt lat="48.00856" lon="-0.76841">
        <ele>80.3</ele>
        <time>2017-10-29T09:25:54Z</time>
      </trkpt>
      <trkpt lat="48.00848" lon="-0.76844">
        <ele>80.7</ele>
        <time>2017-10-29T09:25:58Z</time>
      </trkpt>
      <trkpt lat="48.00842" lon="-0.76847">
        <ele>81</ele>
        <time>2017-10-29T09:26:02Z</time>
      </trkpt>
      <trkpt lat="48.00836" lon="-0.76854">
        <ele>81.1</ele>
        <time>2017-10-29T09:26:06Z</time>
      </trkpt>
      <trkpt lat="48.0083" lon="-0.76858">
        <ele>81.4</ele>
        <time>2017-10-29T09:26:38Z</time>
      </trkpt>
      <trkpt lat="48.00831" lon="-0.76866">
        <ele>81</ele>
        <time>2017-10-29T09:26:42Z</time>
      </trkpt>
      <trkpt lat="48.00833" lon="-0.76874">
        <ele>80.5</ele>
        <time>2017-10-29T09:26:46Z</time>
      </trkpt>
      <trkpt lat="48.00839" lon="-0.76889">
        <ele>79.8</ele>
        <time>2017-10-29T09:26:50Z</time>
      </trkpt>
      <trkpt lat="48.00846" lon="-0.76913">
        <ele>78.2</ele>
        <time>2017-10-29T09:26:54Z</time>
      </trkpt>
      <trkpt lat="48.00851" lon="-0.7693">
        <ele>77.1</ele>
        <time>2017-10-29T09:26:58Z</time>
      </trkpt>
      <trkpt lat="48.00854" lon="-0.76945">
        <ele>76</ele>
        <time>2017-10-29T09:27:02Z</time>
      </trkpt>
      <trkpt lat="48.00858" lon="-0.76965">
        <ele>74.5</ele>
        <time>2017-10-29T09:27:06Z</time>
      </trkpt>
      <trkpt lat="48.00862" lon="-0.76985">
        <ele>73.1</ele>
        <time>2017-10-29T09:27:10Z</time>
      </trkpt>
      <trkpt lat="48.0086" lon="-0.77018">
        <ele>70.7</ele>
        <time>2017-10-29T09:27:14Z</time>
      </trkpt>
      <trkpt lat="48.00861" lon="-0.77053">
        <ele>69.1</ele>
        <time>2017-10-29T09:27:18Z</time>
      </trkpt>
      <trkpt lat="48.00867" lon="-0.77085">
        <ele>68</ele>
        <time>2017-10-29T09:27:22Z</time>
      </trkpt>
      <trkpt lat="48.00877" lon="-0.77115">
        <ele>68</ele>
        <time>2017-10-29T09:27:26Z</time>
      </trkpt>
      <trkpt lat="48.00884" lon="-0.77144">
        <ele>68.1</ele>
        <time>2017-10-29T09:27:30Z</time>
      </trkpt>
      <trkpt lat="48.00889" lon="-0.77169">
        <ele>69.1</ele>
        <time>2017-10-29T09:27:34Z</time>
      </trkpt>
      <trkpt lat="48.00888" lon="-0.77192">
        <ele>69.9</ele>
        <time>2017-10-29T09:27:38Z</time>
      </trkpt>
      <trkpt lat="48.00888" lon="-0.77218">
        <ele>70.8</ele>
        <time>2017-10-29T09:27:42Z</time>
      </trkpt>
      <trkpt lat="48.00885" lon="-0.77241">
        <ele>71.5</ele>
        <time>2017-10-29T09:27:46Z</time>
      </trkpt>
      <trkpt lat="48.00882" lon="-0.77264">
        <ele>72.8</ele>
        <time>2017-10-29T09:27:50Z</time>
      </trkpt>
      <trkpt lat="48.00881" lon="-0.77285">
        <ele>74</ele>
        <time>2017-10-29T09:27:54Z</time>
      </trkpt>
      <trkpt lat="48.00881" lon="-0.77307">
        <ele>74.8</ele>
        <time>2017-10-29T09:27:58Z</time>
      </trkpt>
      <trkpt lat="48.00881" lon="-0.77326">
        <ele>75.5</ele>
        <time>2017-10-29T09:28:02Z</time>
      </trkpt>
      <trkpt lat="48.0088" lon="-0.77344">
        <ele>76.5</ele>
        <time>2017-10-29T09:28:06Z</time>
      </trkpt>
      <trkpt lat="48.00879" lon="-0.77363">
        <ele>77.7</ele>
        <time>2017-10-29T09:28:10Z</time>
      </trkpt>
      <trkpt lat="48.00876" lon="-0.77379">
        <ele>78.2</ele>
        <time>2017-10-29T09:28:14Z</time>
      </trkpt>
      <trkpt lat="48.00875" lon="-0.77394">
        <ele>78.7</ele>
        <time>2017-10-29T09:28:18Z</time>
      </trkpt>
      <trkpt lat="48.00875" lon="-0.77409">
        <ele>79.3</ele>
        <time>2017-10-29T09:28:22Z</time>
      </trkpt>
      <trkpt lat="48.00875" lon="-0.77423">
        <ele>80</ele>
        <time>2017-10-29T09:28:26Z</time>
      </trkpt>
      <trkpt lat="48.00875" lon="-0.77438">
        <ele>81.1</ele>
        <time>2017-10-29T09:28:30Z</time>
      </trkpt>
      <trkpt lat="48.00874" lon="-0.77452">
        <ele>82</ele>
        <time>2017-10-29T09:28:34Z</time>
      </trkpt>
      <trkpt lat="48.00874" lon="-0.77465">
        <ele>82.9</ele>
        <time>2017-10-29T09:28:38Z</time>
      </trkpt>
      <trkpt lat="48.0087" lon="-0.77487">
        <ele>84.2</ele>
        <time>2017-10-29T09:28:43Z</time>
      </trkpt>
      <trkpt lat="48.00869" lon="-0.775">
        <ele>85</ele>
        <time>2017-10-29T09:28:50Z</time>
      </trkpt>
      <trkpt lat="48.00867" lon="-0.7751">
        <ele>85.4</ele>
        <time>2017-10-29T09:28:54Z</time>
      </trkpt>
      <trkpt lat="48.00865" lon="-0.7752">
        <ele>85.7</ele>
        <time>2017-10-29T09:28:58Z</time>
      </trkpt>
      <trkpt lat="48.00863" lon="-0.7753">
        <ele>86.2</ele>
        <time>2017-10-29T09:29:02Z</time>
      </trkpt>
      <trkpt lat="48.00863" lon="-0.7754">
        <ele>86.9</ele>
        <time>2017-10-29T09:29:06Z</time>
      </trkpt>
      <trkpt lat="48.00862" lon="-0.77552">
        <ele>87.7</ele>
        <time>2017-10-29T09:29:10Z</time>
      </trkpt>
      <trkpt lat="48.00861" lon="-0.77566">
        <ele>88.7</ele>
        <time>2017-10-29T09:29:14Z</time>
      </trkpt>
      <trkpt lat="48.0086" lon="-0.77576">
        <ele>89.5</ele>
        <time>2017-10-29T09:29:18Z</time>
      </trkpt>
      <trkpt lat="48.00859" lon="-0.77588">
        <ele>90.2</ele>
        <time>2017-10-29T09:29:22Z</time>
      </trkpt>
      <trkpt lat="48.00858" lon="-0.77601">
        <ele>90.7</ele>
        <time>2017-10-29T09:29:26Z</time>
      </trkpt>
      <trkpt lat="48.00856" lon="-0.77614">
        <ele>91.2</ele>
        <time>2017-10-29T09:29:30Z</time>
      </trkpt>
      <trkpt lat="48.00854" lon="-0.77628">
        <ele>91.4</ele>
        <time>2017-10-29T09:29:34Z</time>
      </trkpt>
      <trkpt lat="48.0085" lon="-0.77638">
        <ele>91.8</ele>
        <time>2017-10-29T09:29:38Z</time>
      </trkpt>
      <trkpt lat="48.00847" lon="-0.77649">
        <ele>92.2</ele>
        <time>2017-10-29T09:29:42Z</time>
      </trkpt>
      <trkpt lat="48.00845" lon="-0.77657">
        <ele>92.5</ele>
        <time>2017-10-29T09:29:46Z</time>
      </trkpt>
      <trkpt lat="48.00845" lon="-0.77667">
        <ele>92.7</ele>
        <time>2017-10-29T09:29:50Z</time>
      </trkpt>
      <trkpt lat="48.00846" lon="-0.77673">
        <ele>92.7</ele>
        <time>2017-10-29T09:29:54Z</time>
      </trkpt>
      <trkpt lat="48.00846" lon="-0.7768">
        <ele>92.8</ele>
        <time>2017-10-29T09:29:58Z</time>
      </trkpt>
      <trkpt lat="48.00846" lon="-0.77687">
        <ele>92.9</ele>
        <time>2017-10-29T09:30:02Z</time>
      </trkpt>
      <trkpt lat="48.00843" lon="-0.77696">
        <ele>93.3</ele>
        <time>2017-10-29T09:30:06Z</time>
      </trkpt>
      <trkpt lat="48.0084" lon="-0.77704">
        <ele>93.8</ele>
        <time>2017-10-29T09:30:10Z</time>
      </trkpt>
      <trkpt lat="48.00834" lon="-0.77705">
        <ele>94</ele>
        <time>2017-10-29T09:30:14Z</time>
      </trkpt>
      <trkpt lat="48.00833" lon="-0.77702">
        <ele>94</ele>
        <time>2017-10-29T09:30:18Z</time>
      </trkpt>
      <trkpt lat="48.00836" lon="-0.77703">
        <ele>93.9</ele>
        <time>2017-10-29T09:30:22Z</time>
      </trkpt>
      <trkpt lat="48.00839" lon="-0.77704">
        <ele>93.8</ele>
        <time>2017-10-29T09:30:26Z</time>
      </trkpt>
      <trkpt lat="48.00841" lon="-0.77709">
        <ele>93.9</ele>
        <time>2017-10-29T09:30:30Z</time>
      </trkpt>
      <trkpt lat="48.00839" lon="-0.77716">
        <ele>94.1</ele>
        <time>2017-10-29T09:30:34Z</time>
      </trkpt>
      <trkpt lat="48.00838" lon="-0.77726">
        <ele>94.4</ele>
        <time>2017-10-29T09:30:38Z</time>
      </trkpt>
      <trkpt lat="48.00838" lon="-0.77737">
        <ele>95.1</ele>
        <time>2017-10-29T09:30:42Z</time>
      </trkpt>
      <trkpt lat="48.00838" lon="-0.77749">
        <ele>95.9</ele>
        <time>2017-10-29T09:30:46Z</time>
      </trkpt>
      <trkpt lat="48.00838" lon="-0.7776">
        <ele>96.4</ele>
        <time>2017-10-29T09:30:50Z</time>
      </trkpt>
      <trkpt lat="48.00837" lon="-0.77773">
        <ele>96.9</ele>
        <time>2017-10-29T09:30:54Z</time>
      </trkpt>
      <trkpt lat="48.00836" lon="-0.77784">
        <ele>97.5</ele>
        <time>2017-10-29T09:30:58Z</time>
      </trkpt>
      <trkpt lat="48.00833" lon="-0.77795">
        <ele>98.3</ele>
        <time>2017-10-29T09:31:02Z</time>
      </trkpt>
      <trkpt lat="48.00831" lon="-0.77806">
        <ele>99.3</ele>
        <time>2017-10-29T09:31:06Z</time>
      </trkpt>
      <trkpt lat="48.00828" lon="-0.77816">
        <ele>100.2</ele>
        <time>2017-10-29T09:31:10Z</time>
      </trkpt>
      <trkpt lat="48.00824" lon="-0.77826">
        <ele>100.9</ele>
        <time>2017-10-29T09:31:14Z</time>
      </trkpt>
      <trkpt lat="48.0082" lon="-0.77835">
        <ele>101.5</ele>
        <time>2017-10-29T09:31:18Z</time>
      </trkpt>
      <trkpt lat="48.00816" lon="-0.77845">
        <ele>102</ele>
        <time>2017-10-29T09:31:22Z</time>
      </trkpt>
      <trkpt lat="48.00812" lon="-0.77855">
        <ele>102.5</ele>
        <time>2017-10-29T09:31:26Z</time>
      </trkpt>
      <trkpt lat="48.00808" lon="-0.77864">
        <ele>103</ele>
        <time>2017-10-29T09:31:30Z</time>
      </trkpt>
      <trkpt lat="48.00804" lon="-0.77874">
        <ele>103.5</ele>
        <time>2017-10-29T09:31:34Z</time>
      </trkpt>
      <trkpt lat="48.008" lon="-0.77884">
        <ele>104.1</ele>
        <time>2017-10-29T09:31:38Z</time>
      </trkpt>
      <trkpt lat="48.00794" lon="-0.77894">
        <ele>104.6</ele>
        <time>2017-10-29T09:31:42Z</time>
      </trkpt>
      <trkpt lat="48.0079" lon="-0.77905">
        <ele>105.1</ele>
        <time>2017-10-29T09:31:46Z</time>
      </trkpt>
      <trkpt lat="48.00786" lon="-0.77915">
        <ele>105.6</ele>
        <time>2017-10-29T09:31:50Z</time>
      </trkpt>
      <trkpt lat="48.00782" lon="-0.77925">
        <ele>105.9</ele>
        <time>2017-10-29T09:31:54Z</time>
      </trkpt>
      <trkpt lat="48.00777" lon="-0.77937">
        <ele>106</ele>
        <time>2017-10-29T09:31:58Z</time>
      </trkpt>
      <trkpt lat="48.00774" lon="-0.7795">
        <ele>106.3</ele>
        <time>2017-10-29T09:32:02Z</time>
      </trkpt>
      <trkpt lat="48.00772" lon="-0.77963">
        <ele>106.9</ele>
        <time>2017-10-29T09:32:06Z</time>
      </trkpt>
      <trkpt lat="48.00769" lon="-0.77976">
        <ele>107.4</ele>
        <time>2017-10-29T09:32:10Z</time>
      </trkpt>
      <trkpt lat="48.00767" lon="-0.77988">
        <ele>107.7</ele>
        <time>2017-10-29T09:32:14Z</time>
      </trkpt>
      <trkpt lat="48.00766" lon="-0.78">
        <ele>108</ele>
        <time>2017-10-29T09:32:18Z</time>
      </trkpt>
      <trkpt lat="48.00763" lon="-0.7801">
        <ele>108</ele>
        <time>2017-10-29T09:32:22Z</time>
      </trkpt>
      <trkpt lat="48.00762" lon="-0.78021">
        <ele>108</ele>
        <time>2017-10-29T09:32:26Z</time>
      </trkpt>
      <trkpt lat="48.0076" lon="-0.78034">
        <ele>108.1</ele>
        <time>2017-10-29T09:32:30Z</time>
      </trkpt>
      <trkpt lat="48.00758" lon="-0.78047">
        <ele>108.5</ele>
        <time>2017-10-29T09:32:34Z</time>
      </trkpt>
      <trkpt lat="48.00757" lon="-0.7806">
        <ele>108.8</ele>
        <time>2017-10-29T09:32:38Z</time>
      </trkpt>
      <trkpt lat="48.00755" lon="-0.78072">
        <ele>108.9</ele>
        <time>2017-10-29T09:32:42Z</time>
      </trkpt>
      <trkpt lat="48.00753" lon="-0.78084">
        <ele>109</ele>
        <time>2017-10-29T09:32:46Z</time>
      </trkpt>
      <trkpt lat="48.00752" lon="-0.78096">
        <ele>109</ele>
        <time>2017-10-29T09:32:50Z</time>
      </trkpt>
      <trkpt lat="48.00752" lon="-0.78113">
        <ele>109.1</ele>
        <time>2017-10-29T09:32:54Z</time>
      </trkpt>
      <trkpt lat="48.00751" lon="-0.78132">
        <ele>109.7</ele>
        <time>2017-10-29T09:32:58Z</time>
      </trkpt>
      <trkpt lat="48.00749" lon="-0.78153">
        <ele>110</ele>
        <time>2017-10-29T09:33:02Z</time>
      </trkpt>
      <trkpt lat="48.00748" lon="-0.78174">
        <ele>110</ele>
        <time>2017-10-29T09:33:06Z</time>
      </trkpt>
      <trkpt lat="48.00747" lon="-0.78195">
        <ele>110</ele>
        <time>2017-10-29T09:33:10Z</time>
      </trkpt>
      <trkpt lat="48.00746" lon="-0.78216">
        <ele>110</ele>
        <time>2017-10-29T09:33:14Z</time>
      </trkpt>
      <trkpt lat="48.00744" lon="-0.78236">
        <ele>110</ele>
        <time>2017-10-29T09:33:18Z</time>
      </trkpt>
      <trkpt lat="48.00744" lon="-0.78258">
        <ele>110</ele>
        <time>2017-10-29T09:33:22Z</time>
      </trkpt>
      <trkpt lat="48.00743" lon="-0.7828">
        <ele>110</ele>
        <time>2017-10-29T09:33:26Z</time>
      </trkpt>
      <trkpt lat="48.00744" lon="-0.78303">
        <ele>110</ele>
        <time>2017-10-29T09:33:30Z</time>
      </trkpt>
      <trkpt lat="48.00745" lon="-0.78328">
        <ele>110</ele>
        <time>2017-10-29T09:33:34Z</time>
      </trkpt>
      <trkpt lat="48.00748" lon="-0.78354">
        <ele>110</ele>
        <time>2017-10-29T09:33:38Z</time>
      </trkpt>
      <trkpt lat="48.00753" lon="-0.78379">
        <ele>110</ele>
        <time>2017-10-29T09:33:42Z</time>
      </trkpt>
      <trkpt lat="48.00756" lon="-0.78404">
        <ele>110</ele>
        <time>2017-10-29T09:33:46Z</time>
      </trkpt>
      <trkpt lat="48.00758" lon="-0.78431">
        <ele>110</ele>
        <time>2017-10-29T09:33:50Z</time>
      </trkpt>
      <trkpt lat="48.00758" lon="-0.78459">
        <ele>110</ele>
        <time>2017-10-29T09:33:54Z</time>
      </trkpt>
      <trkpt lat="48.00757" lon="-0.78488">
        <ele>110</ele>
        <time>2017-10-29T09:33:58Z</time>
      </trkpt>
      <trkpt lat="48.00758" lon="-0.78517">
        <ele>110</ele>
        <time>2017-10-29T09:34:02Z</time>
      </trkpt>
      <trkpt lat="48.00761" lon="-0.78544">
        <ele>110</ele>
        <time>2017-10-29T09:34:06Z</time>
      </trkpt>
      <trkpt lat="48.00764" lon="-0.78571">
        <ele>110</ele>
        <time>2017-10-29T09:34:10Z</time>
      </trkpt>
      <trkpt lat="48.00765" lon="-0.78599">
        <ele>109.8</ele>
        <time>2017-10-29T09:34:14Z</time>
      </trkpt>
      <trkpt lat="48.00767" lon="-0.78626">
        <ele>109.6</ele>
        <time>2017-10-29T09:34:18Z</time>
      </trkpt>
      <trkpt lat="48.00769" lon="-0.78654">
        <ele>109.7</ele>
        <time>2017-10-29T09:34:22Z</time>
      </trkpt>
      <trkpt lat="48.0077" lon="-0.78682">
        <ele>109.7</ele>
        <time>2017-10-29T09:34:26Z</time>
      </trkpt>
      <trkpt lat="48.0077" lon="-0.78709">
        <ele>109.7</ele>
        <time>2017-10-29T09:34:30Z</time>
      </trkpt>
      <trkpt lat="48.00769" lon="-0.78737">
        <ele>109.7</ele>
        <time>2017-10-29T09:34:34Z</time>
      </trkpt>
      <trkpt lat="48.00769" lon="-0.78765">
        <ele>109.7</ele>
        <time>2017-10-29T09:34:38Z</time>
      </trkpt>
      <trkpt lat="48.00767" lon="-0.78793">
        <ele>109.3</ele>
        <time>2017-10-29T09:34:42Z</time>
      </trkpt>
      <trkpt lat="48.00764" lon="-0.7882">
        <ele>109</ele>
        <time>2017-10-29T09:34:46Z</time>
      </trkpt>
      <trkpt lat="48.00759" lon="-0.78847">
        <ele>109</ele>
        <time>2017-10-29T09:34:50Z</time>
      </trkpt>
      <trkpt lat="48.00753" lon="-0.78873">
        <ele>109</ele>
        <time>2017-10-29T09:34:54Z</time>
      </trkpt>
      <trkpt lat="48.00748" lon="-0.78897">
        <ele>109</ele>
        <time>2017-10-29T09:34:58Z</time>
      </trkpt>
      <trkpt lat="48.00744" lon="-0.78917">
        <ele>109</ele>
        <time>2017-10-29T09:35:02Z</time>
      </trkpt>
      <trkpt lat="48.0074" lon="-0.78934">
        <ele>109</ele>
        <time>2017-10-29T09:35:06Z</time>
      </trkpt>
      <trkpt lat="48.00734" lon="-0.78951">
        <ele>108.9</ele>
        <time>2017-10-29T09:35:10Z</time>
      </trkpt>
      <trkpt lat="48.00725" lon="-0.78966">
        <ele>108.3</ele>
        <time>2017-10-29T09:35:14Z</time>
      </trkpt>
      <trkpt lat="48.00714" lon="-0.78979">
        <ele>108.2</ele>
        <time>2017-10-29T09:35:18Z</time>
      </trkpt>
      <trkpt lat="48.00702" lon="-0.78992">
        <ele>108.2</ele>
        <time>2017-10-29T09:35:22Z</time>
      </trkpt>
      <trkpt lat="48.00686" lon="-0.78997">
        <ele>108.1</ele>
        <time>2017-10-29T09:35:26Z</time>
      </trkpt>
      <trkpt lat="48.00667" lon="-0.78996">
        <ele>108</ele>
        <time>2017-10-29T09:35:30Z</time>
      </trkpt>
      <trkpt lat="48.00646" lon="-0.78993">
        <ele>107.2</ele>
        <time>2017-10-29T09:35:34Z</time>
      </trkpt>
      <trkpt lat="48.00625" lon="-0.78989">
        <ele>106.7</ele>
        <time>2017-10-29T09:35:38Z</time>
      </trkpt>
      <trkpt lat="48.00603" lon="-0.78982">
        <ele>106.4</ele>
        <time>2017-10-29T09:35:42Z</time>
      </trkpt>
      <trkpt lat="48.00582" lon="-0.78974">
        <ele>106</ele>
        <time>2017-10-29T09:35:46Z</time>
      </trkpt>
      <trkpt lat="48.0056" lon="-0.78965">
        <ele>105.4</ele>
        <time>2017-10-29T09:35:50Z</time>
      </trkpt>
      <trkpt lat="48.00538" lon="-0.78956">
        <ele>105.2</ele>
        <time>2017-10-29T09:35:54Z</time>
      </trkpt>
      <trkpt lat="48.00518" lon="-0.78947">
        <ele>105</ele>
        <time>2017-10-29T09:35:58Z</time>
      </trkpt>
      <trkpt lat="48.00498" lon="-0.78937">
        <ele>104.9</ele>
        <time>2017-10-29T09:36:02Z</time>
      </trkpt>
      <trkpt lat="48.0048" lon="-0.78925">
        <ele>104.3</ele>
        <time>2017-10-29T09:36:06Z</time>
      </trkpt>
      <trkpt lat="48.00462" lon="-0.78914">
        <ele>104</ele>
        <time>2017-10-29T09:36:10Z</time>
      </trkpt>
      <trkpt lat="48.00444" lon="-0.78902">
        <ele>104</ele>
        <time>2017-10-29T09:36:14Z</time>
      </trkpt>
      <trkpt lat="48.00425" lon="-0.78892">
        <ele>104</ele>
        <time>2017-10-29T09:36:18Z</time>
      </trkpt>
      <trkpt lat="48.00408" lon="-0.7888">
        <ele>104</ele>
        <time>2017-10-29T09:36:22Z</time>
      </trkpt>
      <trkpt lat="48.00392" lon="-0.78869">
        <ele>104</ele>
        <time>2017-10-29T09:36:26Z</time>
      </trkpt>
      <trkpt lat="48.00375" lon="-0.78865">
        <ele>104</ele>
        <time>2017-10-29T09:36:30Z</time>
      </trkpt>
      <trkpt lat="48.00358" lon="-0.78863">
        <ele>104</ele>
        <time>2017-10-29T09:36:34Z</time>
      </trkpt>
      <trkpt lat="48.00341" lon="-0.78857">
        <ele>104</ele>
        <time>2017-10-29T09:36:38Z</time>
      </trkpt>
      <trkpt lat="48.00325" lon="-0.78851">
        <ele>104</ele>
        <time>2017-10-29T09:36:42Z</time>
      </trkpt>
      <trkpt lat="48.00308" lon="-0.78846">
        <ele>104</ele>
        <time>2017-10-29T09:36:46Z</time>
      </trkpt>
      <trkpt lat="48.00291" lon="-0.78842">
        <ele>104</ele>
        <time>2017-10-29T09:36:50Z</time>
      </trkpt>
      <trkpt lat="48.00274" lon="-0.78839">
        <ele>104.1</ele>
        <time>2017-10-29T09:36:54Z</time>
      </trkpt>
      <trkpt lat="48.00257" lon="-0.78836">
        <ele>104.7</ele>
        <time>2017-10-29T09:36:58Z</time>
      </trkpt>
      <trkpt lat="48.00241" lon="-0.78829">
        <ele>104.6</ele>
        <time>2017-10-29T09:37:02Z</time>
      </trkpt>
      <trkpt lat="48.00228" lon="-0.78833">
        <ele>104.2</ele>
        <time>2017-10-29T09:37:06Z</time>
      </trkpt>
      <trkpt lat="48.00222" lon="-0.78849">
        <ele>104</ele>
        <time>2017-10-29T09:37:10Z</time>
      </trkpt>
      <trkpt lat="48.00217" lon="-0.78869">
        <ele>104</ele>
        <time>2017-10-29T09:37:14Z</time>
      </trkpt>
      <trkpt lat="48.0021" lon="-0.78888">
        <ele>104</ele>
        <time>2017-10-29T09:37:18Z</time>
      </trkpt>
      <trkpt lat="48.002" lon="-0.78907">
        <ele>104</ele>
        <time>2017-10-29T09:37:22Z</time>
      </trkpt>
      <trkpt lat="48.0019" lon="-0.78921">
        <ele>104</ele>
        <time>2017-10-29T09:37:26Z</time>
      </trkpt>
      <trkpt lat="48.00178" lon="-0.78936">
        <ele>104</ele>
        <time>2017-10-29T09:37:30Z</time>
      </trkpt>
      <trkpt lat="48.00164" lon="-0.7895">
        <ele>103.9</ele>
        <time>2017-10-29T09:37:34Z</time>
      </trkpt>
      <trkpt lat="48.0015" lon="-0.78966">
        <ele>103.4</ele>
        <time>2017-10-29T09:37:38Z</time>
      </trkpt>
      <trkpt lat="48.00136" lon="-0.78983">
        <ele>103</ele>
        <time>2017-10-29T09:37:42Z</time>
      </trkpt>
      <trkpt lat="48.00124" lon="-0.78996">
        <ele>103</ele>
        <time>2017-10-29T09:37:46Z</time>
      </trkpt>
      <trkpt lat="48.00109" lon="-0.79013">
        <ele>103</ele>
        <time>2017-10-29T09:37:50Z</time>
      </trkpt>
      <trkpt lat="48.00097" lon="-0.79029">
        <ele>102.5</ele>
        <time>2017-10-29T09:37:54Z</time>
      </trkpt>
      <trkpt lat="48.00085" lon="-0.79044">
        <ele>102</ele>
        <time>2017-10-29T09:37:58Z</time>
      </trkpt>
      <trkpt lat="48.00073" lon="-0.79056">
        <ele>102</ele>
        <time>2017-10-29T09:38:02Z</time>
      </trkpt>
      <trkpt lat="48.00062" lon="-0.79071">
        <ele>102</ele>
        <time>2017-10-29T09:38:06Z</time>
      </trkpt>
      <trkpt lat="48.00048" lon="-0.79085">
        <ele>102</ele>
        <time>2017-10-29T09:38:10Z</time>
      </trkpt>
      <trkpt lat="48.00035" lon="-0.79101">
        <ele>101.5</ele>
        <time>2017-10-29T09:38:14Z</time>
      </trkpt>
      <trkpt lat="48.00024" lon="-0.79114">
        <ele>101</ele>
        <time>2017-10-29T09:38:18Z</time>
      </trkpt>
      <trkpt lat="48.00014" lon="-0.79136">
        <ele>101</ele>
        <time>2017-10-29T09:38:22Z</time>
      </trkpt>
      <trkpt lat="48.00009" lon="-0.79158">
        <ele>101.2</ele>
        <time>2017-10-29T09:38:26Z</time>
      </trkpt>
      <trkpt lat="48.00005" lon="-0.79181">
        <ele>101.2</ele>
        <time>2017-10-29T09:38:30Z</time>
      </trkpt>
      <trkpt lat="48" lon="-0.79204">
        <ele>101</ele>
        <time>2017-10-29T09:38:34Z</time>
      </trkpt>
      <trkpt lat="47.99997" lon="-0.79224">
        <ele>100.8</ele>
        <time>2017-10-29T09:38:38Z</time>
      </trkpt>
      <trkpt lat="47.99992" lon="-0.79243">
        <ele>100.2</ele>
        <time>2017-10-29T09:38:42Z</time>
      </trkpt>
      <trkpt lat="47.99984" lon="-0.79258">
        <ele>100.1</ele>
        <time>2017-10-29T09:38:46Z</time>
      </trkpt>
      <trkpt lat="47.99975" lon="-0.79264">
        <ele>100</ele>
        <time>2017-10-29T09:38:50Z</time>
      </trkpt>
      <trkpt lat="47.99959" lon="-0.79267">
        <ele>99.8</ele>
        <time>2017-10-29T09:38:54Z</time>
      </trkpt>
      <trkpt lat="47.99942" lon="-0.79268">
        <ele>99.6</ele>
        <time>2017-10-29T09:38:58Z</time>
      </trkpt>
      <trkpt lat="47.99922" lon="-0.79267">
        <ele>99.1</ele>
        <time>2017-10-29T09:39:02Z</time>
      </trkpt>
      <trkpt lat="47.999" lon="-0.79265">
        <ele>98.4</ele>
        <time>2017-10-29T09:39:06Z</time>
      </trkpt>
      <trkpt lat="47.99877" lon="-0.79269">
        <ele>97.6</ele>
        <time>2017-10-29T09:39:10Z</time>
      </trkpt>
      <trkpt lat="47.99869" lon="-0.79284">
        <ele>97.3</ele>
        <time>2017-10-29T09:39:14Z</time>
      </trkpt>
      <trkpt lat="47.99861" lon="-0.79293">
        <ele>97</ele>
        <time>2017-10-29T09:39:18Z</time>
      </trkpt>
      <trkpt lat="47.99849" lon="-0.79303">
        <ele>96.5</ele>
        <time>2017-10-29T09:39:22Z</time>
      </trkpt>
      <trkpt lat="47.99837" lon="-0.79315">
        <ele>96.2</ele>
        <time>2017-10-29T09:39:26Z</time>
      </trkpt>
      <trkpt lat="47.99818" lon="-0.79331">
        <ele>94.8</ele>
        <time>2017-10-29T09:39:30Z</time>
      </trkpt>
      <trkpt lat="47.998" lon="-0.79346">
        <ele>93.9</ele>
        <time>2017-10-29T09:39:34Z</time>
      </trkpt>
      <trkpt lat="47.99783" lon="-0.7936">
        <ele>93.3</ele>
        <time>2017-10-29T09:39:38Z</time>
      </trkpt>
      <trkpt lat="47.99765" lon="-0.79378">
        <ele>92.2</ele>
        <time>2017-10-29T09:39:42Z</time>
      </trkpt>
      <trkpt lat="47.99745" lon="-0.79409">
        <ele>90.9</ele>
        <time>2017-10-29T09:39:46Z</time>
      </trkpt>
      <trkpt lat="47.99729" lon="-0.79448">
        <ele>87.9</ele>
        <time>2017-10-29T09:39:50Z</time>
      </trkpt>
      <trkpt lat="47.99717" lon="-0.79491">
        <ele>83.5</ele>
        <time>2017-10-29T09:39:54Z</time>
      </trkpt>
      <trkpt lat="47.9971" lon="-0.79516">
        <ele>80.2</ele>
        <time>2017-10-29T09:39:58Z</time>
      </trkpt>
      <trkpt lat="47.99702" lon="-0.79536">
        <ele>77.5</ele>
        <time>2017-10-29T09:40:02Z</time>
      </trkpt>
      <trkpt lat="47.99695" lon="-0.7955">
        <ele>75.6</ele>
        <time>2017-10-29T09:40:06Z</time>
      </trkpt>
      <trkpt lat="47.9969" lon="-0.79559">
        <ele>74</ele>
        <time>2017-10-29T09:40:10Z</time>
      </trkpt>
      <trkpt lat="47.99685" lon="-0.79566">
        <ele>72.4</ele>
        <time>2017-10-29T09:40:14Z</time>
      </trkpt>
      <trkpt lat="47.99678" lon="-0.79576">
        <ele>70.1</ele>
        <time>2017-10-29T09:40:18Z</time>
      </trkpt>
      <trkpt lat="47.99672" lon="-0.79584">
        <ele>68.1</ele>
        <time>2017-10-29T09:40:22Z</time>
      </trkpt>
      <trkpt lat="47.99663" lon="-0.79593">
        <ele>65.5</ele>
        <time>2017-10-29T09:40:26Z</time>
      </trkpt>
      <trkpt lat="47.99656" lon="-0.796">
        <ele>63.5</ele>
        <time>2017-10-29T09:40:30Z</time>
      </trkpt>
      <trkpt lat="47.99645" lon="-0.79604">
        <ele>61.5</ele>
        <time>2017-10-29T09:40:34Z</time>
      </trkpt>
      <trkpt lat="47.99643" lon="-0.79613">
        <ele>60.4</ele>
        <time>2017-10-29T09:40:38Z</time>
      </trkpt>
      <trkpt lat="47.99639" lon="-0.79622">
        <ele>58.7</ele>
        <time>2017-10-29T09:40:50Z</time>
      </trkpt>
      <trkpt lat="47.99643" lon="-0.79627">
        <ele>58.7</ele>
        <time>2017-10-29T09:40:54Z</time>
      </trkpt>
      <trkpt lat="47.9965" lon="-0.79636">
        <ele>58.6</ele>
        <time>2017-10-29T09:40:58Z</time>
      </trkpt>
      <trkpt lat="47.99663" lon="-0.79647">
        <ele>58.4</ele>
        <time>2017-10-29T09:41:02Z</time>
      </trkpt>
      <trkpt lat="47.99677" lon="-0.79662">
        <ele>57.5</ele>
        <time>2017-10-29T09:41:06Z</time>
      </trkpt>
      <trkpt lat="47.99696" lon="-0.7968">
        <ele>55.3</ele>
        <time>2017-10-29T09:41:10Z</time>
      </trkpt>
      <trkpt lat="47.99711" lon="-0.79686">
        <ele>55.8</ele>
        <time>2017-10-29T09:41:14Z</time>
      </trkpt>
      <trkpt lat="47.99724" lon="-0.79689">
        <ele>56.5</ele>
        <time>2017-10-29T09:41:18Z</time>
      </trkpt>
      <trkpt lat="47.99737" lon="-0.797">
        <ele>55.6</ele>
        <time>2017-10-29T09:41:22Z</time>
      </trkpt>
      <trkpt lat="47.99755" lon="-0.79715">
        <ele>54.9</ele>
        <time>2017-10-29T09:41:26Z</time>
      </trkpt>
      <trkpt lat="47.99773" lon="-0.79725">
        <ele>55.1</ele>
        <time>2017-10-29T09:41:30Z</time>
      </trkpt>
      <trkpt lat="47.99785" lon="-0.79732">
        <ele>55.6</ele>
        <time>2017-10-29T09:41:34Z</time>
      </trkpt>
      <trkpt lat="47.99795" lon="-0.79742">
        <ele>55</ele>
        <time>2017-10-29T09:41:38Z</time>
      </trkpt>
      <trkpt lat="47.99805" lon="-0.79753">
        <ele>53.8</ele>
        <time>2017-10-29T09:41:42Z</time>
      </trkpt>
      <trkpt lat="47.99819" lon="-0.79763">
        <ele>54.4</ele>
        <time>2017-10-29T09:41:46Z</time>
      </trkpt>
      <trkpt lat="47.99832" lon="-0.79772">
        <ele>54</ele>
        <time>2017-10-29T09:41:50Z</time>
      </trkpt>
      <trkpt lat="47.99844" lon="-0.79776">
        <ele>54.2</ele>
        <time>2017-10-29T09:41:54Z</time>
      </trkpt>
      <trkpt lat="47.99859" lon="-0.79781">
        <ele>54.5</ele>
        <time>2017-10-29T09:41:58Z</time>
      </trkpt>
      <trkpt lat="47.99869" lon="-0.79784">
        <ele>54.8</ele>
        <time>2017-10-29T09:42:02Z</time>
      </trkpt>
      <trkpt lat="47.99882" lon="-0.79789">
        <ele>54.6</ele>
        <time>2017-10-29T09:42:06Z</time>
      </trkpt>
      <trkpt lat="47.99896" lon="-0.79796">
        <ele>54.1</ele>
        <time>2017-10-29T09:42:10Z</time>
      </trkpt>
      <trkpt lat="47.99909" lon="-0.7981">
        <ele>52.6</ele>
        <time>2017-10-29T09:42:14Z</time>
      </trkpt>
      <trkpt lat="47.99925" lon="-0.7983">
        <ele>52.5</ele>
        <time>2017-10-29T09:42:18Z</time>
      </trkpt>
      <trkpt lat="47.9994" lon="-0.79855">
        <ele>52.2</ele>
        <time>2017-10-29T09:42:22Z</time>
      </trkpt>
      <trkpt lat="47.99959" lon="-0.79874">
        <ele>53.3</ele>
        <time>2017-10-29T09:42:26Z</time>
      </trkpt>
      <trkpt lat="47.99978" lon="-0.79883">
        <ele>54.6</ele>
        <time>2017-10-29T09:42:30Z</time>
      </trkpt>
      <trkpt lat="47.99998" lon="-0.79894">
        <ele>56.2</ele>
        <time>2017-10-29T09:42:34Z</time>
      </trkpt>
      <trkpt lat="48.00016" lon="-0.79904">
        <ele>56.9</ele>
        <time>2017-10-29T09:42:38Z</time>
      </trkpt>
      <trkpt lat="48.00034" lon="-0.79913">
        <ele>56.9</ele>
        <time>2017-10-29T09:42:42Z</time>
      </trkpt>
      <trkpt lat="48.0005" lon="-0.79923">
        <ele>57</ele>
        <time>2017-10-29T09:42:46Z</time>
      </trkpt>
      <trkpt lat="48.00066" lon="-0.7993">
        <ele>57.1</ele>
        <time>2017-10-29T09:42:50Z</time>
      </trkpt>
      <trkpt lat="48.00081" lon="-0.79939">
        <ele>56.6</ele>
        <time>2017-10-29T09:42:54Z</time>
      </trkpt>
      <trkpt lat="48.00097" lon="-0.79947">
        <ele>57.2</ele>
        <time>2017-10-29T09:42:58Z</time>
      </trkpt>
      <trkpt lat="48.00109" lon="-0.79954">
        <ele>57.8</ele>
        <time>2017-10-29T09:43:02Z</time>
      </trkpt>
      <trkpt lat="48.0012" lon="-0.79961">
        <ele>58.4</ele>
        <time>2017-10-29T09:43:06Z</time>
      </trkpt>
      <trkpt lat="48.0013" lon="-0.79965">
        <ele>59.2</ele>
        <time>2017-10-29T09:43:10Z</time>
      </trkpt>
      <trkpt lat="48.00141" lon="-0.7997">
        <ele>59.7</ele>
        <time>2017-10-29T09:43:14Z</time>
      </trkpt>
      <trkpt lat="48.00152" lon="-0.79973">
        <ele>60.8</ele>
        <time>2017-10-29T09:43:18Z</time>
      </trkpt>
      <trkpt lat="48.00163" lon="-0.79976">
        <ele>62</ele>
        <time>2017-10-29T09:43:22Z</time>
      </trkpt>
      <trkpt lat="48.00174" lon="-0.79979">
        <ele>62.6</ele>
        <time>2017-10-29T09:43:26Z</time>
      </trkpt>
      <trkpt lat="48.00184" lon="-0.79985">
        <ele>62.7</ele>
        <time>2017-10-29T09:43:30Z</time>
      </trkpt>
      <trkpt lat="48.00196" lon="-0.79993">
        <ele>62.4</ele>
        <time>2017-10-29T09:43:34Z</time>
      </trkpt>
      <trkpt lat="48.00207" lon="-0.80001">
        <ele>62.2</ele>
        <time>2017-10-29T09:43:38Z</time>
      </trkpt>
      <trkpt lat="48.00215" lon="-0.80011">
        <ele>62.5</ele>
        <time>2017-10-29T09:43:42Z</time>
      </trkpt>
      <trkpt lat="48.00224" lon="-0.80021">
        <ele>62.7</ele>
        <time>2017-10-29T09:43:46Z</time>
      </trkpt>
      <trkpt lat="48.00232" lon="-0.8003">
        <ele>62.5</ele>
        <time>2017-10-29T09:43:50Z</time>
      </trkpt>
      <trkpt lat="48.0024" lon="-0.80041">
        <ele>61.8</ele>
        <time>2017-10-29T09:43:54Z</time>
      </trkpt>
      <trkpt lat="48.00251" lon="-0.80054">
        <ele>61.2</ele>
        <time>2017-10-29T09:43:58Z</time>
      </trkpt>
      <trkpt lat="48.00263" lon="-0.80065">
        <ele>61.6</ele>
        <time>2017-10-29T09:44:02Z</time>
      </trkpt>
      <trkpt lat="48.00276" lon="-0.80079">
        <ele>62.1</ele>
        <time>2017-10-29T09:44:06Z</time>
      </trkpt>
      <trkpt lat="48.00286" lon="-0.8009">
        <ele>62.1</ele>
        <time>2017-10-29T09:44:10Z</time>
      </trkpt>
      <trkpt lat="48.00294" lon="-0.801">
        <ele>61.9</ele>
        <time>2017-10-29T09:44:14Z</time>
      </trkpt>
      <trkpt lat="48.00304" lon="-0.80109">
        <ele>62</ele>
        <time>2017-10-29T09:44:18Z</time>
      </trkpt>
      <trkpt lat="48.00313" lon="-0.80121">
        <ele>62.1</ele>
        <time>2017-10-29T09:44:22Z</time>
      </trkpt>
      <trkpt lat="48.00324" lon="-0.8013">
        <ele>62.6</ele>
        <time>2017-10-29T09:44:26Z</time>
      </trkpt>
      <trkpt lat="48.00333" lon="-0.80137">
        <ele>63.1</ele>
        <time>2017-10-29T09:44:30Z</time>
      </trkpt>
      <trkpt lat="48.00342" lon="-0.80141">
        <ele>63.8</ele>
        <time>2017-10-29T09:44:34Z</time>
      </trkpt>
      <trkpt lat="48.0035" lon="-0.80141">
        <ele>64.6</ele>
        <time>2017-10-29T09:44:38Z</time>
      </trkpt>
      <trkpt lat="48.00357" lon="-0.8014">
        <ele>65.5</ele>
        <time>2017-10-29T09:44:42Z</time>
      </trkpt>
      <trkpt lat="48.00365" lon="-0.80138">
        <ele>66.2</ele>
        <time>2017-10-29T09:44:46Z</time>
      </trkpt>
      <trkpt lat="48.00374" lon="-0.80139">
        <ele>66.5</ele>
        <time>2017-10-29T09:44:50Z</time>
      </trkpt>
      <trkpt lat="48.00386" lon="-0.80141">
        <ele>66.7</ele>
        <time>2017-10-29T09:44:54Z</time>
      </trkpt>
      <trkpt lat="48.00397" lon="-0.80143">
        <ele>67.3</ele>
        <time>2017-10-29T09:44:58Z</time>
      </trkpt>
      <trkpt lat="48.00407" lon="-0.80146">
        <ele>67.8</ele>
        <time>2017-10-29T09:45:02Z</time>
      </trkpt>
      <trkpt lat="48.0042" lon="-0.8015">
        <ele>68.4</ele>
        <time>2017-10-29T09:45:06Z</time>
      </trkpt>
      <trkpt lat="48.00435" lon="-0.80153">
        <ele>69</ele>
        <time>2017-10-29T09:45:10Z</time>
      </trkpt>
      <trkpt lat="48.00444" lon="-0.80152">
        <ele>69.5</ele>
        <time>2017-10-29T09:45:14Z</time>
      </trkpt>
      <trkpt lat="48.00456" lon="-0.80157">
        <ele>69.7</ele>
        <time>2017-10-29T09:45:18Z</time>
      </trkpt>
      <trkpt lat="48.00463" lon="-0.80157">
        <ele>69.9</ele>
        <time>2017-10-29T09:45:22Z</time>
      </trkpt>
      <trkpt lat="48.00469" lon="-0.80156">
        <ele>70.3</ele>
        <time>2017-10-29T09:45:26Z</time>
      </trkpt>
      <trkpt lat="48.00477" lon="-0.80155">
        <ele>70.8</ele>
        <time>2017-10-29T09:45:30Z</time>
      </trkpt>
      <trkpt lat="48.00486" lon="-0.80153">
        <ele>71.2</ele>
        <time>2017-10-29T09:45:34Z</time>
      </trkpt>
      <trkpt lat="48.00496" lon="-0.80151">
        <ele>71.6</ele>
        <time>2017-10-29T09:45:38Z</time>
      </trkpt>
      <trkpt lat="48.00509" lon="-0.80151">
        <ele>72.4</ele>
        <time>2017-10-29T09:45:42Z</time>
      </trkpt>
      <trkpt lat="48.00519" lon="-0.80152">
        <ele>73.2</ele>
        <time>2017-10-29T09:45:46Z</time>
      </trkpt>
      <trkpt lat="48.00527" lon="-0.80157">
        <ele>73.9</ele>
        <time>2017-10-29T09:45:50Z</time>
      </trkpt>
      <trkpt lat="48.00535" lon="-0.80167">
        <ele>75</ele>
        <time>2017-10-29T09:45:54Z</time>
      </trkpt>
      <trkpt lat="48.00541" lon="-0.80179">
        <ele>75.6</ele>
        <time>2017-10-29T09:45:58Z</time>
      </trkpt>
      <trkpt lat="48.00549" lon="-0.80193">
        <ele>76.8</ele>
        <time>2017-10-29T09:46:02Z</time>
      </trkpt>
      <trkpt lat="48.00554" lon="-0.80206">
        <ele>77.8</ele>
        <time>2017-10-29T09:46:06Z</time>
      </trkpt>
      <trkpt lat="48.00559" lon="-0.80221">
        <ele>78.6</ele>
        <time>2017-10-29T09:46:10Z</time>
      </trkpt>
      <trkpt lat="48.00566" lon="-0.80236">
        <ele>79.3</ele>
        <time>2017-10-29T09:46:14Z</time>
      </trkpt>
      <trkpt lat="48.00574" lon="-0.80251">
        <ele>79.5</ele>
        <time>2017-10-29T09:46:18Z</time>
      </trkpt>
      <trkpt lat="48.00582" lon="-0.80265">
        <ele>79.7</ele>
        <time>2017-10-29T09:46:22Z</time>
      </trkpt>
      <trkpt lat="48.0059" lon="-0.80274">
        <ele>80.3</ele>
        <time>2017-10-29T09:46:26Z</time>
      </trkpt>
      <trkpt lat="48.00595" lon="-0.80271">
        <ele>81.1</ele>
        <time>2017-10-29T09:46:30Z</time>
      </trkpt>
      <trkpt lat="48.00597" lon="-0.80276">
        <ele>81.1</ele>
        <time>2017-10-29T09:47:42Z</time>
      </trkpt>
      <trkpt lat="48.00601" lon="-0.80281">
        <ele>81.2</ele>
        <time>2017-10-29T09:47:46Z</time>
      </trkpt>
      <trkpt lat="48.00604" lon="-0.80294">
        <ele>80.3</ele>
        <time>2017-10-29T09:47:50Z</time>
      </trkpt>
      <trkpt lat="48.00608" lon="-0.80316">
        <ele>78.5</ele>
        <time>2017-10-29T09:47:54Z</time>
      </trkpt>
      <trkpt lat="48.00613" lon="-0.80348">
        <ele>76.7</ele>
        <time>2017-10-29T09:47:58Z</time>
      </trkpt>
      <trkpt lat="48.00619" lon="-0.80388">
        <ele>74.9</ele>
        <time>2017-10-29T09:48:02Z</time>
      </trkpt>
      <trkpt lat="48.00626" lon="-0.80432">
        <ele>72.8</ele>
        <time>2017-10-29T09:48:06Z</time>
      </trkpt>
      <trkpt lat="48.00631" lon="-0.80473">
        <ele>70.7</ele>
        <time>2017-10-29T09:48:10Z</time>
      </trkpt>
      <trkpt lat="48.00635" lon="-0.80519">
        <ele>68.5</ele>
        <time>2017-10-29T09:48:14Z</time>
      </trkpt>
      <trkpt lat="48.00638" lon="-0.8057">
        <ele>65.9</ele>
        <time>2017-10-29T09:48:18Z</time>
      </trkpt>
      <trkpt lat="48.0064" lon="-0.80629">
        <ele>63.4</ele>
        <time>2017-10-29T09:48:22Z</time>
      </trkpt>
      <trkpt lat="48.00626" lon="-0.8069">
        <ele>59.9</ele>
        <time>2017-10-29T09:48:26Z</time>
      </trkpt>
      <trkpt lat="48.00609" lon="-0.80753">
        <ele>55.3</ele>
        <time>2017-10-29T09:48:30Z</time>
      </trkpt>
      <trkpt lat="48.00595" lon="-0.80812">
        <ele>55.3</ele>
        <time>2017-10-29T09:48:34Z</time>
      </trkpt>
      <trkpt lat="48.00598" lon="-0.8087">
        <ele>55</ele>
        <time>2017-10-29T09:48:38Z</time>
      </trkpt>
      <trkpt lat="48.00604" lon="-0.80919">
        <ele>55.1</ele>
        <time>2017-10-29T09:48:42Z</time>
      </trkpt>
      <trkpt lat="48.00609" lon="-0.8096">
        <ele>56.5</ele>
        <time>2017-10-29T09:48:46Z</time>
      </trkpt>
      <trkpt lat="48.00614" lon="-0.80995">
        <ele>57.9</ele>
        <time>2017-10-29T09:48:50Z</time>
      </trkpt>
      <trkpt lat="48.00618" lon="-0.81027">
        <ele>59.2</ele>
        <time>2017-10-29T09:48:54Z</time>
      </trkpt>
      <trkpt lat="48.00627" lon="-0.81054">
        <ele>60.5</ele>
        <time>2017-10-29T09:48:58Z</time>
      </trkpt>
      <trkpt lat="48.00643" lon="-0.81061">
        <ele>61.3</ele>
        <time>2017-10-29T09:49:02Z</time>
      </trkpt>
      <trkpt lat="48.00658" lon="-0.8106">
        <ele>61.8</ele>
        <time>2017-10-29T09:49:06Z</time>
      </trkpt>
      <trkpt lat="48.00671" lon="-0.81064">
        <ele>62.5</ele>
        <time>2017-10-29T09:49:10Z</time>
      </trkpt>
      <trkpt lat="48.00683" lon="-0.81068">
        <ele>63.4</ele>
        <time>2017-10-29T09:49:14Z</time>
      </trkpt>
      <trkpt lat="48.00689" lon="-0.8108">
        <ele>63.8</ele>
        <time>2017-10-29T09:49:18Z</time>
      </trkpt>
      <trkpt lat="48.00694" lon="-0.81094">
        <ele>64.4</ele>
        <time>2017-10-29T09:49:22Z</time>
      </trkpt>
      <trkpt lat="48.00702" lon="-0.81096">
        <ele>64.3</ele>
        <time>2017-10-29T09:49:26Z</time>
      </trkpt>
      <trkpt lat="48.0071" lon="-0.81094">
        <ele>64.2</ele>
        <time>2017-10-29T09:49:30Z</time>
      </trkpt>
      <trkpt lat="48.0072" lon="-0.81089">
        <ele>64</ele>
        <time>2017-10-29T09:49:34Z</time>
      </trkpt>
      <trkpt lat="48.00731" lon="-0.81084">
        <ele>64</ele>
        <time>2017-10-29T09:49:38Z</time>
      </trkpt>
      <trkpt lat="48.00743" lon="-0.81078">
        <ele>64</ele>
        <time>2017-10-29T09:49:42Z</time>
      </trkpt>
      <trkpt lat="48.00754" lon="-0.81073">
        <ele>64.1</ele>
        <time>2017-10-29T09:49:46Z</time>
      </trkpt>
      <trkpt lat="48.00768" lon="-0.81068">
        <ele>64.3</ele>
        <time>2017-10-29T09:49:50Z</time>
      </trkpt>
      <trkpt lat="48.00783" lon="-0.81062">
        <ele>64.6</ele>
        <time>2017-10-29T09:49:54Z</time>
      </trkpt>
      <trkpt lat="48.00798" lon="-0.81055">
        <ele>64.3</ele>
        <time>2017-10-29T09:49:58Z</time>
      </trkpt>
      <trkpt lat="48.00813" lon="-0.81047">
        <ele>64.2</ele>
        <time>2017-10-29T09:50:02Z</time>
      </trkpt>
      <trkpt lat="48.00828" lon="-0.8104">
        <ele>64.1</ele>
        <time>2017-10-29T09:50:06Z</time>
      </trkpt>
      <trkpt lat="48.00844" lon="-0.81034">
        <ele>64.1</ele>
        <time>2017-10-29T09:50:10Z</time>
      </trkpt>
      <trkpt lat="48.00859" lon="-0.81028">
        <ele>64</ele>
        <time>2017-10-29T09:50:14Z</time>
      </trkpt>
      <trkpt lat="48.00875" lon="-0.81021">
        <ele>64.3</ele>
        <time>2017-10-29T09:50:18Z</time>
      </trkpt>
      <trkpt lat="48.00892" lon="-0.81013">
        <ele>64.6</ele>
        <time>2017-10-29T09:50:22Z</time>
      </trkpt>
      <trkpt lat="48.00907" lon="-0.81006">
        <ele>64.9</ele>
        <time>2017-10-29T09:50:26Z</time>
      </trkpt>
      <trkpt lat="48.00922" lon="-0.81">
        <ele>65.2</ele>
        <time>2017-10-29T09:50:30Z</time>
      </trkpt>
      <trkpt lat="48.00939" lon="-0.80995">
        <ele>65.6</ele>
        <time>2017-10-29T09:50:34Z</time>
      </trkpt>
      <trkpt lat="48.00954" lon="-0.80992">
        <ele>66</ele>
        <time>2017-10-29T09:50:38Z</time>
      </trkpt>
      <trkpt lat="48.00972" lon="-0.80989">
        <ele>66.2</ele>
        <time>2017-10-29T09:50:42Z</time>
      </trkpt>
      <trkpt lat="48.00987" lon="-0.80989">
        <ele>68</ele>
        <time>2017-10-29T09:50:46Z</time>
      </trkpt>
      <trkpt lat="48.01001" lon="-0.80986">
        <ele>69.6</ele>
        <time>2017-10-29T09:50:50Z</time>
      </trkpt>
      <trkpt lat="48.01019" lon="-0.80986">
        <ele>71.2</ele>
        <time>2017-10-29T09:50:54Z</time>
      </trkpt>
      <trkpt lat="48.01035" lon="-0.80986">
        <ele>72.2</ele>
        <time>2017-10-29T09:50:58Z</time>
      </trkpt>
      <trkpt lat="48.01051" lon="-0.80985">
        <ele>72.7</ele>
        <time>2017-10-29T09:51:02Z</time>
      </trkpt>
      <trkpt lat="48.01062" lon="-0.80985">
        <ele>72.3</ele>
        <time>2017-10-29T09:51:06Z</time>
      </trkpt>
      <trkpt lat="48.0107" lon="-0.80986">
        <ele>71.8</ele>
        <time>2017-10-29T09:51:10Z</time>
      </trkpt>
      <trkpt lat="48.01087" lon="-0.80992">
        <ele>70.9</ele>
        <time>2017-10-29T09:51:14Z</time>
      </trkpt>
      <trkpt lat="48.01098" lon="-0.80995">
        <ele>69.6</ele>
        <time>2017-10-29T09:51:18Z</time>
      </trkpt>
      <trkpt lat="48.01113" lon="-0.81003">
        <ele>68.1</ele>
        <time>2017-10-29T09:51:22Z</time>
      </trkpt>
      <trkpt lat="48.01126" lon="-0.8101">
        <ele>66.2</ele>
        <time>2017-10-29T09:51:30Z</time>
      </trkpt>
      <trkpt lat="48.01133" lon="-0.81019">
        <ele>65.5</ele>
        <time>2017-10-29T09:51:34Z</time>
      </trkpt>
      <trkpt lat="48.01146" lon="-0.81028">
        <ele>63.3</ele>
        <time>2017-10-29T09:51:38Z</time>
      </trkpt>
      <trkpt lat="48.01153" lon="-0.81024">
        <ele>61.2</ele>
        <time>2017-10-29T09:51:42Z</time>
      </trkpt>
      <trkpt lat="48.0116" lon="-0.8101">
        <ele>58.3</ele>
        <time>2017-10-29T09:51:46Z</time>
      </trkpt>
      <trkpt lat="48.01166" lon="-0.81">
        <ele>56.1</ele>
        <time>2017-10-29T09:51:50Z</time>
      </trkpt>
      <trkpt lat="48.01176" lon="-0.80989">
        <ele>54.9</ele>
        <time>2017-10-29T09:51:54Z</time>
      </trkpt>
      <trkpt lat="48.01194" lon="-0.80972">
        <ele>54</ele>
        <time>2017-10-29T09:51:58Z</time>
      </trkpt>
      <trkpt lat="48.01221" lon="-0.80958">
        <ele>56</ele>
        <time>2017-10-29T09:52:02Z</time>
      </trkpt>
      <trkpt lat="48.01242" lon="-0.80968">
        <ele>57.3</ele>
        <time>2017-10-29T09:52:06Z</time>
      </trkpt>
      <trkpt lat="48.01258" lon="-0.80986">
        <ele>58.6</ele>
        <time>2017-10-29T09:52:10Z</time>
      </trkpt>
      <trkpt lat="48.01275" lon="-0.81003">
        <ele>58.6</ele>
        <time>2017-10-29T09:52:14Z</time>
      </trkpt>
      <trkpt lat="48.01296" lon="-0.81019">
        <ele>60.2</ele>
        <time>2017-10-29T09:52:18Z</time>
      </trkpt>
      <trkpt lat="48.01315" lon="-0.81035">
        <ele>60.4</ele>
        <time>2017-10-29T09:52:22Z</time>
      </trkpt>
      <trkpt lat="48.01332" lon="-0.81046">
        <ele>60.9</ele>
        <time>2017-10-29T09:52:26Z</time>
      </trkpt>
      <trkpt lat="48.01349" lon="-0.81056">
        <ele>61.2</ele>
        <time>2017-10-29T09:52:30Z</time>
      </trkpt>
      <trkpt lat="48.01365" lon="-0.8107">
        <ele>60.8</ele>
        <time>2017-10-29T09:52:34Z</time>
      </trkpt>
      <trkpt lat="48.01379" lon="-0.81079">
        <ele>61.8</ele>
        <time>2017-10-29T09:52:38Z</time>
      </trkpt>
      <trkpt lat="48.01394" lon="-0.8109">
        <ele>62.9</ele>
        <time>2017-10-29T09:52:42Z</time>
      </trkpt>
      <trkpt lat="48.01408" lon="-0.811">
        <ele>63</ele>
        <time>2017-10-29T09:52:46Z</time>
      </trkpt>
      <trkpt lat="48.01425" lon="-0.81106">
        <ele>63</ele>
        <time>2017-10-29T09:52:50Z</time>
      </trkpt>
      <trkpt lat="48.01439" lon="-0.81111">
        <ele>62.7</ele>
        <time>2017-10-29T09:52:54Z</time>
      </trkpt>
      <trkpt lat="48.01454" lon="-0.81112">
        <ele>62.9</ele>
        <time>2017-10-29T09:52:58Z</time>
      </trkpt>
      <trkpt lat="48.01467" lon="-0.81113">
        <ele>62.6</ele>
        <time>2017-10-29T09:53:02Z</time>
      </trkpt>
      <trkpt lat="48.0148" lon="-0.81111">
        <ele>62.2</ele>
        <time>2017-10-29T09:53:06Z</time>
      </trkpt>
      <trkpt lat="48.015" lon="-0.81104">
        <ele>61.3</ele>
        <time>2017-10-29T09:53:10Z</time>
      </trkpt>
      <trkpt lat="48.01515" lon="-0.81099">
        <ele>61.7</ele>
        <time>2017-10-29T09:53:14Z</time>
      </trkpt>
      <trkpt lat="48.01531" lon="-0.811">
        <ele>61.2</ele>
        <time>2017-10-29T09:53:18Z</time>
      </trkpt>
      <trkpt lat="48.01547" lon="-0.81103">
        <ele>60.6</ele>
        <time>2017-10-29T09:53:22Z</time>
      </trkpt>
      <trkpt lat="48.01565" lon="-0.81108">
        <ele>60.2</ele>
        <time>2017-10-29T09:53:26Z</time>
      </trkpt>
      <trkpt lat="48.01583" lon="-0.81107">
        <ele>60.3</ele>
        <time>2017-10-29T09:53:30Z</time>
      </trkpt>
      <trkpt lat="48.01603" lon="-0.81103">
        <ele>61.1</ele>
        <time>2017-10-29T09:53:34Z</time>
      </trkpt>
      <trkpt lat="48.01619" lon="-0.81099">
        <ele>61.6</ele>
        <time>2017-10-29T09:53:38Z</time>
      </trkpt>
      <trkpt lat="48.01632" lon="-0.81094">
        <ele>62.1</ele>
        <time>2017-10-29T09:53:42Z</time>
      </trkpt>
      <trkpt lat="48.0165" lon="-0.81087">
        <ele>62.8</ele>
        <time>2017-10-29T09:53:46Z</time>
      </trkpt>
      <trkpt lat="48.01668" lon="-0.8109">
        <ele>62.9</ele>
        <time>2017-10-29T09:53:50Z</time>
      </trkpt>
      <trkpt lat="48.01686" lon="-0.81094">
        <ele>64</ele>
        <time>2017-10-29T09:53:54Z</time>
      </trkpt>
      <trkpt lat="48.01707" lon="-0.81097">
        <ele>65.2</ele>
        <time>2017-10-29T09:53:58Z</time>
      </trkpt>
      <trkpt lat="48.01728" lon="-0.81097">
        <ele>66.2</ele>
        <time>2017-10-29T09:54:02Z</time>
      </trkpt>
      <trkpt lat="48.01746" lon="-0.811">
        <ele>66.7</ele>
        <time>2017-10-29T09:54:06Z</time>
      </trkpt>
      <trkpt lat="48.01761" lon="-0.81102">
        <ele>67.4</ele>
        <time>2017-10-29T09:54:10Z</time>
      </trkpt>
      <trkpt lat="48.01773" lon="-0.81108">
        <ele>67.9</ele>
        <time>2017-10-29T09:54:14Z</time>
      </trkpt>
      <trkpt lat="48.0179" lon="-0.8111">
        <ele>68.5</ele>
        <time>2017-10-29T09:54:18Z</time>
      </trkpt>
      <trkpt lat="48.01805" lon="-0.81105">
        <ele>69.4</ele>
        <time>2017-10-29T09:54:22Z</time>
      </trkpt>
      <trkpt lat="48.0182" lon="-0.81095">
        <ele>69.5</ele>
        <time>2017-10-29T09:54:26Z</time>
      </trkpt>
      <trkpt lat="48.01837" lon="-0.81082">
        <ele>68.7</ele>
        <time>2017-10-29T09:54:30Z</time>
      </trkpt>
      <trkpt lat="48.01854" lon="-0.81071">
        <ele>67.2</ele>
        <time>2017-10-29T09:54:34Z</time>
      </trkpt>
      <trkpt lat="48.01869" lon="-0.81072">
        <ele>66.8</ele>
        <time>2017-10-29T09:54:38Z</time>
      </trkpt>
      <trkpt lat="48.01879" lon="-0.8109">
        <ele>66.3</ele>
        <time>2017-10-29T09:54:42Z</time>
      </trkpt>
      <trkpt lat="48.01888" lon="-0.81105">
        <ele>65.4</ele>
        <time>2017-10-29T09:54:46Z</time>
      </trkpt>
      <trkpt lat="48.01901" lon="-0.81119">
        <ele>65.2</ele>
        <time>2017-10-29T09:54:50Z</time>
      </trkpt>
      <trkpt lat="48.01917" lon="-0.8113">
        <ele>65</ele>
        <time>2017-10-29T09:54:54Z</time>
      </trkpt>
      <trkpt lat="48.01932" lon="-0.81135">
        <ele>64.9</ele>
        <time>2017-10-29T09:54:58Z</time>
      </trkpt>
      <trkpt lat="48.01948" lon="-0.8114">
        <ele>64.9</ele>
        <time>2017-10-29T09:55:02Z</time>
      </trkpt>
      <trkpt lat="48.01965" lon="-0.81143">
        <ele>64.6</ele>
        <time>2017-10-29T09:55:06Z</time>
      </trkpt>
      <trkpt lat="48.0198" lon="-0.81144">
        <ele>64.2</ele>
        <time>2017-10-29T09:55:10Z</time>
      </trkpt>
      <trkpt lat="48.01996" lon="-0.81147">
        <ele>63.5</ele>
        <time>2017-10-29T09:55:14Z</time>
      </trkpt>
      <trkpt lat="48.0201" lon="-0.81149">
        <ele>63.2</ele>
        <time>2017-10-29T09:55:18Z</time>
      </trkpt>
      <trkpt lat="48.02021" lon="-0.8115">
        <ele>62.9</ele>
        <time>2017-10-29T09:55:22Z</time>
      </trkpt>
      <trkpt lat="48.02032" lon="-0.8115">
        <ele>62.6</ele>
        <time>2017-10-29T09:55:26Z</time>
      </trkpt>
      <trkpt lat="48.02042" lon="-0.8115">
        <ele>62.3</ele>
        <time>2017-10-29T09:55:30Z</time>
      </trkpt>
      <trkpt lat="48.02052" lon="-0.81149">
        <ele>62</ele>
        <time>2017-10-29T09:55:34Z</time>
      </trkpt>
      <trkpt lat="48.02066" lon="-0.81148">
        <ele>61.7</ele>
        <time>2017-10-29T09:55:38Z</time>
      </trkpt>
      <trkpt lat="48.02081" lon="-0.81144">
        <ele>61.5</ele>
        <time>2017-10-29T09:55:42Z</time>
      </trkpt>
      <trkpt lat="48.02093" lon="-0.8114">
        <ele>61.1</ele>
        <time>2017-10-29T09:55:46Z</time>
      </trkpt>
      <trkpt lat="48.02103" lon="-0.81137">
        <ele>60.8</ele>
        <time>2017-10-29T09:55:50Z</time>
      </trkpt>
      <trkpt lat="48.02113" lon="-0.81135">
        <ele>60.6</ele>
        <time>2017-10-29T09:55:54Z</time>
      </trkpt>
      <trkpt lat="48.02122" lon="-0.81133">
        <ele>60.7</ele>
        <time>2017-10-29T09:55:58Z</time>
      </trkpt>
      <trkpt lat="48.02129" lon="-0.81131">
        <ele>61</ele>
        <time>2017-10-29T09:56:02Z</time>
      </trkpt>
      <trkpt lat="48.02138" lon="-0.81129">
        <ele>61.1</ele>
        <time>2017-10-29T09:56:06Z</time>
      </trkpt>
      <trkpt lat="48.02148" lon="-0.81127">
        <ele>61.7</ele>
        <time>2017-10-29T09:56:10Z</time>
      </trkpt>
      <trkpt lat="48.02158" lon="-0.81123">
        <ele>62.3</ele>
        <time>2017-10-29T09:56:14Z</time>
      </trkpt>
      <trkpt lat="48.02171" lon="-0.8111">
        <ele>63.9</ele>
        <time>2017-10-29T09:56:18Z</time>
      </trkpt>
      <trkpt lat="48.02181" lon="-0.81099">
        <ele>65.1</ele>
        <time>2017-10-29T09:56:22Z</time>
      </trkpt>
      <trkpt lat="48.02195" lon="-0.81084">
        <ele>65.9</ele>
        <time>2017-10-29T09:56:26Z</time>
      </trkpt>
      <trkpt lat="48.02208" lon="-0.8107">
        <ele>65.9</ele>
        <time>2017-10-29T09:56:30Z</time>
      </trkpt>
      <trkpt lat="48.02219" lon="-0.81058">
        <ele>65.4</ele>
        <time>2017-10-29T09:56:34Z</time>
      </trkpt>
      <trkpt lat="48.02228" lon="-0.81047">
        <ele>65.8</ele>
        <time>2017-10-29T09:56:38Z</time>
      </trkpt>
      <trkpt lat="48.02234" lon="-0.8104">
        <ele>66.2</ele>
        <time>2017-10-29T09:56:42Z</time>
      </trkpt>
      <trkpt lat="48.02243" lon="-0.81031">
        <ele>66.6</ele>
        <time>2017-10-29T09:56:46Z</time>
      </trkpt>
      <trkpt lat="48.02251" lon="-0.81022">
        <ele>66.6</ele>
        <time>2017-10-29T09:56:50Z</time>
      </trkpt>
      <trkpt lat="48.0226" lon="-0.81012">
        <ele>66.7</ele>
        <time>2017-10-29T09:56:54Z</time>
      </trkpt>
      <trkpt lat="48.0227" lon="-0.81004">
        <ele>65.9</ele>
        <time>2017-10-29T09:56:58Z</time>
      </trkpt>
      <trkpt lat="48.0228" lon="-0.80997">
        <ele>65</ele>
        <time>2017-10-29T09:57:02Z</time>
      </trkpt>
      <trkpt lat="48.0229" lon="-0.80993">
        <ele>64.2</ele>
        <time>2017-10-29T09:57:06Z</time>
      </trkpt>
      <trkpt lat="48.02301" lon="-0.80986">
        <ele>63.5</ele>
        <time>2017-10-29T09:57:10Z</time>
      </trkpt>
      <trkpt lat="48.02315" lon="-0.80978">
        <ele>63.2</ele>
        <time>2017-10-29T09:57:14Z</time>
      </trkpt>
      <trkpt lat="48.02325" lon="-0.80971">
        <ele>63.1</ele>
        <time>2017-10-29T09:57:18Z</time>
      </trkpt>
      <trkpt lat="48.02335" lon="-0.80965">
        <ele>62.8</ele>
        <time>2017-10-29T09:57:22Z</time>
      </trkpt>
      <trkpt lat="48.02346" lon="-0.80958">
        <ele>62.9</ele>
        <time>2017-10-29T09:57:26Z</time>
      </trkpt>
      <trkpt lat="48.0236" lon="-0.80951">
        <ele>62.4</ele>
        <time>2017-10-29T09:57:30Z</time>
      </trkpt>
      <trkpt lat="48.02372" lon="-0.80947">
        <ele>62.7</ele>
        <time>2017-10-29T09:57:34Z</time>
      </trkpt>
      <trkpt lat="48.02383" lon="-0.80945">
        <ele>62.9</ele>
        <time>2017-10-29T09:57:38Z</time>
      </trkpt>
      <trkpt lat="48.0239" lon="-0.80943">
        <ele>63.2</ele>
        <time>2017-10-29T09:57:42Z</time>
      </trkpt>
      <trkpt lat="48.024" lon="-0.80942">
        <ele>63.7</ele>
        <time>2017-10-29T09:57:46Z</time>
      </trkpt>
      <trkpt lat="48.0241" lon="-0.8094">
        <ele>64.3</ele>
        <time>2017-10-29T09:57:50Z</time>
      </trkpt>
      <trkpt lat="48.02418" lon="-0.80938">
        <ele>64.9</ele>
        <time>2017-10-29T09:57:54Z</time>
      </trkpt>
      <trkpt lat="48.02426" lon="-0.80937">
        <ele>65</ele>
        <time>2017-10-29T09:57:58Z</time>
      </trkpt>
      <trkpt lat="48.02435" lon="-0.80938">
        <ele>64.9</ele>
        <time>2017-10-29T09:58:02Z</time>
      </trkpt>
      <trkpt lat="48.02445" lon="-0.80942">
        <ele>64.3</ele>
        <time>2017-10-29T09:58:06Z</time>
      </trkpt>
      <trkpt lat="48.02455" lon="-0.80943">
        <ele>64.2</ele>
        <time>2017-10-29T09:58:10Z</time>
      </trkpt>
      <trkpt lat="48.02463" lon="-0.80945">
        <ele>63.9</ele>
        <time>2017-10-29T09:58:14Z</time>
      </trkpt>
      <trkpt lat="48.02473" lon="-0.80948">
        <ele>63.7</ele>
        <time>2017-10-29T09:58:18Z</time>
      </trkpt>
      <trkpt lat="48.02483" lon="-0.80949">
        <ele>63.9</ele>
        <time>2017-10-29T09:58:22Z</time>
      </trkpt>
      <trkpt lat="48.02494" lon="-0.80952">
        <ele>64</ele>
        <time>2017-10-29T09:58:26Z</time>
      </trkpt>
      <trkpt lat="48.02503" lon="-0.80954">
        <ele>64.1</ele>
        <time>2017-10-29T09:58:30Z</time>
      </trkpt>
      <trkpt lat="48.02516" lon="-0.80956">
        <ele>64.7</ele>
        <time>2017-10-29T09:58:34Z</time>
      </trkpt>
      <trkpt lat="48.02528" lon="-0.80958">
        <ele>65</ele>
        <time>2017-10-29T09:58:38Z</time>
      </trkpt>
      <trkpt lat="48.02539" lon="-0.80959">
        <ele>65.3</ele>
        <time>2017-10-29T09:58:43Z</time>
      </trkpt>
      <trkpt lat="48.02551" lon="-0.80958">
        <ele>65.9</ele>
        <time>2017-10-29T09:58:46Z</time>
      </trkpt>
      <trkpt lat="48.02562" lon="-0.80957">
        <ele>66.6</ele>
        <time>2017-10-29T09:58:50Z</time>
      </trkpt>
      <trkpt lat="48.02575" lon="-0.80954">
        <ele>67.6</ele>
        <time>2017-10-29T09:58:54Z</time>
      </trkpt>
      <trkpt lat="48.02586" lon="-0.80952">
        <ele>68.2</ele>
        <time>2017-10-29T09:58:58Z</time>
      </trkpt>
      <trkpt lat="48.02597" lon="-0.8095">
        <ele>68</ele>
        <time>2017-10-29T09:59:02Z</time>
      </trkpt>
      <trkpt lat="48.02613" lon="-0.80945">
        <ele>68</ele>
        <time>2017-10-29T09:59:06Z</time>
      </trkpt>
      <trkpt lat="48.0263" lon="-0.80937">
        <ele>69.3</ele>
        <time>2017-10-29T09:59:10Z</time>
      </trkpt>
      <trkpt lat="48.02646" lon="-0.8093">
        <ele>70.3</ele>
        <time>2017-10-29T09:59:14Z</time>
      </trkpt>
      <trkpt lat="48.02662" lon="-0.80921">
        <ele>70.7</ele>
        <time>2017-10-29T09:59:18Z</time>
      </trkpt>
      <trkpt lat="48.02677" lon="-0.80911">
        <ele>70.9</ele>
        <time>2017-10-29T09:59:22Z</time>
      </trkpt>
      <trkpt lat="48.0269" lon="-0.80901">
        <ele>70.9</ele>
        <time>2017-10-29T09:59:26Z</time>
      </trkpt>
      <trkpt lat="48.02703" lon="-0.80888">
        <ele>70.6</ele>
        <time>2017-10-29T09:59:30Z</time>
      </trkpt>
      <trkpt lat="48.02717" lon="-0.80874">
        <ele>69.8</ele>
        <time>2017-10-29T09:59:34Z</time>
      </trkpt>
      <trkpt lat="48.02735" lon="-0.80868">
        <ele>67.8</ele>
        <time>2017-10-29T09:59:38Z</time>
      </trkpt>
      <trkpt lat="48.02757" lon="-0.80878">
        <ele>65.9</ele>
        <time>2017-10-29T09:59:42Z</time>
      </trkpt>
      <trkpt lat="48.0278" lon="-0.80888">
        <ele>65.1</ele>
        <time>2017-10-29T09:59:46Z</time>
      </trkpt>
      <trkpt lat="48.02802" lon="-0.80898">
        <ele>64.7</ele>
        <time>2017-10-29T09:59:50Z</time>
      </trkpt>
      <trkpt lat="48.02824" lon="-0.80905">
        <ele>64.4</ele>
        <time>2017-10-29T09:59:54Z</time>
      </trkpt>
      <trkpt lat="48.02849" lon="-0.80901">
        <ele>64.2</ele>
        <time>2017-10-29T09:59:58Z</time>
      </trkpt>
      <trkpt lat="48.02873" lon="-0.80897">
        <ele>64</ele>
        <time>2017-10-29T10:00:02Z</time>
      </trkpt>
      <trkpt lat="48.02894" lon="-0.8089">
        <ele>64</ele>
        <time>2017-10-29T10:00:06Z</time>
      </trkpt>
      <trkpt lat="48.02895" lon="-0.80868">
        <ele>64.2</ele>
        <time>2017-10-29T10:00:10Z</time>
      </trkpt>
      <trkpt lat="48.02895" lon="-0.80844">
        <ele>64.8</ele>
        <time>2017-10-29T10:00:14Z</time>
      </trkpt>
      <trkpt lat="48.02893" lon="-0.80819">
        <ele>65.6</ele>
        <time>2017-10-29T10:00:18Z</time>
      </trkpt>
      <trkpt lat="48.02892" lon="-0.80796">
        <ele>66.4</ele>
        <time>2017-10-29T10:00:22Z</time>
      </trkpt>
      <trkpt lat="48.02893" lon="-0.80773">
        <ele>67.2</ele>
        <time>2017-10-29T10:00:26Z</time>
      </trkpt>
      <trkpt lat="48.02895" lon="-0.80754">
        <ele>67.9</ele>
        <time>2017-10-29T10:00:30Z</time>
      </trkpt>
      <trkpt lat="48.02904" lon="-0.8074">
        <ele>68.2</ele>
        <time>2017-10-29T10:00:34Z</time>
      </trkpt>
      <trkpt lat="48.02917" lon="-0.80739">
        <ele>68.4</ele>
        <time>2017-10-29T10:00:38Z</time>
      </trkpt>
      <trkpt lat="48.02934" lon="-0.80737">
        <ele>69.1</ele>
        <time>2017-10-29T10:00:42Z</time>
      </trkpt>
      <trkpt lat="48.02951" lon="-0.80735">
        <ele>69.5</ele>
        <time>2017-10-29T10:00:46Z</time>
      </trkpt>
      <trkpt lat="48.02967" lon="-0.80735">
        <ele>69.5</ele>
        <time>2017-10-29T10:00:50Z</time>
      </trkpt>
      <trkpt lat="48.02984" lon="-0.80734">
        <ele>69.8</ele>
        <time>2017-10-29T10:00:54Z</time>
      </trkpt>
      <trkpt lat="48.03" lon="-0.80732">
        <ele>70.3</ele>
        <time>2017-10-29T10:00:58Z</time>
      </trkpt>
      <trkpt lat="48.03017" lon="-0.80728">
        <ele>70.7</ele>
        <time>2017-10-29T10:01:02Z</time>
      </trkpt>
      <trkpt lat="48.03031" lon="-0.80726">
        <ele>70.8</ele>
        <time>2017-10-29T10:01:06Z</time>
      </trkpt>
      <trkpt lat="48.03048" lon="-0.80737">
        <ele>70.1</ele>
        <time>2017-10-29T10:01:10Z</time>
      </trkpt>
      <trkpt lat="48.03073" lon="-0.80747">
        <ele>70.4</ele>
        <time>2017-10-29T10:01:14Z</time>
      </trkpt>
      <trkpt lat="48.03089" lon="-0.80775">
        <ele>69.4</ele>
        <time>2017-10-29T10:01:18Z</time>
      </trkpt>
      <trkpt lat="48.03094" lon="-0.80806">
        <ele>68.4</ele>
        <time>2017-10-29T10:01:22Z</time>
      </trkpt>
      <trkpt lat="48.031" lon="-0.80827">
        <ele>68.6</ele>
        <time>2017-10-29T10:01:26Z</time>
      </trkpt>
      <trkpt lat="48.03106" lon="-0.80837">
        <ele>68.7</ele>
        <time>2017-10-29T10:01:30Z</time>
      </trkpt>
      <trkpt lat="48.03104" lon="-0.80846">
        <ele>68.4</ele>
        <time>2017-10-29T10:01:34Z</time>
      </trkpt>
      <trkpt lat="48.03093" lon="-0.80859">
        <ele>68</ele>
        <time>2017-10-29T10:01:38Z</time>
      </trkpt>
      <trkpt lat="48.0308" lon="-0.80878">
        <ele>67.3</ele>
        <time>2017-10-29T10:01:42Z</time>
      </trkpt>
      <trkpt lat="48.03083" lon="-0.80891">
        <ele>66.9</ele>
        <time>2017-10-29T10:01:46Z</time>
      </trkpt>
      <trkpt lat="48.03082" lon="-0.80892">
        <ele>66.9</ele>
        <time>2017-10-29T10:08:06Z</time>
      </trkpt>
      <trkpt lat="48.03082" lon="-0.8089">
        <ele>66.9</ele>
        <time>2017-10-29T10:08:10Z</time>
      </trkpt>
      <trkpt lat="48.03082" lon="-0.80888">
        <ele>67</ele>
        <time>2017-10-29T10:08:18Z</time>
      </trkpt>
      <trkpt lat="48.03085" lon="-0.80881">
        <ele>67.3</ele>
        <time>2017-10-29T10:08:22Z</time>
      </trkpt>
      <trkpt lat="48.03091" lon="-0.80878">
        <ele>67.6</ele>
        <time>2017-10-29T10:08:26Z</time>
      </trkpt>
      <trkpt lat="48.031" lon="-0.80872">
        <ele>67.8</ele>
        <time>2017-10-29T10:08:30Z</time>
      </trkpt>
      <trkpt lat="48.03113" lon="-0.80863">
        <ele>68</ele>
        <time>2017-10-29T10:08:34Z</time>
      </trkpt>
      <trkpt lat="48.03125" lon="-0.80851">
        <ele>68.5</ele>
        <time>2017-10-29T10:08:38Z</time>
      </trkpt>
      <trkpt lat="48.03147" lon="-0.80853">
        <ele>68.5</ele>
        <time>2017-10-29T10:08:43Z</time>
      </trkpt>
      <trkpt lat="48.03153" lon="-0.80868">
        <ele>67.6</ele>
        <time>2017-10-29T10:08:50Z</time>
      </trkpt>
      <trkpt lat="48.03141" lon="-0.80891">
        <ele>66.7</ele>
        <time>2017-10-29T10:08:54Z</time>
      </trkpt>
      <trkpt lat="48.03124" lon="-0.8092">
        <ele>64.7</ele>
        <time>2017-10-29T10:08:58Z</time>
      </trkpt>
      <trkpt lat="48.03102" lon="-0.8094">
        <ele>64</ele>
        <time>2017-10-29T10:09:02Z</time>
      </trkpt>
      <trkpt lat="48.03083" lon="-0.80959">
        <ele>63.9</ele>
        <time>2017-10-29T10:09:06Z</time>
      </trkpt>
      <trkpt lat="48.03087" lon="-0.80985">
        <ele>62</ele>
        <time>2017-10-29T10:09:10Z</time>
      </trkpt>
      <trkpt lat="48.03102" lon="-0.80991">
        <ele>61.4</ele>
        <time>2017-10-29T10:09:14Z</time>
      </trkpt>
      <trkpt lat="48.03118" lon="-0.80998">
        <ele>61.3</ele>
        <time>2017-10-29T10:09:18Z</time>
      </trkpt>
      <trkpt lat="48.03141" lon="-0.81008">
        <ele>61.8</ele>
        <time>2017-10-29T10:09:22Z</time>
      </trkpt>
      <trkpt lat="48.03166" lon="-0.8102">
        <ele>62.3</ele>
        <time>2017-10-29T10:09:26Z</time>
      </trkpt>
      <trkpt lat="48.03195" lon="-0.81032">
        <ele>61.9</ele>
        <time>2017-10-29T10:09:30Z</time>
      </trkpt>
      <trkpt lat="48.03219" lon="-0.81048">
        <ele>62.2</ele>
        <time>2017-10-29T10:09:34Z</time>
      </trkpt>
      <trkpt lat="48.03248" lon="-0.81064">
        <ele>61.7</ele>
        <time>2017-10-29T10:09:38Z</time>
      </trkpt>
      <trkpt lat="48.03279" lon="-0.8108">
        <ele>62</ele>
        <time>2017-10-29T10:09:42Z</time>
      </trkpt>
      <trkpt lat="48.03308" lon="-0.81095">
        <ele>62.1</ele>
        <time>2017-10-29T10:09:46Z</time>
      </trkpt>
      <trkpt lat="48.03336" lon="-0.81111">
        <ele>62</ele>
        <time>2017-10-29T10:09:50Z</time>
      </trkpt>
      <trkpt lat="48.0336" lon="-0.81124">
        <ele>62</ele>
        <time>2017-10-29T10:09:54Z</time>
      </trkpt>
      <trkpt lat="48.03386" lon="-0.81134">
        <ele>62.9</ele>
        <time>2017-10-29T10:09:58Z</time>
      </trkpt>
      <trkpt lat="48.03409" lon="-0.81146">
        <ele>63</ele>
        <time>2017-10-29T10:10:02Z</time>
      </trkpt>
      <trkpt lat="48.0343" lon="-0.81158">
        <ele>63.5</ele>
        <time>2017-10-29T10:10:06Z</time>
      </trkpt>
      <trkpt lat="48.03451" lon="-0.81171">
        <ele>63.9</ele>
        <time>2017-10-29T10:10:10Z</time>
      </trkpt>
      <trkpt lat="48.03472" lon="-0.81183">
        <ele>64</ele>
        <time>2017-10-29T10:10:14Z</time>
      </trkpt>
      <trkpt lat="48.03491" lon="-0.81193">
        <ele>64</ele>
        <time>2017-10-29T10:10:18Z</time>
      </trkpt>
      <trkpt lat="48.03511" lon="-0.81203">
        <ele>64.7</ele>
        <time>2017-10-29T10:10:22Z</time>
      </trkpt>
      <trkpt lat="48.03529" lon="-0.81212">
        <ele>65.4</ele>
        <time>2017-10-29T10:10:26Z</time>
      </trkpt>
      <trkpt lat="48.03543" lon="-0.81221">
        <ele>65.1</ele>
        <time>2017-10-29T10:10:30Z</time>
      </trkpt>
      <trkpt lat="48.03555" lon="-0.81229">
        <ele>64.8</ele>
        <time>2017-10-29T10:10:34Z</time>
      </trkpt>
      <trkpt lat="48.0357" lon="-0.81236">
        <ele>65.3</ele>
        <time>2017-10-29T10:10:38Z</time>
      </trkpt>
      <trkpt lat="48.03588" lon="-0.81246">
        <ele>66</ele>
        <time>2017-10-29T10:10:42Z</time>
      </trkpt>
      <trkpt lat="48.03607" lon="-0.81256">
        <ele>65.8</ele>
        <time>2017-10-29T10:10:46Z</time>
      </trkpt>
      <trkpt lat="48.03625" lon="-0.81268">
        <ele>66.2</ele>
        <time>2017-10-29T10:10:50Z</time>
      </trkpt>
      <trkpt lat="48.03645" lon="-0.81279">
        <ele>67</ele>
        <time>2017-10-29T10:10:54Z</time>
      </trkpt>
      <trkpt lat="48.03665" lon="-0.8129">
        <ele>66.6</ele>
        <time>2017-10-29T10:10:58Z</time>
      </trkpt>
      <trkpt lat="48.03684" lon="-0.813">
        <ele>66.9</ele>
        <time>2017-10-29T10:11:02Z</time>
      </trkpt>
      <trkpt lat="48.03704" lon="-0.81311">
        <ele>67.5</ele>
        <time>2017-10-29T10:11:06Z</time>
      </trkpt>
      <trkpt lat="48.03727" lon="-0.81323">
        <ele>68.5</ele>
        <time>2017-10-29T10:11:10Z</time>
      </trkpt>
      <trkpt lat="48.03746" lon="-0.81335">
        <ele>68.8</ele>
        <time>2017-10-29T10:11:14Z</time>
      </trkpt>
      <trkpt lat="48.03768" lon="-0.81347">
        <ele>69.1</ele>
        <time>2017-10-29T10:11:18Z</time>
      </trkpt>
      <trkpt lat="48.03788" lon="-0.81358">
        <ele>69.5</ele>
        <time>2017-10-29T10:11:22Z</time>
      </trkpt>
      <trkpt lat="48.03808" lon="-0.81371">
        <ele>69.7</ele>
        <time>2017-10-29T10:11:26Z</time>
      </trkpt>
      <trkpt lat="48.03828" lon="-0.81382">
        <ele>70.1</ele>
        <time>2017-10-29T10:11:30Z</time>
      </trkpt>
      <trkpt lat="48.03848" lon="-0.81393">
        <ele>70.4</ele>
        <time>2017-10-29T10:11:34Z</time>
      </trkpt>
      <trkpt lat="48.0387" lon="-0.81401">
        <ele>71.2</ele>
        <time>2017-10-29T10:11:38Z</time>
      </trkpt>
      <trkpt lat="48.03887" lon="-0.81413">
        <ele>72</ele>
        <time>2017-10-29T10:11:42Z</time>
      </trkpt>
      <trkpt lat="48.03902" lon="-0.81426">
        <ele>71.9</ele>
        <time>2017-10-29T10:11:46Z</time>
      </trkpt>
      <trkpt lat="48.03914" lon="-0.81433">
        <ele>72.3</ele>
        <time>2017-10-29T10:11:50Z</time>
      </trkpt>
      <trkpt lat="48.03926" lon="-0.81438">
        <ele>72.8</ele>
        <time>2017-10-29T10:11:54Z</time>
      </trkpt>
      <trkpt lat="48.03937" lon="-0.81444">
        <ele>73.4</ele>
        <time>2017-10-29T10:11:58Z</time>
      </trkpt>
      <trkpt lat="48.0395" lon="-0.8145">
        <ele>74</ele>
        <time>2017-10-29T10:12:02Z</time>
      </trkpt>
      <trkpt lat="48.03961" lon="-0.81457">
        <ele>74.1</ele>
        <time>2017-10-29T10:12:06Z</time>
      </trkpt>
      <trkpt lat="48.03974" lon="-0.81465">
        <ele>74.3</ele>
        <time>2017-10-29T10:12:10Z</time>
      </trkpt>
      <trkpt lat="48.03989" lon="-0.81473">
        <ele>74.6</ele>
        <time>2017-10-29T10:12:14Z</time>
      </trkpt>
      <trkpt lat="48.04004" lon="-0.81484">
        <ele>74.6</ele>
        <time>2017-10-29T10:12:18Z</time>
      </trkpt>
      <trkpt lat="48.0402" lon="-0.81494">
        <ele>74.2</ele>
        <time>2017-10-29T10:12:22Z</time>
      </trkpt>
      <trkpt lat="48.04039" lon="-0.81505">
        <ele>73.8</ele>
        <time>2017-10-29T10:12:26Z</time>
      </trkpt>
      <trkpt lat="48.0406" lon="-0.81515">
        <ele>73.5</ele>
        <time>2017-10-29T10:12:30Z</time>
      </trkpt>
      <trkpt lat="48.04079" lon="-0.81526">
        <ele>73.1</ele>
        <time>2017-10-29T10:12:34Z</time>
      </trkpt>
      <trkpt lat="48.04101" lon="-0.81536">
        <ele>72.7</ele>
        <time>2017-10-29T10:12:38Z</time>
      </trkpt>
      <trkpt lat="48.04125" lon="-0.81544">
        <ele>72.2</ele>
        <time>2017-10-29T10:12:42Z</time>
      </trkpt>
      <trkpt lat="48.04146" lon="-0.81554">
        <ele>71.8</ele>
        <time>2017-10-29T10:12:46Z</time>
      </trkpt>
      <trkpt lat="48.04165" lon="-0.81565">
        <ele>71</ele>
        <time>2017-10-29T10:12:50Z</time>
      </trkpt>
      <trkpt lat="48.04185" lon="-0.81576">
        <ele>71</ele>
        <time>2017-10-29T10:12:54Z</time>
      </trkpt>
      <trkpt lat="48.04209" lon="-0.81589">
        <ele>70.8</ele>
        <time>2017-10-29T10:12:58Z</time>
      </trkpt>
      <trkpt lat="48.04233" lon="-0.81601">
        <ele>70.4</ele>
        <time>2017-10-29T10:13:02Z</time>
      </trkpt>
      <trkpt lat="48.04256" lon="-0.81615">
        <ele>69.9</ele>
        <time>2017-10-29T10:13:06Z</time>
      </trkpt>
      <trkpt lat="48.0428" lon="-0.81629">
        <ele>70</ele>
        <time>2017-10-29T10:13:10Z</time>
      </trkpt>
      <trkpt lat="48.04302" lon="-0.81641">
        <ele>69.9</ele>
        <time>2017-10-29T10:13:14Z</time>
      </trkpt>
      <trkpt lat="48.04326" lon="-0.81653">
        <ele>69.9</ele>
        <time>2017-10-29T10:13:18Z</time>
      </trkpt>
      <trkpt lat="48.0435" lon="-0.81666">
        <ele>70</ele>
        <time>2017-10-29T10:13:22Z</time>
      </trkpt>
      <trkpt lat="48.04377" lon="-0.81681">
        <ele>70</ele>
        <time>2017-10-29T10:13:26Z</time>
      </trkpt>
      <trkpt lat="48.04409" lon="-0.81695">
        <ele>70</ele>
        <time>2017-10-29T10:13:30Z</time>
      </trkpt>
      <trkpt lat="48.04441" lon="-0.81712">
        <ele>70</ele>
        <time>2017-10-29T10:13:34Z</time>
      </trkpt>
      <trkpt lat="48.04473" lon="-0.8173">
        <ele>70</ele>
        <time>2017-10-29T10:13:38Z</time>
      </trkpt>
      <trkpt lat="48.04505" lon="-0.8175">
        <ele>69.8</ele>
        <time>2017-10-29T10:13:42Z</time>
      </trkpt>
      <trkpt lat="48.04538" lon="-0.81768">
        <ele>69</ele>
        <time>2017-10-29T10:13:46Z</time>
      </trkpt>
      <trkpt lat="48.04571" lon="-0.81787">
        <ele>69</ele>
        <time>2017-10-29T10:13:50Z</time>
      </trkpt>
      <trkpt lat="48.04603" lon="-0.81805">
        <ele>69</ele>
        <time>2017-10-29T10:13:54Z</time>
      </trkpt>
      <trkpt lat="48.04632" lon="-0.81822">
        <ele>69</ele>
        <time>2017-10-29T10:13:58Z</time>
      </trkpt>
      <trkpt lat="48.04647" lon="-0.81837">
        <ele>69.3</ele>
        <time>2017-10-29T10:14:02Z</time>
      </trkpt>
      <trkpt lat="48.04661" lon="-0.81845">
        <ele>69.8</ele>
        <time>2017-10-29T10:14:06Z</time>
      </trkpt>
      <trkpt lat="48.04677" lon="-0.81853">
        <ele>69.9</ele>
        <time>2017-10-29T10:14:10Z</time>
      </trkpt>
      <trkpt lat="48.04696" lon="-0.81869">
        <ele>69.7</ele>
        <time>2017-10-29T10:14:14Z</time>
      </trkpt>
      <trkpt lat="48.04718" lon="-0.81887">
        <ele>69</ele>
        <time>2017-10-29T10:14:18Z</time>
      </trkpt>
      <trkpt lat="48.04741" lon="-0.81908">
        <ele>69</ele>
        <time>2017-10-29T10:14:22Z</time>
      </trkpt>
      <trkpt lat="48.04765" lon="-0.81929">
        <ele>68.2</ele>
        <time>2017-10-29T10:14:26Z</time>
      </trkpt>
      <trkpt lat="48.04788" lon="-0.81951">
        <ele>68.3</ele>
        <time>2017-10-29T10:14:30Z</time>
      </trkpt>
      <trkpt lat="48.04807" lon="-0.81969">
        <ele>68.6</ele>
        <time>2017-10-29T10:14:34Z</time>
      </trkpt>
      <trkpt lat="48.04824" lon="-0.81987">
        <ele>67.8</ele>
        <time>2017-10-29T10:14:38Z</time>
      </trkpt>
      <trkpt lat="48.04842" lon="-0.82006">
        <ele>66.8</ele>
        <time>2017-10-29T10:14:42Z</time>
      </trkpt>
      <trkpt lat="48.04861" lon="-0.82022">
        <ele>65</ele>
        <time>2017-10-29T10:14:46Z</time>
      </trkpt>
      <trkpt lat="48.04879" lon="-0.82041">
        <ele>65.6</ele>
        <time>2017-10-29T10:14:50Z</time>
      </trkpt>
      <trkpt lat="48.04899" lon="-0.8206">
        <ele>66.3</ele>
        <time>2017-10-29T10:14:54Z</time>
      </trkpt>
      <trkpt lat="48.04915" lon="-0.82082">
        <ele>67</ele>
        <time>2017-10-29T10:14:58Z</time>
      </trkpt>
      <trkpt lat="48.04935" lon="-0.82105">
        <ele>68.5</ele>
        <time>2017-10-29T10:15:02Z</time>
      </trkpt>
      <trkpt lat="48.0496" lon="-0.8213">
        <ele>69</ele>
        <time>2017-10-29T10:15:06Z</time>
      </trkpt>
      <trkpt lat="48.04987" lon="-0.82157">
        <ele>69.8</ele>
        <time>2017-10-29T10:15:10Z</time>
      </trkpt>
      <trkpt lat="48.05014" lon="-0.82182">
        <ele>70.6</ele>
        <time>2017-10-29T10:15:14Z</time>
      </trkpt>
      <trkpt lat="48.05043" lon="-0.82207">
        <ele>70.9</ele>
        <time>2017-10-29T10:15:18Z</time>
      </trkpt>
      <trkpt lat="48.05072" lon="-0.82233">
        <ele>70.5</ele>
        <time>2017-10-29T10:15:22Z</time>
      </trkpt>
      <trkpt lat="48.05101" lon="-0.82257">
        <ele>70.4</ele>
        <time>2017-10-29T10:15:26Z</time>
      </trkpt>
      <trkpt lat="48.05128" lon="-0.82274">
        <ele>70.5</ele>
        <time>2017-10-29T10:15:30Z</time>
      </trkpt>
      <trkpt lat="48.05154" lon="-0.82289">
        <ele>69.8</ele>
        <time>2017-10-29T10:15:34Z</time>
      </trkpt>
      <trkpt lat="48.05171" lon="-0.82302">
        <ele>69.6</ele>
        <time>2017-10-29T10:15:38Z</time>
      </trkpt>
      <trkpt lat="48.0518" lon="-0.82307">
        <ele>69.6</ele>
        <time>2017-10-29T10:15:42Z</time>
      </trkpt>
      <trkpt lat="48.05194" lon="-0.82328">
        <ele>70.7</ele>
        <time>2017-10-29T10:16:14Z</time>
      </trkpt>
      <trkpt lat="48.05199" lon="-0.82331">
        <ele>70.7</ele>
        <time>2017-10-29T10:17:06Z</time>
      </trkpt>
      <trkpt lat="48.05199" lon="-0.82338">
        <ele>71.4</ele>
        <time>2017-10-29T10:17:10Z</time>
      </trkpt>
      <trkpt lat="48.05202" lon="-0.82335">
        <ele>70.9</ele>
        <time>2017-10-29T10:17:14Z</time>
      </trkpt>
      <trkpt lat="48.05206" lon="-0.82328">
        <ele>70.2</ele>
        <time>2017-10-29T10:17:18Z</time>
      </trkpt>
      <trkpt lat="48.05213" lon="-0.82325">
        <ele>69.6</ele>
        <time>2017-10-29T10:17:22Z</time>
      </trkpt>
      <trkpt lat="48.05219" lon="-0.82325">
        <ele>69.3</ele>
        <time>2017-10-29T10:17:26Z</time>
      </trkpt>
      <trkpt lat="48.0523" lon="-0.82325">
        <ele>68.7</ele>
        <time>2017-10-29T10:17:42Z</time>
      </trkpt>
      <trkpt lat="48.05234" lon="-0.82325">
        <ele>68.5</ele>
        <time>2017-10-29T10:17:46Z</time>
      </trkpt>
      <trkpt lat="48.05239" lon="-0.82328">
        <ele>68.5</ele>
        <time>2017-10-29T10:17:50Z</time>
      </trkpt>
      <trkpt lat="48.05241" lon="-0.82328">
        <ele>68.3</ele>
        <time>2017-10-29T10:17:54Z</time>
      </trkpt>
      <trkpt lat="48.05244" lon="-0.82333">
        <ele>68.5</ele>
        <time>2017-10-29T10:17:58Z</time>
      </trkpt>
      <trkpt lat="48.05247" lon="-0.82334">
        <ele>68.4</ele>
        <time>2017-10-29T10:18:02Z</time>
      </trkpt>
      <trkpt lat="48.0525" lon="-0.82337">
        <ele>68.6</ele>
        <time>2017-10-29T10:18:06Z</time>
      </trkpt>
      <trkpt lat="48.05253" lon="-0.82339">
        <ele>68.9</ele>
        <time>2017-10-29T10:18:10Z</time>
      </trkpt>
      <trkpt lat="48.05259" lon="-0.82345">
        <ele>69.5</ele>
        <time>2017-10-29T10:18:14Z</time>
      </trkpt>
      <trkpt lat="48.0527" lon="-0.82353">
        <ele>69.8</ele>
        <time>2017-10-29T10:18:43Z</time>
      </trkpt>
      <trkpt lat="48.05273" lon="-0.82354">
        <ele>69.7</ele>
        <time>2017-10-29T10:18:50Z</time>
      </trkpt>
      <trkpt lat="48.05279" lon="-0.82356">
        <ele>69.5</ele>
        <time>2017-10-29T10:18:54Z</time>
      </trkpt>
      <trkpt lat="48.05284" lon="-0.8236">
        <ele>69.7</ele>
        <time>2017-10-29T10:18:58Z</time>
      </trkpt>
      <trkpt lat="48.05289" lon="-0.82362">
        <ele>69.9</ele>
        <time>2017-10-29T10:19:02Z</time>
      </trkpt>
      <trkpt lat="48.05293" lon="-0.82356">
        <ele>69</ele>
        <time>2017-10-29T10:19:50Z</time>
      </trkpt>
      <trkpt lat="48.05296" lon="-0.82364">
        <ele>69.9</ele>
        <time>2017-10-29T10:19:58Z</time>
      </trkpt>
      <trkpt lat="48.05299" lon="-0.82364">
        <ele>69.8</ele>
        <time>2017-10-29T10:20:02Z</time>
      </trkpt>
      <trkpt lat="48.05301" lon="-0.82366">
        <ele>70.1</ele>
        <time>2017-10-29T10:20:10Z</time>
      </trkpt>
      <trkpt lat="48.05303" lon="-0.8237">
        <ele>70.7</ele>
        <time>2017-10-29T10:20:14Z</time>
      </trkpt>
      <trkpt lat="48.05306" lon="-0.82371">
        <ele>70.8</ele>
        <time>2017-10-29T10:20:18Z</time>
      </trkpt>
      <trkpt lat="48.05311" lon="-0.82373">
        <ele>70.8</ele>
        <time>2017-10-29T10:20:22Z</time>
      </trkpt>
      <trkpt lat="48.05318" lon="-0.82375">
        <ele>70.6</ele>
        <time>2017-10-29T10:20:26Z</time>
      </trkpt>
      <trkpt lat="48.05322" lon="-0.82381">
        <ele>71.2</ele>
        <time>2017-10-29T10:20:30Z</time>
      </trkpt>
      <trkpt lat="48.05329" lon="-0.82383">
        <ele>70.8</ele>
        <time>2017-10-29T10:20:34Z</time>
      </trkpt>
      <trkpt lat="48.05334" lon="-0.82389">
        <ele>70.9</ele>
        <time>2017-10-29T10:20:38Z</time>
      </trkpt>
      <trkpt lat="48.05339" lon="-0.82394">
        <ele>71.6</ele>
        <time>2017-10-29T10:20:42Z</time>
      </trkpt>
      <trkpt lat="48.05347" lon="-0.824">
        <ele>71.9</ele>
        <time>2017-10-29T10:20:46Z</time>
      </trkpt>
      <trkpt lat="48.05356" lon="-0.82405">
        <ele>71.7</ele>
        <time>2017-10-29T10:20:50Z</time>
      </trkpt>
      <trkpt lat="48.05366" lon="-0.8241">
        <ele>71.4</ele>
        <time>2017-10-29T10:20:54Z</time>
      </trkpt>
      <trkpt lat="48.05377" lon="-0.82419">
        <ele>71.6</ele>
        <time>2017-10-29T10:20:58Z</time>
      </trkpt>
      <trkpt lat="48.05384" lon="-0.82426">
        <ele>71.6</ele>
        <time>2017-10-29T10:21:02Z</time>
      </trkpt>
      <trkpt lat="48.05393" lon="-0.82431">
        <ele>71.4</ele>
        <time>2017-10-29T10:21:06Z</time>
      </trkpt>
      <trkpt lat="48.05403" lon="-0.82437">
        <ele>71.2</ele>
        <time>2017-10-29T10:21:10Z</time>
      </trkpt>
      <trkpt lat="48.05413" lon="-0.8244">
        <ele>71</ele>
        <time>2017-10-29T10:21:14Z</time>
      </trkpt>
      <trkpt lat="48.05424" lon="-0.82446">
        <ele>71.1</ele>
        <time>2017-10-29T10:21:18Z</time>
      </trkpt>
      <trkpt lat="48.05435" lon="-0.8245">
        <ele>71.2</ele>
        <time>2017-10-29T10:21:22Z</time>
      </trkpt>
      <trkpt lat="48.05444" lon="-0.82457">
        <ele>71.5</ele>
        <time>2017-10-29T10:21:26Z</time>
      </trkpt>
      <trkpt lat="48.0545" lon="-0.8246">
        <ele>71.6</ele>
        <time>2017-10-29T10:21:30Z</time>
      </trkpt>
      <trkpt lat="48.0546" lon="-0.82464">
        <ele>71.7</ele>
        <time>2017-10-29T10:21:34Z</time>
      </trkpt>
      <trkpt lat="48.05471" lon="-0.8247">
        <ele>71.9</ele>
        <time>2017-10-29T10:21:38Z</time>
      </trkpt>
      <trkpt lat="48.05481" lon="-0.82479">
        <ele>72.4</ele>
        <time>2017-10-29T10:21:42Z</time>
      </trkpt>
      <trkpt lat="48.05489" lon="-0.82485">
        <ele>72.6</ele>
        <time>2017-10-29T10:21:46Z</time>
      </trkpt>
      <trkpt lat="48.05493" lon="-0.82488">
        <ele>72.7</ele>
        <time>2017-10-29T10:21:50Z</time>
      </trkpt>
      <trkpt lat="48.05498" lon="-0.8249">
        <ele>72.7</ele>
        <time>2017-10-29T10:21:54Z</time>
      </trkpt>
      <trkpt lat="48.05503" lon="-0.82485">
        <ele>72.4</ele>
        <time>2017-10-29T10:21:58Z</time>
      </trkpt>
      <trkpt lat="48.05511" lon="-0.82487">
        <ele>72.3</ele>
        <time>2017-10-29T10:22:02Z</time>
      </trkpt>
      <trkpt lat="48.05521" lon="-0.8249">
        <ele>72.2</ele>
        <time>2017-10-29T10:22:06Z</time>
      </trkpt>
      <trkpt lat="48.05527" lon="-0.82493">
        <ele>72</ele>
        <time>2017-10-29T10:22:10Z</time>
      </trkpt>
      <trkpt lat="48.05528" lon="-0.82501">
        <ele>72.1</ele>
        <time>2017-10-29T10:22:14Z</time>
      </trkpt>
      <trkpt lat="48.05536" lon="-0.82509">
        <ele>72.5</ele>
        <time>2017-10-29T10:22:18Z</time>
      </trkpt>
      <trkpt lat="48.05545" lon="-0.82508">
        <ele>72.4</ele>
        <time>2017-10-29T10:22:22Z</time>
      </trkpt>
      <trkpt lat="48.05555" lon="-0.82513">
        <ele>72.5</ele>
        <time>2017-10-29T10:22:26Z</time>
      </trkpt>
      <trkpt lat="48.05567" lon="-0.82519">
        <ele>72.7</ele>
        <time>2017-10-29T10:22:30Z</time>
      </trkpt>
      <trkpt lat="48.05577" lon="-0.82522">
        <ele>72.8</ele>
        <time>2017-10-29T10:22:34Z</time>
      </trkpt>
      <trkpt lat="48.05588" lon="-0.82526">
        <ele>73</ele>
        <time>2017-10-29T10:22:38Z</time>
      </trkpt>
      <trkpt lat="48.05596" lon="-0.8253">
        <ele>73.2</ele>
        <time>2017-10-29T10:22:42Z</time>
      </trkpt>
      <trkpt lat="48.05606" lon="-0.82534">
        <ele>73.6</ele>
        <time>2017-10-29T10:22:46Z</time>
      </trkpt>
      <trkpt lat="48.05615" lon="-0.82538">
        <ele>74.1</ele>
        <time>2017-10-29T10:22:50Z</time>
      </trkpt>
      <trkpt lat="48.05625" lon="-0.82539">
        <ele>74.3</ele>
        <time>2017-10-29T10:22:54Z</time>
      </trkpt>
      <trkpt lat="48.05634" lon="-0.82543">
        <ele>74.6</ele>
        <time>2017-10-29T10:22:58Z</time>
      </trkpt>
      <trkpt lat="48.05644" lon="-0.82545">
        <ele>74.8</ele>
        <time>2017-10-29T10:23:02Z</time>
      </trkpt>
      <trkpt lat="48.05653" lon="-0.82547">
        <ele>75</ele>
        <time>2017-10-29T10:23:06Z</time>
      </trkpt>
      <trkpt lat="48.05665" lon="-0.82553">
        <ele>75.7</ele>
        <time>2017-10-29T10:23:10Z</time>
      </trkpt>
      <trkpt lat="48.05672" lon="-0.82556">
        <ele>76</ele>
        <time>2017-10-29T10:23:14Z</time>
      </trkpt>
      <trkpt lat="48.05682" lon="-0.82556">
        <ele>75.6</ele>
        <time>2017-10-29T10:23:18Z</time>
      </trkpt>
      <trkpt lat="48.05693" lon="-0.82562">
        <ele>76.4</ele>
        <time>2017-10-29T10:23:26Z</time>
      </trkpt>
      <trkpt lat="48.05701" lon="-0.82564">
        <ele>76.7</ele>
        <time>2017-10-29T10:23:30Z</time>
      </trkpt>
      <trkpt lat="48.05708" lon="-0.82568">
        <ele>77.5</ele>
        <time>2017-10-29T10:23:38Z</time>
      </trkpt>
      <trkpt lat="48.05713" lon="-0.82568">
        <ele>77.4</ele>
        <time>2017-10-29T10:23:42Z</time>
      </trkpt>
      <trkpt lat="48.05725" lon="-0.82572">
        <ele>77.8</ele>
        <time>2017-10-29T10:24:18Z</time>
      </trkpt>
      <trkpt lat="48.0573" lon="-0.82573">
        <ele>77.7</ele>
        <time>2017-10-29T10:24:26Z</time>
      </trkpt>
      <trkpt lat="48.05733" lon="-0.82575">
        <ele>77.8</ele>
        <time>2017-10-29T10:24:30Z</time>
      </trkpt>
      <trkpt lat="48.0574" lon="-0.82578">
        <ele>77.8</ele>
        <time>2017-10-29T10:24:34Z</time>
      </trkpt>
      <trkpt lat="48.05753" lon="-0.82584">
        <ele>77.9</ele>
        <time>2017-10-29T10:24:38Z</time>
      </trkpt>
      <trkpt lat="48.05763" lon="-0.82584">
        <ele>77.2</ele>
        <time>2017-10-29T10:24:42Z</time>
      </trkpt>
      <trkpt lat="48.05777" lon="-0.82591">
        <ele>77.4</ele>
        <time>2017-10-29T10:24:46Z</time>
      </trkpt>
      <trkpt lat="48.05789" lon="-0.82592">
        <ele>77.7</ele>
        <time>2017-10-29T10:24:50Z</time>
      </trkpt>
      <trkpt lat="48.05803" lon="-0.82584">
        <ele>76.1</ele>
        <time>2017-10-29T10:24:54Z</time>
      </trkpt>
      <trkpt lat="48.0582" lon="-0.82586">
        <ele>77.4</ele>
        <time>2017-10-29T10:24:58Z</time>
      </trkpt>
      <trkpt lat="48.05835" lon="-0.82597">
        <ele>81.4</ele>
        <time>2017-10-29T10:25:02Z</time>
      </trkpt>
      <trkpt lat="48.05848" lon="-0.82603">
        <ele>81.9</ele>
        <time>2017-10-29T10:25:06Z</time>
      </trkpt>
      <trkpt lat="48.0586" lon="-0.82602">
        <ele>80.4</ele>
        <time>2017-10-29T10:25:10Z</time>
      </trkpt>
      <trkpt lat="48.05878" lon="-0.82599">
        <ele>78.1</ele>
        <time>2017-10-29T10:25:14Z</time>
      </trkpt>
      <trkpt lat="48.05893" lon="-0.82599">
        <ele>76.8</ele>
        <time>2017-10-29T10:25:18Z</time>
      </trkpt>
      <trkpt lat="48.05908" lon="-0.82596">
        <ele>75.3</ele>
        <time>2017-10-29T10:25:22Z</time>
      </trkpt>
      <trkpt lat="48.05927" lon="-0.82593">
        <ele>74.3</ele>
        <time>2017-10-29T10:25:26Z</time>
      </trkpt>
      <trkpt lat="48.05948" lon="-0.82587">
        <ele>73.7</ele>
        <time>2017-10-29T10:25:30Z</time>
      </trkpt>
      <trkpt lat="48.05969" lon="-0.82578">
        <ele>73.5</ele>
        <time>2017-10-29T10:25:34Z</time>
      </trkpt>
      <trkpt lat="48.05993" lon="-0.82571">
        <ele>74.3</ele>
        <time>2017-10-29T10:25:38Z</time>
      </trkpt>
      <trkpt lat="48.06014" lon="-0.82564">
        <ele>74.7</ele>
        <time>2017-10-29T10:25:42Z</time>
      </trkpt>
      <trkpt lat="48.06032" lon="-0.82557">
        <ele>75.4</ele>
        <time>2017-10-29T10:25:46Z</time>
      </trkpt>
      <trkpt lat="48.06047" lon="-0.82549">
        <ele>75.6</ele>
        <time>2017-10-29T10:25:50Z</time>
      </trkpt>
      <trkpt lat="48.0606" lon="-0.82541">
        <ele>75.5</ele>
        <time>2017-10-29T10:25:54Z</time>
      </trkpt>
      <trkpt lat="48.06075" lon="-0.82531">
        <ele>75.8</ele>
        <time>2017-10-29T10:25:58Z</time>
      </trkpt>
      <trkpt lat="48.06092" lon="-0.82523">
        <ele>76.9</ele>
        <time>2017-10-29T10:26:02Z</time>
      </trkpt>
      <trkpt lat="48.06104" lon="-0.82518">
        <ele>78.2</ele>
        <time>2017-10-29T10:26:06Z</time>
      </trkpt>
      <trkpt lat="48.06115" lon="-0.82507">
        <ele>77.9</ele>
        <time>2017-10-29T10:26:10Z</time>
      </trkpt>
      <trkpt lat="48.06126" lon="-0.82498">
        <ele>78.4</ele>
        <time>2017-10-29T10:26:42Z</time>
      </trkpt>
      <trkpt lat="48.06131" lon="-0.82484">
        <ele>76.8</ele>
        <time>2017-10-29T10:26:46Z</time>
      </trkpt>
      <trkpt lat="48.06142" lon="-0.82466">
        <ele>75.5</ele>
        <time>2017-10-29T10:26:50Z</time>
      </trkpt>
      <trkpt lat="48.06157" lon="-0.82446">
        <ele>74.3</ele>
        <time>2017-10-29T10:26:54Z</time>
      </trkpt>
      <trkpt lat="48.0617" lon="-0.82426">
        <ele>72.6</ele>
        <time>2017-10-29T10:26:58Z</time>
      </trkpt>
      <trkpt lat="48.06174" lon="-0.82413">
        <ele>71.2</ele>
        <time>2017-10-29T10:27:02Z</time>
      </trkpt>
      <trkpt lat="48.06166" lon="-0.82412">
        <ele>70.7</ele>
        <time>2017-10-29T10:27:06Z</time>
      </trkpt>
      <trkpt lat="48.06156" lon="-0.82415">
        <ele>70.2</ele>
        <time>2017-10-29T10:27:10Z</time>
      </trkpt>
      <trkpt lat="48.06148" lon="-0.82413">
        <ele>69.6</ele>
        <time>2017-10-29T10:27:14Z</time>
      </trkpt>
      <trkpt lat="48.06144" lon="-0.82411">
        <ele>69.5</ele>
        <time>2017-10-29T10:27:18Z</time>
      </trkpt>
      <trkpt lat="48.06134" lon="-0.82408">
        <ele>70.1</ele>
        <time>2017-10-29T10:27:22Z</time>
      </trkpt>
      <trkpt lat="48.06124" lon="-0.82407">
        <ele>72.1</ele>
        <time>2017-10-29T10:27:26Z</time>
      </trkpt>
      <trkpt lat="48.06112" lon="-0.82408">
        <ele>74.1</ele>
        <time>2017-10-29T10:27:30Z</time>
      </trkpt>
      <trkpt lat="48.06095" lon="-0.82414">
        <ele>73.2</ele>
        <time>2017-10-29T10:27:34Z</time>
      </trkpt>
      <trkpt lat="48.06083" lon="-0.82416">
        <ele>73.1</ele>
        <time>2017-10-29T10:27:38Z</time>
      </trkpt>
      <trkpt lat="48.06072" lon="-0.82418">
        <ele>73.3</ele>
        <time>2017-10-29T10:27:42Z</time>
      </trkpt>
      <trkpt lat="48.06059" lon="-0.82418">
        <ele>73.6</ele>
        <time>2017-10-29T10:27:46Z</time>
      </trkpt>
      <trkpt lat="48.06045" lon="-0.82416">
        <ele>74.1</ele>
        <time>2017-10-29T10:27:50Z</time>
      </trkpt>
      <trkpt lat="48.06031" lon="-0.82412">
        <ele>75</ele>
        <time>2017-10-29T10:27:54Z</time>
      </trkpt>
      <trkpt lat="48.0602" lon="-0.82409">
        <ele>75.6</ele>
        <time>2017-10-29T10:27:58Z</time>
      </trkpt>
      <trkpt lat="48.06011" lon="-0.82409">
        <ele>75.4</ele>
        <time>2017-10-29T10:28:02Z</time>
      </trkpt>
      <trkpt lat="48.06" lon="-0.82409">
        <ele>75.5</ele>
        <time>2017-10-29T10:28:06Z</time>
      </trkpt>
      <trkpt lat="48.05992" lon="-0.82407">
        <ele>75.3</ele>
        <time>2017-10-29T10:28:10Z</time>
      </trkpt>
      <trkpt lat="48.05983" lon="-0.82401">
        <ele>75.9</ele>
        <time>2017-10-29T10:28:14Z</time>
      </trkpt>
      <trkpt lat="48.05975" lon="-0.82394">
        <ele>76.4</ele>
        <time>2017-10-29T10:28:22Z</time>
      </trkpt>
      <trkpt lat="48.05971" lon="-0.82394">
        <ele>76.3</ele>
        <time>2017-10-29T10:28:26Z</time>
      </trkpt>
      <trkpt lat="48.05964" lon="-0.82395">
        <ele>76.2</ele>
        <time>2017-10-29T10:28:30Z</time>
      </trkpt>
      <trkpt lat="48.05957" lon="-0.82397">
        <ele>76.2</ele>
        <time>2017-10-29T10:28:34Z</time>
      </trkpt>
      <trkpt lat="48.05949" lon="-0.82398">
        <ele>76.2</ele>
        <time>2017-10-29T10:28:38Z</time>
      </trkpt>
      <trkpt lat="48.05941" lon="-0.82398">
        <ele>76.6</ele>
        <time>2017-10-29T10:28:43Z</time>
      </trkpt>
      <trkpt lat="48.05933" lon="-0.82398">
        <ele>77.3</ele>
        <time>2017-10-29T10:28:46Z</time>
      </trkpt>
      <trkpt lat="48.05925" lon="-0.82397">
        <ele>78.1</ele>
        <time>2017-10-29T10:28:50Z</time>
      </trkpt>
      <trkpt lat="48.05917" lon="-0.82396">
        <ele>78.9</ele>
        <time>2017-10-29T10:28:54Z</time>
      </trkpt>
      <trkpt lat="48.05911" lon="-0.82395">
        <ele>79.4</ele>
        <time>2017-10-29T10:28:58Z</time>
      </trkpt>
      <trkpt lat="48.05902" lon="-0.82392">
        <ele>79.9</ele>
        <time>2017-10-29T10:29:02Z</time>
      </trkpt>
      <trkpt lat="48.05893" lon="-0.8239">
        <ele>80.7</ele>
        <time>2017-10-29T10:29:06Z</time>
      </trkpt>
      <trkpt lat="48.05887" lon="-0.82385">
        <ele>81.3</ele>
        <time>2017-10-29T10:29:10Z</time>
      </trkpt>
      <trkpt lat="48.05881" lon="-0.82381">
        <ele>81.3</ele>
        <time>2017-10-29T10:29:14Z</time>
      </trkpt>
      <trkpt lat="48.05875" lon="-0.82375">
        <ele>81.7</ele>
        <time>2017-10-29T10:29:18Z</time>
      </trkpt>
      <trkpt lat="48.05868" lon="-0.8237">
        <ele>81.9</ele>
        <time>2017-10-29T10:29:22Z</time>
      </trkpt>
      <trkpt lat="48.05863" lon="-0.82366">
        <ele>82.2</ele>
        <time>2017-10-29T10:29:26Z</time>
      </trkpt>
      <trkpt lat="48.05857" lon="-0.82363">
        <ele>82.2</ele>
        <time>2017-10-29T10:29:30Z</time>
      </trkpt>
      <trkpt lat="48.05852" lon="-0.82357">
        <ele>82.4</ele>
        <time>2017-10-29T10:29:34Z</time>
      </trkpt>
      <trkpt lat="48.05846" lon="-0.82351">
        <ele>82.8</ele>
        <time>2017-10-29T10:29:38Z</time>
      </trkpt>
      <trkpt lat="48.05839" lon="-0.82343">
        <ele>83.7</ele>
        <time>2017-10-29T10:29:42Z</time>
      </trkpt>
      <trkpt lat="48.05835" lon="-0.82334">
        <ele>85.1</ele>
        <time>2017-10-29T10:29:46Z</time>
      </trkpt>
      <trkpt lat="48.05832" lon="-0.82327">
        <ele>85.7</ele>
        <time>2017-10-29T10:29:50Z</time>
      </trkpt>
      <trkpt lat="48.05828" lon="-0.8232">
        <ele>85.8</ele>
        <time>2017-10-29T10:29:54Z</time>
      </trkpt>
      <trkpt lat="48.05817" lon="-0.82313">
        <ele>84.8</ele>
        <time>2017-10-29T10:29:58Z</time>
      </trkpt>
      <trkpt lat="48.05805" lon="-0.82307">
        <ele>83.8</ele>
        <time>2017-10-29T10:30:02Z</time>
      </trkpt>
      <trkpt lat="48.05793" lon="-0.82298">
        <ele>82.9</ele>
        <time>2017-10-29T10:30:06Z</time>
      </trkpt>
      <trkpt lat="48.05778" lon="-0.82282">
        <ele>82.4</ele>
        <time>2017-10-29T10:30:10Z</time>
      </trkpt>
      <trkpt lat="48.05758" lon="-0.82268">
        <ele>80.3</ele>
        <time>2017-10-29T10:30:14Z</time>
      </trkpt>
      <trkpt lat="48.05735" lon="-0.82257">
        <ele>78.3</ele>
        <time>2017-10-29T10:30:18Z</time>
      </trkpt>
      <trkpt lat="48.05713" lon="-0.82248">
        <ele>75.9</ele>
        <time>2017-10-29T10:30:22Z</time>
      </trkpt>
      <trkpt lat="48.05697" lon="-0.82246">
        <ele>73.9</ele>
        <time>2017-10-29T10:30:26Z</time>
      </trkpt>
      <trkpt lat="48.05675" lon="-0.82252">
        <ele>72.2</ele>
        <time>2017-10-29T10:30:30Z</time>
      </trkpt>
      <trkpt lat="48.05642" lon="-0.82249">
        <ele>71.2</ele>
        <time>2017-10-29T10:30:34Z</time>
      </trkpt>
      <trkpt lat="48.05624" lon="-0.82237">
        <ele>71.9</ele>
        <time>2017-10-29T10:30:38Z</time>
      </trkpt>
      <trkpt lat="48.0561" lon="-0.82229">
        <ele>72.3</ele>
        <time>2017-10-29T10:30:42Z</time>
      </trkpt>
      <trkpt lat="48.05604" lon="-0.82219">
        <ele>73.1</ele>
        <time>2017-10-29T10:30:46Z</time>
      </trkpt>
      <trkpt lat="48.05599" lon="-0.82206">
        <ele>74</ele>
        <time>2017-10-29T10:30:50Z</time>
      </trkpt>
      <trkpt lat="48.05595" lon="-0.82193">
        <ele>74.9</ele>
        <time>2017-10-29T10:30:54Z</time>
      </trkpt>
      <trkpt lat="48.0559" lon="-0.82179">
        <ele>75</ele>
        <time>2017-10-29T10:30:58Z</time>
      </trkpt>
      <trkpt lat="48.05584" lon="-0.82164">
        <ele>75.3</ele>
        <time>2017-10-29T10:31:02Z</time>
      </trkpt>
      <trkpt lat="48.0558" lon="-0.8215">
        <ele>76</ele>
        <time>2017-10-29T10:31:06Z</time>
      </trkpt>
      <trkpt lat="48.05573" lon="-0.82135">
        <ele>76.4</ele>
        <time>2017-10-29T10:31:10Z</time>
      </trkpt>
      <trkpt lat="48.05567" lon="-0.8212">
        <ele>76.5</ele>
        <time>2017-10-29T10:31:14Z</time>
      </trkpt>
      <trkpt lat="48.05561" lon="-0.82107">
        <ele>76.6</ele>
        <time>2017-10-29T10:31:18Z</time>
      </trkpt>
      <trkpt lat="48.05557" lon="-0.82093">
        <ele>76.8</ele>
        <time>2017-10-29T10:31:22Z</time>
      </trkpt>
      <trkpt lat="48.05553" lon="-0.82077">
        <ele>77.1</ele>
        <time>2017-10-29T10:31:26Z</time>
      </trkpt>
      <trkpt lat="48.05547" lon="-0.82063">
        <ele>77.4</ele>
        <time>2017-10-29T10:31:30Z</time>
      </trkpt>
      <trkpt lat="48.05541" lon="-0.82049">
        <ele>77.8</ele>
        <time>2017-10-29T10:31:34Z</time>
      </trkpt>
      <trkpt lat="48.05537" lon="-0.82036">
        <ele>78.3</ele>
        <time>2017-10-29T10:31:38Z</time>
      </trkpt>
      <trkpt lat="48.05533" lon="-0.8202">
        <ele>78.7</ele>
        <time>2017-10-29T10:31:42Z</time>
      </trkpt>
      <trkpt lat="48.05529" lon="-0.82002">
        <ele>79</ele>
        <time>2017-10-29T10:31:46Z</time>
      </trkpt>
      <trkpt lat="48.05526" lon="-0.81987">
        <ele>78.9</ele>
        <time>2017-10-29T10:31:50Z</time>
      </trkpt>
      <trkpt lat="48.0552" lon="-0.81972">
        <ele>78.7</ele>
        <time>2017-10-29T10:31:54Z</time>
      </trkpt>
      <trkpt lat="48.05515" lon="-0.81955">
        <ele>78.9</ele>
        <time>2017-10-29T10:31:58Z</time>
      </trkpt>
      <trkpt lat="48.05514" lon="-0.81941">
        <ele>79.1</ele>
        <time>2017-10-29T10:32:02Z</time>
      </trkpt>
      <trkpt lat="48.05512" lon="-0.81927">
        <ele>79.2</ele>
        <time>2017-10-29T10:32:06Z</time>
      </trkpt>
      <trkpt lat="48.05506" lon="-0.81914">
        <ele>79.3</ele>
        <time>2017-10-29T10:32:10Z</time>
      </trkpt>
      <trkpt lat="48.05504" lon="-0.81901">
        <ele>79.7</ele>
        <time>2017-10-29T10:32:14Z</time>
      </trkpt>
      <trkpt lat="48.05499" lon="-0.81888">
        <ele>80</ele>
        <time>2017-10-29T10:32:18Z</time>
      </trkpt>
      <trkpt lat="48.0549" lon="-0.81876">
        <ele>80.2</ele>
        <time>2017-10-29T10:32:22Z</time>
      </trkpt>
      <trkpt lat="48.05483" lon="-0.81874">
        <ele>80.3</ele>
        <time>2017-10-29T10:32:26Z</time>
      </trkpt>
      <trkpt lat="48.05475" lon="-0.81875">
        <ele>80.4</ele>
        <time>2017-10-29T10:32:30Z</time>
      </trkpt>
      <trkpt lat="48.05468" lon="-0.81875">
        <ele>80.5</ele>
        <time>2017-10-29T10:32:34Z</time>
      </trkpt>
      <trkpt lat="48.05458" lon="-0.81876">
        <ele>80.5</ele>
        <time>2017-10-29T10:32:38Z</time>
      </trkpt>
      <trkpt lat="48.05446" lon="-0.81875">
        <ele>80.5</ele>
        <time>2017-10-29T10:32:42Z</time>
      </trkpt>
      <trkpt lat="48.05434" lon="-0.81873">
        <ele>80.4</ele>
        <time>2017-10-29T10:32:46Z</time>
      </trkpt>
      <trkpt lat="48.05421" lon="-0.81874">
        <ele>80.1</ele>
        <time>2017-10-29T10:32:50Z</time>
      </trkpt>
      <trkpt lat="48.05409" lon="-0.81873">
        <ele>79.9</ele>
        <time>2017-10-29T10:32:54Z</time>
      </trkpt>
      <trkpt lat="48.05396" lon="-0.8186">
        <ele>80.3</ele>
        <time>2017-10-29T10:32:58Z</time>
      </trkpt>
      <trkpt lat="48.05386" lon="-0.8185">
        <ele>80.1</ele>
        <time>2017-10-29T10:33:02Z</time>
      </trkpt>
      <trkpt lat="48.05372" lon="-0.81835">
        <ele>79.7</ele>
        <time>2017-10-29T10:33:06Z</time>
      </trkpt>
      <trkpt lat="48.05358" lon="-0.8181">
        <ele>79.2</ele>
        <time>2017-10-29T10:33:10Z</time>
      </trkpt>
      <trkpt lat="48.0535" lon="-0.81786">
        <ele>78.2</ele>
        <time>2017-10-29T10:33:14Z</time>
      </trkpt>
      <trkpt lat="48.05337" lon="-0.8176">
        <ele>77.1</ele>
        <time>2017-10-29T10:33:18Z</time>
      </trkpt>
      <trkpt lat="48.0532" lon="-0.81744">
        <ele>75.1</ele>
        <time>2017-10-29T10:33:22Z</time>
      </trkpt>
      <trkpt lat="48.05286" lon="-0.8172">
        <ele>73.2</ele>
        <time>2017-10-29T10:33:26Z</time>
      </trkpt>
      <trkpt lat="48.0526" lon="-0.81699">
        <ele>72.7</ele>
        <time>2017-10-29T10:33:30Z</time>
      </trkpt>
      <trkpt lat="48.05238" lon="-0.81682">
        <ele>73.3</ele>
        <time>2017-10-29T10:33:34Z</time>
      </trkpt>
      <trkpt lat="48.05218" lon="-0.8167">
        <ele>74.4</ele>
        <time>2017-10-29T10:33:38Z</time>
      </trkpt>
      <trkpt lat="48.05201" lon="-0.8166">
        <ele>75.3</ele>
        <time>2017-10-29T10:33:42Z</time>
      </trkpt>
      <trkpt lat="48.05187" lon="-0.8165">
        <ele>76.2</ele>
        <time>2017-10-29T10:33:46Z</time>
      </trkpt>
      <trkpt lat="48.05173" lon="-0.81641">
        <ele>77</ele>
        <time>2017-10-29T10:33:50Z</time>
      </trkpt>
      <trkpt lat="48.05157" lon="-0.81625">
        <ele>78.3</ele>
        <time>2017-10-29T10:33:54Z</time>
      </trkpt>
      <trkpt lat="48.0514" lon="-0.81609">
        <ele>79.3</ele>
        <time>2017-10-29T10:33:58Z</time>
      </trkpt>
      <trkpt lat="48.05124" lon="-0.81592">
        <ele>80.1</ele>
        <time>2017-10-29T10:34:02Z</time>
      </trkpt>
      <trkpt lat="48.05104" lon="-0.81577">
        <ele>80.2</ele>
        <time>2017-10-29T10:34:06Z</time>
      </trkpt>
      <trkpt lat="48.05083" lon="-0.81564">
        <ele>80.4</ele>
        <time>2017-10-29T10:34:10Z</time>
      </trkpt>
      <trkpt lat="48.05061" lon="-0.81555">
        <ele>81</ele>
        <time>2017-10-29T10:34:14Z</time>
      </trkpt>
      <trkpt lat="48.05041" lon="-0.81542">
        <ele>81.2</ele>
        <time>2017-10-29T10:34:18Z</time>
      </trkpt>
      <trkpt lat="48.05023" lon="-0.81527">
        <ele>82.1</ele>
        <time>2017-10-29T10:34:22Z</time>
      </trkpt>
      <trkpt lat="48.0501" lon="-0.81512">
        <ele>82.7</ele>
        <time>2017-10-29T10:34:26Z</time>
      </trkpt>
      <trkpt lat="48.04996" lon="-0.81497">
        <ele>83</ele>
        <time>2017-10-29T10:34:30Z</time>
      </trkpt>
      <trkpt lat="48.04984" lon="-0.81483">
        <ele>83</ele>
        <time>2017-10-29T10:34:34Z</time>
      </trkpt>
      <trkpt lat="48.04972" lon="-0.81465">
        <ele>83.2</ele>
        <time>2017-10-29T10:34:38Z</time>
      </trkpt>
      <trkpt lat="48.04959" lon="-0.81451">
        <ele>82.9</ele>
        <time>2017-10-29T10:34:42Z</time>
      </trkpt>
      <trkpt lat="48.0495" lon="-0.81438">
        <ele>82.6</ele>
        <time>2017-10-29T10:34:46Z</time>
      </trkpt>
      <trkpt lat="48.04949" lon="-0.81425">
        <ele>82.9</ele>
        <time>2017-10-29T10:34:50Z</time>
      </trkpt>
      <trkpt lat="48.0495" lon="-0.81415">
        <ele>83.3</ele>
        <time>2017-10-29T10:34:54Z</time>
      </trkpt>
      <trkpt lat="48.04953" lon="-0.81407">
        <ele>83.6</ele>
        <time>2017-10-29T10:34:58Z</time>
      </trkpt>
      <trkpt lat="48.04956" lon="-0.81401">
        <ele>84</ele>
        <time>2017-10-29T10:35:02Z</time>
      </trkpt>
      <trkpt lat="48.04959" lon="-0.81397">
        <ele>84.2</ele>
        <time>2017-10-29T10:35:06Z</time>
      </trkpt>
      <trkpt lat="48.0496" lon="-0.814">
        <ele>84.2</ele>
        <time>2017-10-29T10:35:10Z</time>
      </trkpt>
      <trkpt lat="48.04954" lon="-0.81409">
        <ele>83.6</ele>
        <time>2017-10-29T10:35:14Z</time>
      </trkpt>
      <trkpt lat="48.0495" lon="-0.81421">
        <ele>83.1</ele>
        <time>2017-10-29T10:35:18Z</time>
      </trkpt>
      <trkpt lat="48.04947" lon="-0.81417">
        <ele>83.1</ele>
        <time>2017-10-29T10:35:22Z</time>
      </trkpt>
      <trkpt lat="48.04954" lon="-0.81402">
        <ele>83.9</ele>
        <time>2017-10-29T10:35:26Z</time>
      </trkpt>
      <trkpt lat="48.04961" lon="-0.81381">
        <ele>84.6</ele>
        <time>2017-10-29T10:35:30Z</time>
      </trkpt>
      <trkpt lat="48.04966" lon="-0.81362">
        <ele>84.8</ele>
        <time>2017-10-29T10:35:34Z</time>
      </trkpt>
      <trkpt lat="48.04971" lon="-0.81343">
        <ele>85.6</ele>
        <time>2017-10-29T10:35:38Z</time>
      </trkpt>
      <trkpt lat="48.04974" lon="-0.81323">
        <ele>86.5</ele>
        <time>2017-10-29T10:35:42Z</time>
      </trkpt>
      <trkpt lat="48.04975" lon="-0.81304">
        <ele>87.1</ele>
        <time>2017-10-29T10:35:46Z</time>
      </trkpt>
      <trkpt lat="48.04977" lon="-0.81288">
        <ele>87.3</ele>
        <time>2017-10-29T10:35:50Z</time>
      </trkpt>
      <trkpt lat="48.04977" lon="-0.81273">
        <ele>87.5</ele>
        <time>2017-10-29T10:35:54Z</time>
      </trkpt>
      <trkpt lat="48.04978" lon="-0.81258">
        <ele>88.2</ele>
        <time>2017-10-29T10:35:58Z</time>
      </trkpt>
      <trkpt lat="48.0498" lon="-0.81242">
        <ele>88.8</ele>
        <time>2017-10-29T10:36:02Z</time>
      </trkpt>
      <trkpt lat="48.04981" lon="-0.81228">
        <ele>89.4</ele>
        <time>2017-10-29T10:36:06Z</time>
      </trkpt>
      <trkpt lat="48.04983" lon="-0.81213">
        <ele>90.1</ele>
        <time>2017-10-29T10:36:10Z</time>
      </trkpt>
      <trkpt lat="48.04984" lon="-0.81198">
        <ele>90.8</ele>
        <time>2017-10-29T10:36:14Z</time>
      </trkpt>
      <trkpt lat="48.04987" lon="-0.81183">
        <ele>91.3</ele>
        <time>2017-10-29T10:36:18Z</time>
      </trkpt>
      <trkpt lat="48.04991" lon="-0.81167">
        <ele>92</ele>
        <time>2017-10-29T10:36:22Z</time>
      </trkpt>
      <trkpt lat="48.04993" lon="-0.81152">
        <ele>92.7</ele>
        <time>2017-10-29T10:36:26Z</time>
      </trkpt>
      <trkpt lat="48.04994" lon="-0.81137">
        <ele>93.3</ele>
        <time>2017-10-29T10:36:30Z</time>
      </trkpt>
      <trkpt lat="48.04995" lon="-0.81122">
        <ele>93.6</ele>
        <time>2017-10-29T10:36:34Z</time>
      </trkpt>
      <trkpt lat="48.04997" lon="-0.81108">
        <ele>93.9</ele>
        <time>2017-10-29T10:36:38Z</time>
      </trkpt>
      <trkpt lat="48.04998" lon="-0.81094">
        <ele>94.5</ele>
        <time>2017-10-29T10:36:42Z</time>
      </trkpt>
      <trkpt lat="48.05001" lon="-0.8108">
        <ele>95.3</ele>
        <time>2017-10-29T10:36:46Z</time>
      </trkpt>
      <trkpt lat="48.05004" lon="-0.81067">
        <ele>96.1</ele>
        <time>2017-10-29T10:36:50Z</time>
      </trkpt>
      <trkpt lat="48.05009" lon="-0.81054">
        <ele>97</ele>
        <time>2017-10-29T10:36:54Z</time>
      </trkpt>
      <trkpt lat="48.05015" lon="-0.81039">
        <ele>98.2</ele>
        <time>2017-10-29T10:36:58Z</time>
      </trkpt>
      <trkpt lat="48.05021" lon="-0.81025">
        <ele>99.4</ele>
        <time>2017-10-29T10:37:02Z</time>
      </trkpt>
      <trkpt lat="48.05029" lon="-0.81012">
        <ele>100.7</ele>
        <time>2017-10-29T10:37:06Z</time>
      </trkpt>
      <trkpt lat="48.05036" lon="-0.80998">
        <ele>101.9</ele>
        <time>2017-10-29T10:37:10Z</time>
      </trkpt>
      <trkpt lat="48.05043" lon="-0.80985">
        <ele>103.2</ele>
        <time>2017-10-29T10:37:14Z</time>
      </trkpt>
      <trkpt lat="48.05053" lon="-0.80972">
        <ele>104.7</ele>
        <time>2017-10-29T10:37:18Z</time>
      </trkpt>
      <trkpt lat="48.05061" lon="-0.80958">
        <ele>105.5</ele>
        <time>2017-10-29T10:37:22Z</time>
      </trkpt>
      <trkpt lat="48.0507" lon="-0.80946">
        <ele>106.5</ele>
        <time>2017-10-29T10:37:26Z</time>
      </trkpt>
      <trkpt lat="48.05078" lon="-0.80936">
        <ele>107.8</ele>
        <time>2017-10-29T10:37:30Z</time>
      </trkpt>
      <trkpt lat="48.05086" lon="-0.80928">
        <ele>108.8</ele>
        <time>2017-10-29T10:37:34Z</time>
      </trkpt>
      <trkpt lat="48.05093" lon="-0.80921">
        <ele>109.5</ele>
        <time>2017-10-29T10:37:38Z</time>
      </trkpt>
      <trkpt lat="48.05101" lon="-0.80914">
        <ele>110.3</ele>
        <time>2017-10-29T10:37:42Z</time>
      </trkpt>
      <trkpt lat="48.05108" lon="-0.80907">
        <ele>110.8</ele>
        <time>2017-10-29T10:37:46Z</time>
      </trkpt>
      <trkpt lat="48.05116" lon="-0.80901">
        <ele>111.4</ele>
        <time>2017-10-29T10:37:50Z</time>
      </trkpt>
      <trkpt lat="48.05124" lon="-0.80895">
        <ele>112</ele>
        <time>2017-10-29T10:37:54Z</time>
      </trkpt>
      <trkpt lat="48.05132" lon="-0.80889">
        <ele>112.5</ele>
        <time>2017-10-29T10:37:58Z</time>
      </trkpt>
      <trkpt lat="48.0514" lon="-0.80883">
        <ele>113.1</ele>
        <time>2017-10-29T10:38:02Z</time>
      </trkpt>
      <trkpt lat="48.05148" lon="-0.80878">
        <ele>113.7</ele>
        <time>2017-10-29T10:38:06Z</time>
      </trkpt>
      <trkpt lat="48.05155" lon="-0.80873">
        <ele>114.1</ele>
        <time>2017-10-29T10:38:10Z</time>
      </trkpt>
      <trkpt lat="48.05163" lon="-0.80869">
        <ele>114.7</ele>
        <time>2017-10-29T10:38:14Z</time>
      </trkpt>
      <trkpt lat="48.05171" lon="-0.80867">
        <ele>115.3</ele>
        <time>2017-10-29T10:38:18Z</time>
      </trkpt>
      <trkpt lat="48.05179" lon="-0.80864">
        <ele>115.9</ele>
        <time>2017-10-29T10:38:22Z</time>
      </trkpt>
      <trkpt lat="48.05188" lon="-0.80861">
        <ele>116.6</ele>
        <time>2017-10-29T10:38:26Z</time>
      </trkpt>
      <trkpt lat="48.05197" lon="-0.80856">
        <ele>117.1</ele>
        <time>2017-10-29T10:38:30Z</time>
      </trkpt>
      <trkpt lat="48.05205" lon="-0.80849">
        <ele>117.4</ele>
        <time>2017-10-29T10:38:34Z</time>
      </trkpt>
      <trkpt lat="48.05215" lon="-0.80836">
        <ele>117.7</ele>
        <time>2017-10-29T10:38:38Z</time>
      </trkpt>
      <trkpt lat="48.05223" lon="-0.80822">
        <ele>117.6</ele>
        <time>2017-10-29T10:38:42Z</time>
      </trkpt>
      <trkpt lat="48.05231" lon="-0.80807">
        <ele>117.1</ele>
        <time>2017-10-29T10:38:46Z</time>
      </trkpt>
      <trkpt lat="48.0524" lon="-0.8079">
        <ele>116.6</ele>
        <time>2017-10-29T10:38:50Z</time>
      </trkpt>
      <trkpt lat="48.0525" lon="-0.80769">
        <ele>116</ele>
        <time>2017-10-29T10:38:54Z</time>
      </trkpt>
      <trkpt lat="48.0526" lon="-0.80748">
        <ele>116</ele>
        <time>2017-10-29T10:38:58Z</time>
      </trkpt>
      <trkpt lat="48.0527" lon="-0.80726">
        <ele>116</ele>
        <time>2017-10-29T10:39:02Z</time>
      </trkpt>
      <trkpt lat="48.05281" lon="-0.80702">
        <ele>115.4</ele>
        <time>2017-10-29T10:39:06Z</time>
      </trkpt>
      <trkpt lat="48.05293" lon="-0.80679">
        <ele>115.2</ele>
        <time>2017-10-29T10:39:10Z</time>
      </trkpt>
      <trkpt lat="48.05303" lon="-0.80655">
        <ele>115</ele>
        <time>2017-10-29T10:39:14Z</time>
      </trkpt>
      <trkpt lat="48.05314" lon="-0.80633">
        <ele>114.9</ele>
        <time>2017-10-29T10:39:18Z</time>
      </trkpt>
      <trkpt lat="48.05323" lon="-0.80612">
        <ele>114.6</ele>
        <time>2017-10-29T10:39:22Z</time>
      </trkpt>
      <trkpt lat="48.05332" lon="-0.80593">
        <ele>115</ele>
        <time>2017-10-29T10:39:26Z</time>
      </trkpt>
      <trkpt lat="48.05339" lon="-0.80572">
        <ele>114.8</ele>
        <time>2017-10-29T10:39:30Z</time>
      </trkpt>
      <trkpt lat="48.05346" lon="-0.8055">
        <ele>114.8</ele>
        <time>2017-10-29T10:39:34Z</time>
      </trkpt>
      <trkpt lat="48.05352" lon="-0.80528">
        <ele>114.7</ele>
        <time>2017-10-29T10:39:38Z</time>
      </trkpt>
      <trkpt lat="48.05359" lon="-0.80508">
        <ele>114.9</ele>
        <time>2017-10-29T10:39:42Z</time>
      </trkpt>
      <trkpt lat="48.05365" lon="-0.80487">
        <ele>115.1</ele>
        <time>2017-10-29T10:39:46Z</time>
      </trkpt>
      <trkpt lat="48.05371" lon="-0.80466">
        <ele>115.3</ele>
        <time>2017-10-29T10:39:50Z</time>
      </trkpt>
      <trkpt lat="48.05376" lon="-0.8044">
        <ele>115.5</ele>
        <time>2017-10-29T10:39:54Z</time>
      </trkpt>
      <trkpt lat="48.05385" lon="-0.80404">
        <ele>115.9</ele>
        <time>2017-10-29T10:39:58Z</time>
      </trkpt>
      <trkpt lat="48.05396" lon="-0.80366">
        <ele>116</ele>
        <time>2017-10-29T10:40:02Z</time>
      </trkpt>
      <trkpt lat="48.05407" lon="-0.80326">
        <ele>116.3</ele>
        <time>2017-10-29T10:40:06Z</time>
      </trkpt>
      <trkpt lat="48.05421" lon="-0.80288">
        <ele>117</ele>
        <time>2017-10-29T10:40:10Z</time>
      </trkpt>
      <trkpt lat="48.05435" lon="-0.8025">
        <ele>117</ele>
        <time>2017-10-29T10:40:14Z</time>
      </trkpt>
      <trkpt lat="48.0545" lon="-0.80213">
        <ele>117.5</ele>
        <time>2017-10-29T10:40:18Z</time>
      </trkpt>
      <trkpt lat="48.05463" lon="-0.80177">
        <ele>118.4</ele>
        <time>2017-10-29T10:40:22Z</time>
      </trkpt>
      <trkpt lat="48.05477" lon="-0.80142">
        <ele>119.2</ele>
        <time>2017-10-29T10:40:26Z</time>
      </trkpt>
      <trkpt lat="48.05489" lon="-0.80109">
        <ele>119.6</ele>
        <time>2017-10-29T10:40:30Z</time>
      </trkpt>
      <trkpt lat="48.05501" lon="-0.80077">
        <ele>120.2</ele>
        <time>2017-10-29T10:40:34Z</time>
      </trkpt>
      <trkpt lat="48.05512" lon="-0.80046">
        <ele>121</ele>
        <time>2017-10-29T10:40:38Z</time>
      </trkpt>
      <trkpt lat="48.05518" lon="-0.80015">
        <ele>121.3</ele>
        <time>2017-10-29T10:40:42Z</time>
      </trkpt>
      <trkpt lat="48.05517" lon="-0.79984">
        <ele>121.6</ele>
        <time>2017-10-29T10:40:46Z</time>
      </trkpt>
      <trkpt lat="48.05515" lon="-0.79953">
        <ele>121.6</ele>
        <time>2017-10-29T10:40:50Z</time>
      </trkpt>
      <trkpt lat="48.05507" lon="-0.79923">
        <ele>121.8</ele>
        <time>2017-10-29T10:40:54Z</time>
      </trkpt>
      <trkpt lat="48.05496" lon="-0.79894">
        <ele>122</ele>
        <time>2017-10-29T10:40:58Z</time>
      </trkpt>
      <trkpt lat="48.05484" lon="-0.79863">
        <ele>122</ele>
        <time>2017-10-29T10:41:02Z</time>
      </trkpt>
      <trkpt lat="48.05472" lon="-0.7983">
        <ele>122</ele>
        <time>2017-10-29T10:41:06Z</time>
      </trkpt>
      <trkpt lat="48.05458" lon="-0.79795">
        <ele>121.7</ele>
        <time>2017-10-29T10:41:10Z</time>
      </trkpt>
      <trkpt lat="48.05442" lon="-0.79761">
        <ele>122</ele>
        <time>2017-10-29T10:41:14Z</time>
      </trkpt>
      <trkpt lat="48.05426" lon="-0.79726">
        <ele>122.3</ele>
        <time>2017-10-29T10:41:18Z</time>
      </trkpt>
      <trkpt lat="48.05408" lon="-0.79691">
        <ele>122</ele>
        <time>2017-10-29T10:41:22Z</time>
      </trkpt>
      <trkpt lat="48.05391" lon="-0.79655">
        <ele>122</ele>
        <time>2017-10-29T10:41:26Z</time>
      </trkpt>
      <trkpt lat="48.05373" lon="-0.7962">
        <ele>122.3</ele>
        <time>2017-10-29T10:41:30Z</time>
      </trkpt>
      <trkpt lat="48.05356" lon="-0.79584">
        <ele>122.8</ele>
        <time>2017-10-29T10:41:34Z</time>
      </trkpt>
      <trkpt lat="48.05339" lon="-0.79548">
        <ele>122</ele>
        <time>2017-10-29T10:41:38Z</time>
      </trkpt>
      <trkpt lat="48.05324" lon="-0.79523">
        <ele>122.1</ele>
        <time>2017-10-29T10:41:42Z</time>
      </trkpt>
      <trkpt lat="48.05309" lon="-0.79534">
        <ele>122</ele>
        <time>2017-10-29T10:41:46Z</time>
      </trkpt>
      <trkpt lat="48.05291" lon="-0.79553">
        <ele>122</ele>
        <time>2017-10-29T10:41:50Z</time>
      </trkpt>
      <trkpt lat="48.05268" lon="-0.79567">
        <ele>122</ele>
        <time>2017-10-29T10:41:54Z</time>
      </trkpt>
      <trkpt lat="48.05242" lon="-0.79564">
        <ele>122</ele>
        <time>2017-10-29T10:41:58Z</time>
      </trkpt>
      <trkpt lat="48.05218" lon="-0.79559">
        <ele>121.9</ele>
        <time>2017-10-29T10:42:02Z</time>
      </trkpt>
      <trkpt lat="48.05209" lon="-0.79567">
        <ele>121.7</ele>
        <time>2017-10-29T10:42:06Z</time>
      </trkpt>
      <trkpt lat="48.05209" lon="-0.79574">
        <ele>121.8</ele>
        <time>2017-10-29T10:42:10Z</time>
      </trkpt>
      <trkpt lat="48.05204" lon="-0.79575">
        <ele>121.8</ele>
        <time>2017-10-29T10:45:46Z</time>
      </trkpt>
      <trkpt lat="48.05196" lon="-0.79576">
        <ele>121.8</ele>
        <time>2017-10-29T10:45:50Z</time>
      </trkpt>
      <trkpt lat="48.05184" lon="-0.79588">
        <ele>121.6</ele>
        <time>2017-10-29T10:45:54Z</time>
      </trkpt>
      <trkpt lat="48.05171" lon="-0.79609">
        <ele>121.2</ele>
        <time>2017-10-29T10:45:58Z</time>
      </trkpt>
      <trkpt lat="48.05155" lon="-0.79628">
        <ele>121</ele>
        <time>2017-10-29T10:46:02Z</time>
      </trkpt>
      <trkpt lat="48.05136" lon="-0.79647">
        <ele>121</ele>
        <time>2017-10-29T10:46:06Z</time>
      </trkpt>
      <trkpt lat="48.05116" lon="-0.79667">
        <ele>120.2</ele>
        <time>2017-10-29T10:46:10Z</time>
      </trkpt>
      <trkpt lat="48.05095" lon="-0.79689">
        <ele>120</ele>
        <time>2017-10-29T10:46:14Z</time>
      </trkpt>
      <trkpt lat="48.05073" lon="-0.79711">
        <ele>119.4</ele>
        <time>2017-10-29T10:46:18Z</time>
      </trkpt>
      <trkpt lat="48.05051" lon="-0.79732">
        <ele>119.1</ele>
        <time>2017-10-29T10:46:22Z</time>
      </trkpt>
      <trkpt lat="48.0503" lon="-0.79754">
        <ele>119</ele>
        <time>2017-10-29T10:46:26Z</time>
      </trkpt>
      <trkpt lat="48.0501" lon="-0.79772">
        <ele>119.1</ele>
        <time>2017-10-29T10:46:30Z</time>
      </trkpt>
      <trkpt lat="48.04993" lon="-0.79789">
        <ele>119.2</ele>
        <time>2017-10-29T10:46:34Z</time>
      </trkpt>
      <trkpt lat="48.04988" lon="-0.79816">
        <ele>118.8</ele>
        <time>2017-10-29T10:46:38Z</time>
      </trkpt>
      <trkpt lat="48.04996" lon="-0.79844">
        <ele>118.1</ele>
        <time>2017-10-29T10:46:42Z</time>
      </trkpt>
      <trkpt lat="48.05003" lon="-0.79875">
        <ele>117.4</ele>
        <time>2017-10-29T10:46:46Z</time>
      </trkpt>
      <trkpt lat="48.04994" lon="-0.79906">
        <ele>117.2</ele>
        <time>2017-10-29T10:46:50Z</time>
      </trkpt>
      <trkpt lat="48.04975" lon="-0.79919">
        <ele>117.8</ele>
        <time>2017-10-29T10:46:54Z</time>
      </trkpt>
      <trkpt lat="48.04965" lon="-0.79925">
        <ele>117.9</ele>
        <time>2017-10-29T10:46:58Z</time>
      </trkpt>
      <trkpt lat="48.04964" lon="-0.79923">
        <ele>118.1</ele>
        <time>2017-10-29T10:47:02Z</time>
      </trkpt>
      <trkpt lat="48.04963" lon="-0.79919">
        <ele>118.2</ele>
        <time>2017-10-29T10:47:14Z</time>
      </trkpt>
      <trkpt lat="48.0496" lon="-0.79913">
        <ele>118.4</ele>
        <time>2017-10-29T10:47:18Z</time>
      </trkpt>
      <trkpt lat="48.04957" lon="-0.79903">
        <ele>118.5</ele>
        <time>2017-10-29T10:47:22Z</time>
      </trkpt>
      <trkpt lat="48.04954" lon="-0.79894">
        <ele>118.7</ele>
        <time>2017-10-29T10:47:26Z</time>
      </trkpt>
      <trkpt lat="48.04949" lon="-0.79883">
        <ele>118.8</ele>
        <time>2017-10-29T10:47:30Z</time>
      </trkpt>
      <trkpt lat="48.04944" lon="-0.79869">
        <ele>119</ele>
        <time>2017-10-29T10:47:34Z</time>
      </trkpt>
      <trkpt lat="48.04939" lon="-0.79851">
        <ele>119.2</ele>
        <time>2017-10-29T10:47:38Z</time>
      </trkpt>
      <trkpt lat="48.04933" lon="-0.79832">
        <ele>119.4</ele>
        <time>2017-10-29T10:47:42Z</time>
      </trkpt>
      <trkpt lat="48.04927" lon="-0.79815">
        <ele>119.9</ele>
        <time>2017-10-29T10:47:46Z</time>
      </trkpt>
      <trkpt lat="48.04921" lon="-0.79799">
        <ele>120</ele>
        <time>2017-10-29T10:47:50Z</time>
      </trkpt>
      <trkpt lat="48.04914" lon="-0.79783">
        <ele>120.1</ele>
        <time>2017-10-29T10:47:54Z</time>
      </trkpt>
      <trkpt lat="48.04909" lon="-0.79768">
        <ele>120.5</ele>
        <time>2017-10-29T10:47:58Z</time>
      </trkpt>
      <trkpt lat="48.04904" lon="-0.79755">
        <ele>120.9</ele>
        <time>2017-10-29T10:48:02Z</time>
      </trkpt>
      <trkpt lat="48.04899" lon="-0.79743">
        <ele>121</ele>
        <time>2017-10-29T10:48:06Z</time>
      </trkpt>
      <trkpt lat="48.04895" lon="-0.7973">
        <ele>121</ele>
        <time>2017-10-29T10:48:10Z</time>
      </trkpt>
      <trkpt lat="48.04891" lon="-0.79715">
        <ele>121.2</ele>
        <time>2017-10-29T10:48:14Z</time>
      </trkpt>
      <trkpt lat="48.04885" lon="-0.79707">
        <ele>121.6</ele>
        <time>2017-10-29T10:48:18Z</time>
      </trkpt>
      <trkpt lat="48.04881" lon="-0.79717">
        <ele>121.4</ele>
        <time>2017-10-29T10:48:22Z</time>
      </trkpt>
      <trkpt lat="48.04886" lon="-0.7973">
        <ele>121.1</ele>
        <time>2017-10-29T10:48:26Z</time>
      </trkpt>
      <trkpt lat="48.04891" lon="-0.79744">
        <ele>121</ele>
        <time>2017-10-29T10:48:30Z</time>
      </trkpt>
      <trkpt lat="48.04896" lon="-0.7976">
        <ele>120.9</ele>
        <time>2017-10-29T10:48:34Z</time>
      </trkpt>
      <trkpt lat="48.04902" lon="-0.79776">
        <ele>120.5</ele>
        <time>2017-10-29T10:48:38Z</time>
      </trkpt>
      <trkpt lat="48.04909" lon="-0.79794">
        <ele>120.1</ele>
        <time>2017-10-29T10:48:42Z</time>
      </trkpt>
      <trkpt lat="48.04916" lon="-0.79812">
        <ele>120</ele>
        <time>2017-10-29T10:48:46Z</time>
      </trkpt>
      <trkpt lat="48.04922" lon="-0.79831">
        <ele>119.8</ele>
        <time>2017-10-29T10:48:50Z</time>
      </trkpt>
      <trkpt lat="48.04928" lon="-0.7985">
        <ele>119.6</ele>
        <time>2017-10-29T10:48:54Z</time>
      </trkpt>
      <trkpt lat="48.04935" lon="-0.79871">
        <ele>119.3</ele>
        <time>2017-10-29T10:48:58Z</time>
      </trkpt>
      <trkpt lat="48.04943" lon="-0.79892">
        <ele>119</ele>
        <time>2017-10-29T10:49:02Z</time>
      </trkpt>
      <trkpt lat="48.04951" lon="-0.79913">
        <ele>118.8</ele>
        <time>2017-10-29T10:49:06Z</time>
      </trkpt>
      <trkpt lat="48.04949" lon="-0.79931">
        <ele>118.3</ele>
        <time>2017-10-29T10:49:10Z</time>
      </trkpt>
      <trkpt lat="48.04939" lon="-0.79942">
        <ele>118.4</ele>
        <time>2017-10-29T10:49:14Z</time>
      </trkpt>
      <trkpt lat="48.04928" lon="-0.79953">
        <ele>119</ele>
        <time>2017-10-29T10:49:18Z</time>
      </trkpt>
      <trkpt lat="48.04917" lon="-0.79964">
        <ele>119.3</ele>
        <time>2017-10-29T10:49:22Z</time>
      </trkpt>
      <trkpt lat="48.04906" lon="-0.79974">
        <ele>119.4</ele>
        <time>2017-10-29T10:49:26Z</time>
      </trkpt>
      <trkpt lat="48.04897" lon="-0.79983">
        <ele>119.8</ele>
        <time>2017-10-29T10:49:30Z</time>
      </trkpt>
      <trkpt lat="48.04888" lon="-0.79991">
        <ele>120</ele>
        <time>2017-10-29T10:49:34Z</time>
      </trkpt>
      <trkpt lat="48.04879" lon="-0.8">
        <ele>120.3</ele>
        <time>2017-10-29T10:49:38Z</time>
      </trkpt>
      <trkpt lat="48.0487" lon="-0.80009">
        <ele>120.5</ele>
        <time>2017-10-29T10:49:42Z</time>
      </trkpt>
      <trkpt lat="48.04862" lon="-0.80015">
        <ele>120.5</ele>
        <time>2017-10-29T10:49:46Z</time>
      </trkpt>
      <trkpt lat="48.04855" lon="-0.80008">
        <ele>120.7</ele>
        <time>2017-10-29T10:49:50Z</time>
      </trkpt>
      <trkpt lat="48.04849" lon="-0.79997">
        <ele>121</ele>
        <time>2017-10-29T10:49:54Z</time>
      </trkpt>
      <trkpt lat="48.04843" lon="-0.79984">
        <ele>121</ele>
        <time>2017-10-29T10:49:58Z</time>
      </trkpt>
      <trkpt lat="48.04837" lon="-0.79972">
        <ele>121</ele>
        <time>2017-10-29T10:50:02Z</time>
      </trkpt>
      <trkpt lat="48.04831" lon="-0.79959">
        <ele>121</ele>
        <time>2017-10-29T10:50:06Z</time>
      </trkpt>
      <trkpt lat="48.04824" lon="-0.79946">
        <ele>121</ele>
        <time>2017-10-29T10:50:10Z</time>
      </trkpt>
      <trkpt lat="48.04818" lon="-0.79932">
        <ele>121</ele>
        <time>2017-10-29T10:50:14Z</time>
      </trkpt>
      <trkpt lat="48.04812" lon="-0.7992">
        <ele>121</ele>
        <time>2017-10-29T10:50:18Z</time>
      </trkpt>
      <trkpt lat="48.04806" lon="-0.79905">
        <ele>121</ele>
        <time>2017-10-29T10:50:22Z</time>
      </trkpt>
      <trkpt lat="48.04806" lon="-0.79891">
        <ele>121</ele>
        <time>2017-10-29T10:50:26Z</time>
      </trkpt>
      <trkpt lat="48.04811" lon="-0.79884">
        <ele>121</ele>
        <time>2017-10-29T10:50:30Z</time>
      </trkpt>
      <trkpt lat="48.04819" lon="-0.79876">
        <ele>121</ele>
        <time>2017-10-29T10:50:34Z</time>
      </trkpt>
      <trkpt lat="48.04822" lon="-0.79862">
        <ele>121</ele>
        <time>2017-10-29T10:50:38Z</time>
      </trkpt>
      <trkpt lat="48.04818" lon="-0.79845">
        <ele>121.3</ele>
        <time>2017-10-29T10:50:42Z</time>
      </trkpt>
      <trkpt lat="48.04814" lon="-0.79828">
        <ele>121.7</ele>
        <time>2017-10-29T10:50:46Z</time>
      </trkpt>
      <trkpt lat="48.0481" lon="-0.79812">
        <ele>122</ele>
        <time>2017-10-29T10:50:50Z</time>
      </trkpt>
      <trkpt lat="48.04805" lon="-0.79796">
        <ele>122</ele>
        <time>2017-10-29T10:50:54Z</time>
      </trkpt>
      <trkpt lat="48.04802" lon="-0.79782">
        <ele>122</ele>
        <time>2017-10-29T10:50:58Z</time>
      </trkpt>
      <trkpt lat="48.04793" lon="-0.79777">
        <ele>122</ele>
        <time>2017-10-29T10:51:02Z</time>
      </trkpt>
      <trkpt lat="48.04782" lon="-0.79783">
        <ele>122</ele>
        <time>2017-10-29T10:51:06Z</time>
      </trkpt>
      <trkpt lat="48.04769" lon="-0.79792">
        <ele>122</ele>
        <time>2017-10-29T10:51:10Z</time>
      </trkpt>
      <trkpt lat="48.04756" lon="-0.79801">
        <ele>122</ele>
        <time>2017-10-29T10:51:14Z</time>
      </trkpt>
      <trkpt lat="48.04742" lon="-0.79811">
        <ele>121.6</ele>
        <time>2017-10-29T10:51:18Z</time>
      </trkpt>
      <trkpt lat="48.04727" lon="-0.79822">
        <ele>121.1</ele>
        <time>2017-10-29T10:51:22Z</time>
      </trkpt>
      <trkpt lat="48.04713" lon="-0.79833">
        <ele>121</ele>
        <time>2017-10-29T10:51:26Z</time>
      </trkpt>
      <trkpt lat="48.04699" lon="-0.79844">
        <ele>121</ele>
        <time>2017-10-29T10:51:30Z</time>
      </trkpt>
      <trkpt lat="48.04683" lon="-0.79855">
        <ele>120.6</ele>
        <time>2017-10-29T10:51:34Z</time>
      </trkpt>
      <trkpt lat="48.04668" lon="-0.79867">
        <ele>120</ele>
        <time>2017-10-29T10:51:38Z</time>
      </trkpt>
      <trkpt lat="48.04652" lon="-0.79879">
        <ele>120</ele>
        <time>2017-10-29T10:51:42Z</time>
      </trkpt>
      <trkpt lat="48.04635" lon="-0.79892">
        <ele>120</ele>
        <time>2017-10-29T10:51:46Z</time>
      </trkpt>
      <trkpt lat="48.04618" lon="-0.79904">
        <ele>119.6</ele>
        <time>2017-10-29T10:51:50Z</time>
      </trkpt>
      <trkpt lat="48.04601" lon="-0.79915">
        <ele>119</ele>
        <time>2017-10-29T10:51:54Z</time>
      </trkpt>
      <trkpt lat="48.04583" lon="-0.79928">
        <ele>119</ele>
        <time>2017-10-29T10:51:58Z</time>
      </trkpt>
      <trkpt lat="48.04563" lon="-0.79942">
        <ele>117.7</ele>
        <time>2017-10-29T10:52:02Z</time>
      </trkpt>
      <trkpt lat="48.04541" lon="-0.79957">
        <ele>118</ele>
        <time>2017-10-29T10:52:06Z</time>
      </trkpt>
      <trkpt lat="48.04516" lon="-0.79973">
        <ele>116.7</ele>
        <time>2017-10-29T10:52:10Z</time>
      </trkpt>
      <trkpt lat="48.04491" lon="-0.7999">
        <ele>116.1</ele>
        <time>2017-10-29T10:52:14Z</time>
      </trkpt>
      <trkpt lat="48.04473" lon="-0.79998">
        <ele>114.2</ele>
        <time>2017-10-29T10:52:18Z</time>
      </trkpt>
      <trkpt lat="48.04467" lon="-0.7998">
        <ele>116.1</ele>
        <time>2017-10-29T10:52:22Z</time>
      </trkpt>
      <trkpt lat="48.04459" lon="-0.79959">
        <ele>116.1</ele>
        <time>2017-10-29T10:52:26Z</time>
      </trkpt>
      <trkpt lat="48.04453" lon="-0.79936">
        <ele>115.1</ele>
        <time>2017-10-29T10:52:30Z</time>
      </trkpt>
      <trkpt lat="48.04437" lon="-0.79942">
        <ele>113.3</ele>
        <time>2017-10-29T10:52:34Z</time>
      </trkpt>
      <trkpt lat="48.0442" lon="-0.79952">
        <ele>113.4</ele>
        <time>2017-10-29T10:52:38Z</time>
      </trkpt>
      <trkpt lat="48.044" lon="-0.79962">
        <ele>112.5</ele>
        <time>2017-10-29T10:52:42Z</time>
      </trkpt>
      <trkpt lat="48.04378" lon="-0.79974">
        <ele>111.2</ele>
        <time>2017-10-29T10:52:46Z</time>
      </trkpt>
      <trkpt lat="48.04354" lon="-0.79986">
        <ele>110.9</ele>
        <time>2017-10-29T10:52:50Z</time>
      </trkpt>
      <trkpt lat="48.04327" lon="-0.79999">
        <ele>107.8</ele>
        <time>2017-10-29T10:52:54Z</time>
      </trkpt>
      <trkpt lat="48.04299" lon="-0.80013">
        <ele>107.6</ele>
        <time>2017-10-29T10:52:58Z</time>
      </trkpt>
      <trkpt lat="48.04271" lon="-0.80028">
        <ele>106.8</ele>
        <time>2017-10-29T10:53:02Z</time>
      </trkpt>
      <trkpt lat="48.04246" lon="-0.80042">
        <ele>106.9</ele>
        <time>2017-10-29T10:53:06Z</time>
      </trkpt>
      <trkpt lat="48.04224" lon="-0.80053">
        <ele>106.1</ele>
        <time>2017-10-29T10:53:10Z</time>
      </trkpt>
      <trkpt lat="48.04202" lon="-0.80064">
        <ele>106.3</ele>
        <time>2017-10-29T10:53:14Z</time>
      </trkpt>
      <trkpt lat="48.04179" lon="-0.80075">
        <ele>105.8</ele>
        <time>2017-10-29T10:53:18Z</time>
      </trkpt>
      <trkpt lat="48.04152" lon="-0.80076">
        <ele>104.5</ele>
        <time>2017-10-29T10:53:22Z</time>
      </trkpt>
      <trkpt lat="48.04126" lon="-0.8006">
        <ele>103.6</ele>
        <time>2017-10-29T10:53:26Z</time>
      </trkpt>
      <trkpt lat="48.04101" lon="-0.80034">
        <ele>101.8</ele>
        <time>2017-10-29T10:53:30Z</time>
      </trkpt>
      <trkpt lat="48.0408" lon="-0.80016">
        <ele>100.8</ele>
        <time>2017-10-29T10:53:34Z</time>
      </trkpt>
      <trkpt lat="48.04063" lon="-0.80009">
        <ele>99.5</ele>
        <time>2017-10-29T10:53:38Z</time>
      </trkpt>
      <trkpt lat="48.04054" lon="-0.79953">
        <ele>98.9</ele>
        <time>2017-10-29T10:53:43Z</time>
      </trkpt>
      <trkpt lat="48.04054" lon="-0.79927">
        <ele>98.2</ele>
        <time>2017-10-29T10:53:50Z</time>
      </trkpt>
      <trkpt lat="48.04052" lon="-0.79903">
        <ele>97.8</ele>
        <time>2017-10-29T10:53:54Z</time>
      </trkpt>
      <trkpt lat="48.04048" lon="-0.79878">
        <ele>97.1</ele>
        <time>2017-10-29T10:53:58Z</time>
      </trkpt>
      <trkpt lat="48.04046" lon="-0.79852">
        <ele>96</ele>
        <time>2017-10-29T10:54:02Z</time>
      </trkpt>
      <trkpt lat="48.04038" lon="-0.7983">
        <ele>94.6</ele>
        <time>2017-10-29T10:54:06Z</time>
      </trkpt>
      <trkpt lat="48.0403" lon="-0.79807">
        <ele>93.2</ele>
        <time>2017-10-29T10:54:10Z</time>
      </trkpt>
      <trkpt lat="48.04024" lon="-0.79782">
        <ele>91.9</ele>
        <time>2017-10-29T10:54:14Z</time>
      </trkpt>
      <trkpt lat="48.0402" lon="-0.79766">
        <ele>90.5</ele>
        <time>2017-10-29T10:54:18Z</time>
      </trkpt>
      <trkpt lat="48.04023" lon="-0.7976">
        <ele>90.4</ele>
        <time>2017-10-29T10:54:22Z</time>
      </trkpt>
      <trkpt lat="48.0403" lon="-0.79756">
        <ele>90.6</ele>
        <time>2017-10-29T10:54:26Z</time>
      </trkpt>
      <trkpt lat="48.0404" lon="-0.7975">
        <ele>90.9</ele>
        <time>2017-10-29T10:54:30Z</time>
      </trkpt>
      <trkpt lat="48.0405" lon="-0.79744">
        <ele>91.4</ele>
        <time>2017-10-29T10:54:34Z</time>
      </trkpt>
      <trkpt lat="48.04061" lon="-0.79738">
        <ele>92</ele>
        <time>2017-10-29T10:54:38Z</time>
      </trkpt>
      <trkpt lat="48.04058" lon="-0.79725">
        <ele>91.3</ele>
        <time>2017-10-29T10:54:42Z</time>
      </trkpt>
      <trkpt lat="48.04052" lon="-0.79702">
        <ele>90</ele>
        <time>2017-10-29T10:54:46Z</time>
      </trkpt>
      <trkpt lat="48.04048" lon="-0.79688">
        <ele>89.5</ele>
        <time>2017-10-29T10:54:50Z</time>
      </trkpt>
      <trkpt lat="48.04044" lon="-0.79679">
        <ele>89.4</ele>
        <time>2017-10-29T10:54:54Z</time>
      </trkpt>
      <trkpt lat="48.04043" lon="-0.79671">
        <ele>89.5</ele>
        <time>2017-10-29T10:54:58Z</time>
      </trkpt>
      <trkpt lat="48.04041" lon="-0.79663">
        <ele>89.7</ele>
        <time>2017-10-29T10:55:10Z</time>
      </trkpt>
      <trkpt lat="48.04037" lon="-0.79658">
        <ele>90</ele>
        <time>2017-10-29T10:55:14Z</time>
      </trkpt>
      <trkpt lat="48.04032" lon="-0.79651">
        <ele>90.3</ele>
        <time>2017-10-29T10:55:18Z</time>
      </trkpt>
      <trkpt lat="48.04029" lon="-0.79642">
        <ele>90.8</ele>
        <time>2017-10-29T10:55:22Z</time>
      </trkpt>
      <trkpt lat="48.04028" lon="-0.79633">
        <ele>91.9</ele>
        <time>2017-10-29T10:55:26Z</time>
      </trkpt>
      <trkpt lat="48.04025" lon="-0.79624">
        <ele>93</ele>
        <time>2017-10-29T10:55:30Z</time>
      </trkpt>
      <trkpt lat="48.04025" lon="-0.79614">
        <ele>94.4</ele>
        <time>2017-10-29T10:55:34Z</time>
      </trkpt>
      <trkpt lat="48.04027" lon="-0.79609">
        <ele>95.2</ele>
        <time>2017-10-29T10:55:38Z</time>
      </trkpt>
      <trkpt lat="48.04031" lon="-0.79604">
        <ele>95.9</ele>
        <time>2017-10-29T10:55:42Z</time>
      </trkpt>
      <trkpt lat="48.04035" lon="-0.79598">
        <ele>96.7</ele>
        <time>2017-10-29T10:55:46Z</time>
      </trkpt>
      <trkpt lat="48.04038" lon="-0.79591">
        <ele>97.5</ele>
        <time>2017-10-29T10:55:54Z</time>
      </trkpt>
      <trkpt lat="48.04039" lon="-0.79586">
        <ele>98.2</ele>
        <time>2017-10-29T10:55:58Z</time>
      </trkpt>
      <trkpt lat="48.04043" lon="-0.7958">
        <ele>98.7</ele>
        <time>2017-10-29T10:56:02Z</time>
      </trkpt>
      <trkpt lat="48.04049" lon="-0.79578">
        <ele>99.1</ele>
        <time>2017-10-29T10:56:06Z</time>
      </trkpt>
      <trkpt lat="48.04052" lon="-0.79575">
        <ele>99.5</ele>
        <time>2017-10-29T10:56:10Z</time>
      </trkpt>
      <trkpt lat="48.0406" lon="-0.79571">
        <ele>100.2</ele>
        <time>2017-10-29T10:56:14Z</time>
      </trkpt>
      <trkpt lat="48.04066" lon="-0.79565">
        <ele>101.1</ele>
        <time>2017-10-29T10:56:18Z</time>
      </trkpt>
      <trkpt lat="48.04068" lon="-0.79556">
        <ele>101.9</ele>
        <time>2017-10-29T10:56:22Z</time>
      </trkpt>
      <trkpt lat="48.04066" lon="-0.79549">
        <ele>102</ele>
        <time>2017-10-29T10:56:26Z</time>
      </trkpt>
      <trkpt lat="48.04067" lon="-0.79538">
        <ele>102.5</ele>
        <time>2017-10-29T10:56:30Z</time>
      </trkpt>
      <trkpt lat="48.04066" lon="-0.7953">
        <ele>102.7</ele>
        <time>2017-10-29T10:56:34Z</time>
      </trkpt>
      <trkpt lat="48.04064" lon="-0.7952">
        <ele>102.9</ele>
        <time>2017-10-29T10:56:38Z</time>
      </trkpt>
      <trkpt lat="48.04062" lon="-0.79513">
        <ele>103</ele>
        <time>2017-10-29T10:56:42Z</time>
      </trkpt>
      <trkpt lat="48.04059" lon="-0.79504">
        <ele>103.1</ele>
        <time>2017-10-29T10:56:46Z</time>
      </trkpt>
      <trkpt lat="48.04058" lon="-0.79493">
        <ele>103.4</ele>
        <time>2017-10-29T10:56:50Z</time>
      </trkpt>
      <trkpt lat="48.04057" lon="-0.79481">
        <ele>103.8</ele>
        <time>2017-10-29T10:56:54Z</time>
      </trkpt>
      <trkpt lat="48.04056" lon="-0.79471">
        <ele>104</ele>
        <time>2017-10-29T10:56:58Z</time>
      </trkpt>
      <trkpt lat="48.04052" lon="-0.79461">
        <ele>104.2</ele>
        <time>2017-10-29T10:57:02Z</time>
      </trkpt>
      <trkpt lat="48.04049" lon="-0.7945">
        <ele>104.5</ele>
        <time>2017-10-29T10:57:06Z</time>
      </trkpt>
      <trkpt lat="48.04049" lon="-0.79436">
        <ele>105.3</ele>
        <time>2017-10-29T10:57:10Z</time>
      </trkpt>
      <trkpt lat="48.04046" lon="-0.79419">
        <ele>106.2</ele>
        <time>2017-10-29T10:57:14Z</time>
      </trkpt>
      <trkpt lat="48.04042" lon="-0.79404">
        <ele>106.3</ele>
        <time>2017-10-29T10:57:18Z</time>
      </trkpt>
      <trkpt lat="48.0404" lon="-0.79391">
        <ele>106.3</ele>
        <time>2017-10-29T10:57:22Z</time>
      </trkpt>
      <trkpt lat="48.04037" lon="-0.79377">
        <ele>106.4</ele>
        <time>2017-10-29T10:57:26Z</time>
      </trkpt>
      <trkpt lat="48.04033" lon="-0.79357">
        <ele>106.6</ele>
        <time>2017-10-29T10:57:30Z</time>
      </trkpt>
      <trkpt lat="48.0403" lon="-0.7934">
        <ele>106.3</ele>
        <time>2017-10-29T10:57:34Z</time>
      </trkpt>
      <trkpt lat="48.04026" lon="-0.79325">
        <ele>105.7</ele>
        <time>2017-10-29T10:57:38Z</time>
      </trkpt>
      <trkpt lat="48.0402" lon="-0.79308">
        <ele>104.8</ele>
        <time>2017-10-29T10:57:42Z</time>
      </trkpt>
      <trkpt lat="48.04011" lon="-0.7929">
        <ele>104.2</ele>
        <time>2017-10-29T10:57:46Z</time>
      </trkpt>
      <trkpt lat="48.04005" lon="-0.79278">
        <ele>103.7</ele>
        <time>2017-10-29T10:57:50Z</time>
      </trkpt>
      <trkpt lat="48.03998" lon="-0.79263">
        <ele>103.2</ele>
        <time>2017-10-29T10:57:54Z</time>
      </trkpt>
      <trkpt lat="48.03992" lon="-0.79244">
        <ele>102.7</ele>
        <time>2017-10-29T10:57:58Z</time>
      </trkpt>
      <trkpt lat="48.03986" lon="-0.79227">
        <ele>102.3</ele>
        <time>2017-10-29T10:58:02Z</time>
      </trkpt>
      <trkpt lat="48.03976" lon="-0.79202">
        <ele>102.1</ele>
        <time>2017-10-29T10:58:06Z</time>
      </trkpt>
      <trkpt lat="48.03968" lon="-0.79183">
        <ele>101.8</ele>
        <time>2017-10-29T10:58:10Z</time>
      </trkpt>
      <trkpt lat="48.03956" lon="-0.79162">
        <ele>101.4</ele>
        <time>2017-10-29T10:58:14Z</time>
      </trkpt>
      <trkpt lat="48.03941" lon="-0.79143">
        <ele>100.5</ele>
        <time>2017-10-29T10:58:18Z</time>
      </trkpt>
      <trkpt lat="48.03925" lon="-0.79126">
        <ele>99.8</ele>
        <time>2017-10-29T10:58:22Z</time>
      </trkpt>
      <trkpt lat="48.03912" lon="-0.79106">
        <ele>99.8</ele>
        <time>2017-10-29T10:58:26Z</time>
      </trkpt>
      <trkpt lat="48.039" lon="-0.79087">
        <ele>99.6</ele>
        <time>2017-10-29T10:58:30Z</time>
      </trkpt>
      <trkpt lat="48.03889" lon="-0.7907">
        <ele>99.5</ele>
        <time>2017-10-29T10:58:34Z</time>
      </trkpt>
      <trkpt lat="48.03872" lon="-0.79049">
        <ele>99.1</ele>
        <time>2017-10-29T10:58:38Z</time>
      </trkpt>
      <trkpt lat="48.03859" lon="-0.79022">
        <ele>98.9</ele>
        <time>2017-10-29T10:58:43Z</time>
      </trkpt>
      <trkpt lat="48.03851" lon="-0.79002">
        <ele>98.5</ele>
        <time>2017-10-29T10:58:46Z</time>
      </trkpt>
      <trkpt lat="48.03838" lon="-0.78977">
        <ele>96.6</ele>
        <time>2017-10-29T10:58:50Z</time>
      </trkpt>
      <trkpt lat="48.03819" lon="-0.78946">
        <ele>94</ele>
        <time>2017-10-29T10:58:54Z</time>
      </trkpt>
      <trkpt lat="48.03805" lon="-0.78917">
        <ele>92</ele>
        <time>2017-10-29T10:58:58Z</time>
      </trkpt>
      <trkpt lat="48.03788" lon="-0.78886">
        <ele>90.7</ele>
        <time>2017-10-29T10:59:02Z</time>
      </trkpt>
      <trkpt lat="48.03772" lon="-0.7886">
        <ele>89.8</ele>
        <time>2017-10-29T10:59:06Z</time>
      </trkpt>
      <trkpt lat="48.03759" lon="-0.78842">
        <ele>89.8</ele>
        <time>2017-10-29T10:59:10Z</time>
      </trkpt>
      <trkpt lat="48.03746" lon="-0.78826">
        <ele>90.8</ele>
        <time>2017-10-29T10:59:14Z</time>
      </trkpt>
      <trkpt lat="48.03734" lon="-0.78814">
        <ele>93</ele>
        <time>2017-10-29T10:59:18Z</time>
      </trkpt>
      <trkpt lat="48.03724" lon="-0.78803">
        <ele>95</ele>
        <time>2017-10-29T10:59:22Z</time>
      </trkpt>
      <trkpt lat="48.03715" lon="-0.78791">
        <ele>97.1</ele>
        <time>2017-10-29T10:59:26Z</time>
      </trkpt>
      <trkpt lat="48.03705" lon="-0.7878">
        <ele>99</ele>
        <time>2017-10-29T10:59:30Z</time>
      </trkpt>
      <trkpt lat="48.03695" lon="-0.78768">
        <ele>100.6</ele>
        <time>2017-10-29T10:59:34Z</time>
      </trkpt>
      <trkpt lat="48.03683" lon="-0.78754">
        <ele>101.8</ele>
        <time>2017-10-29T10:59:38Z</time>
      </trkpt>
      <trkpt lat="48.03672" lon="-0.78741">
        <ele>102.3</ele>
        <time>2017-10-29T10:59:42Z</time>
      </trkpt>
      <trkpt lat="48.03663" lon="-0.78726">
        <ele>102.7</ele>
        <time>2017-10-29T10:59:46Z</time>
      </trkpt>
      <trkpt lat="48.03655" lon="-0.78714">
        <ele>102.9</ele>
        <time>2017-10-29T10:59:50Z</time>
      </trkpt>
      <trkpt lat="48.03649" lon="-0.78705">
        <ele>103</ele>
        <time>2017-10-29T10:59:54Z</time>
      </trkpt>
      <trkpt lat="48.0364" lon="-0.78692">
        <ele>103.1</ele>
        <time>2017-10-29T10:59:58Z</time>
      </trkpt>
      <trkpt lat="48.03629" lon="-0.78681">
        <ele>103.5</ele>
        <time>2017-10-29T11:00:02Z</time>
      </trkpt>
      <trkpt lat="48.03621" lon="-0.78674">
        <ele>103.8</ele>
        <time>2017-10-29T11:00:06Z</time>
      </trkpt>
      <trkpt lat="48.03614" lon="-0.78665">
        <ele>104</ele>
        <time>2017-10-29T11:00:10Z</time>
      </trkpt>
      <trkpt lat="48.03603" lon="-0.78654">
        <ele>104</ele>
        <time>2017-10-29T11:00:14Z</time>
      </trkpt>
      <trkpt lat="48.03595" lon="-0.78641">
        <ele>104</ele>
        <time>2017-10-29T11:00:18Z</time>
      </trkpt>
      <trkpt lat="48.03586" lon="-0.7863">
        <ele>104.1</ele>
        <time>2017-10-29T11:00:22Z</time>
      </trkpt>
      <trkpt lat="48.03578" lon="-0.78623">
        <ele>104.2</ele>
        <time>2017-10-29T11:00:26Z</time>
      </trkpt>
      <trkpt lat="48.03572" lon="-0.78615">
        <ele>104.4</ele>
        <time>2017-10-29T11:00:30Z</time>
      </trkpt>
      <trkpt lat="48.03565" lon="-0.78608">
        <ele>104.8</ele>
        <time>2017-10-29T11:00:34Z</time>
      </trkpt>
      <trkpt lat="48.03559" lon="-0.78602">
        <ele>105.2</ele>
        <time>2017-10-29T11:00:38Z</time>
      </trkpt>
      <trkpt lat="48.03551" lon="-0.78595">
        <ele>105.7</ele>
        <time>2017-10-29T11:00:42Z</time>
      </trkpt>
      <trkpt lat="48.03544" lon="-0.78587">
        <ele>106</ele>
        <time>2017-10-29T11:00:46Z</time>
      </trkpt>
      <trkpt lat="48.03537" lon="-0.78579">
        <ele>106</ele>
        <time>2017-10-29T11:00:50Z</time>
      </trkpt>
      <trkpt lat="48.03529" lon="-0.78569">
        <ele>106</ele>
        <time>2017-10-29T11:00:54Z</time>
      </trkpt>
      <trkpt lat="48.03517" lon="-0.78555">
        <ele>106.4</ele>
        <time>2017-10-29T11:00:58Z</time>
      </trkpt>
      <trkpt lat="48.03501" lon="-0.78537">
        <ele>107</ele>
        <time>2017-10-29T11:01:02Z</time>
      </trkpt>
      <trkpt lat="48.03485" lon="-0.7852">
        <ele>107.6</ele>
        <time>2017-10-29T11:01:06Z</time>
      </trkpt>
      <trkpt lat="48.03466" lon="-0.78497">
        <ele>108.2</ele>
        <time>2017-10-29T11:01:10Z</time>
      </trkpt>
      <trkpt lat="48.03448" lon="-0.78478">
        <ele>108.9</ele>
        <time>2017-10-29T11:01:14Z</time>
      </trkpt>
      <trkpt lat="48.0343" lon="-0.78458">
        <ele>109.5</ele>
        <time>2017-10-29T11:01:18Z</time>
      </trkpt>
      <trkpt lat="48.03413" lon="-0.78438">
        <ele>110.1</ele>
        <time>2017-10-29T11:01:22Z</time>
      </trkpt>
      <trkpt lat="48.034" lon="-0.78424">
        <ele>110.6</ele>
        <time>2017-10-29T11:01:26Z</time>
      </trkpt>
      <trkpt lat="48.0339" lon="-0.78408">
        <ele>111.2</ele>
        <time>2017-10-29T11:01:30Z</time>
      </trkpt>
      <trkpt lat="48.03377" lon="-0.78392">
        <ele>112.8</ele>
        <time>2017-10-29T11:01:34Z</time>
      </trkpt>
      <trkpt lat="48.03366" lon="-0.78377">
        <ele>113.7</ele>
        <time>2017-10-29T11:01:38Z</time>
      </trkpt>
      <trkpt lat="48.03357" lon="-0.78363">
        <ele>114.3</ele>
        <time>2017-10-29T11:01:42Z</time>
      </trkpt>
      <trkpt lat="48.03346" lon="-0.78351">
        <ele>115.3</ele>
        <time>2017-10-29T11:01:46Z</time>
      </trkpt>
      <trkpt lat="48.03335" lon="-0.78336">
        <ele>115.9</ele>
        <time>2017-10-29T11:01:50Z</time>
      </trkpt>
      <trkpt lat="48.03327" lon="-0.78316">
        <ele>116</ele>
        <time>2017-10-29T11:01:54Z</time>
      </trkpt>
      <trkpt lat="48.0332" lon="-0.78297">
        <ele>116</ele>
        <time>2017-10-29T11:01:58Z</time>
      </trkpt>
      <trkpt lat="48.0332" lon="-0.78274">
        <ele>116</ele>
        <time>2017-10-29T11:02:02Z</time>
      </trkpt>
      <trkpt lat="48.0332" lon="-0.78254">
        <ele>116</ele>
        <time>2017-10-29T11:02:06Z</time>
      </trkpt>
      <trkpt lat="48.03317" lon="-0.78226">
        <ele>116</ele>
        <time>2017-10-29T11:02:10Z</time>
      </trkpt>
      <trkpt lat="48.03318" lon="-0.78195">
        <ele>116</ele>
        <time>2017-10-29T11:02:14Z</time>
      </trkpt>
      <trkpt lat="48.03319" lon="-0.78166">
        <ele>116</ele>
        <time>2017-10-29T11:02:18Z</time>
      </trkpt>
      <trkpt lat="48.0332" lon="-0.78132">
        <ele>116</ele>
        <time>2017-10-29T11:02:22Z</time>
      </trkpt>
      <trkpt lat="48.03319" lon="-0.78095">
        <ele>116</ele>
        <time>2017-10-29T11:02:26Z</time>
      </trkpt>
      <trkpt lat="48.03319" lon="-0.78063">
        <ele>116</ele>
        <time>2017-10-29T11:02:30Z</time>
      </trkpt>
      <trkpt lat="48.03322" lon="-0.78032">
        <ele>116</ele>
        <time>2017-10-29T11:02:34Z</time>
      </trkpt>
      <trkpt lat="48.03318" lon="-0.78019">
        <ele>116</ele>
        <time>2017-10-29T11:02:38Z</time>
      </trkpt>
      <trkpt lat="48.03308" lon="-0.78017">
        <ele>116</ele>
        <time>2017-10-29T11:02:42Z</time>
      </trkpt>
      <trkpt lat="48.03295" lon="-0.7801">
        <ele>116</ele>
        <time>2017-10-29T11:02:46Z</time>
      </trkpt>
      <trkpt lat="48.03282" lon="-0.78015">
        <ele>116</ele>
        <time>2017-10-29T11:02:50Z</time>
      </trkpt>
      <trkpt lat="48.03266" lon="-0.7801">
        <ele>116</ele>
        <time>2017-10-29T11:02:54Z</time>
      </trkpt>
      <trkpt lat="48.03251" lon="-0.78014">
        <ele>116</ele>
        <time>2017-10-29T11:02:58Z</time>
      </trkpt>
      <trkpt lat="48.03235" lon="-0.78018">
        <ele>116</ele>
        <time>2017-10-29T11:03:02Z</time>
      </trkpt>
      <trkpt lat="48.03219" lon="-0.7802">
        <ele>116</ele>
        <time>2017-10-29T11:03:06Z</time>
      </trkpt>
      <trkpt lat="48.03204" lon="-0.78025">
        <ele>116</ele>
        <time>2017-10-29T11:03:10Z</time>
      </trkpt>
      <trkpt lat="48.03184" lon="-0.78025">
        <ele>116</ele>
        <time>2017-10-29T11:03:14Z</time>
      </trkpt>
      <trkpt lat="48.03168" lon="-0.78026">
        <ele>116</ele>
        <time>2017-10-29T11:03:18Z</time>
      </trkpt>
      <trkpt lat="48.03152" lon="-0.78028">
        <ele>116</ele>
        <time>2017-10-29T11:03:22Z</time>
      </trkpt>
      <trkpt lat="48.03137" lon="-0.78027">
        <ele>116</ele>
        <time>2017-10-29T11:03:26Z</time>
      </trkpt>
      <trkpt lat="48.03117" lon="-0.78027">
        <ele>116</ele>
        <time>2017-10-29T11:03:30Z</time>
      </trkpt>
      <trkpt lat="48.03095" lon="-0.78029">
        <ele>116</ele>
        <time>2017-10-29T11:03:34Z</time>
      </trkpt>
      <trkpt lat="48.03073" lon="-0.78033">
        <ele>116</ele>
        <time>2017-10-29T11:03:38Z</time>
      </trkpt>
      <trkpt lat="48.03049" lon="-0.78035">
        <ele>115.8</ele>
        <time>2017-10-29T11:03:42Z</time>
      </trkpt>
      <trkpt lat="48.03025" lon="-0.78036">
        <ele>115.3</ele>
        <time>2017-10-29T11:03:46Z</time>
      </trkpt>
      <trkpt lat="48.03007" lon="-0.78038">
        <ele>115.1</ele>
        <time>2017-10-29T11:03:50Z</time>
      </trkpt>
      <trkpt lat="48.02986" lon="-0.78037">
        <ele>115</ele>
        <time>2017-10-29T11:03:54Z</time>
      </trkpt>
      <trkpt lat="48.02961" lon="-0.78037">
        <ele>114.6</ele>
        <time>2017-10-29T11:03:58Z</time>
      </trkpt>
      <trkpt lat="48.02936" lon="-0.78038">
        <ele>113.9</ele>
        <time>2017-10-29T11:04:02Z</time>
      </trkpt>
      <trkpt lat="48.02911" lon="-0.78039">
        <ele>113.5</ele>
        <time>2017-10-29T11:04:06Z</time>
      </trkpt>
      <trkpt lat="48.02887" lon="-0.78037">
        <ele>112.9</ele>
        <time>2017-10-29T11:04:10Z</time>
      </trkpt>
      <trkpt lat="48.02859" lon="-0.78032">
        <ele>111.9</ele>
        <time>2017-10-29T11:04:14Z</time>
      </trkpt>
      <trkpt lat="48.02831" lon="-0.78026">
        <ele>110.9</ele>
        <time>2017-10-29T11:04:18Z</time>
      </trkpt>
      <trkpt lat="48.02805" lon="-0.78019">
        <ele>110</ele>
        <time>2017-10-29T11:04:22Z</time>
      </trkpt>
      <trkpt lat="48.0279" lon="-0.78013">
        <ele>109.4</ele>
        <time>2017-10-29T11:04:26Z</time>
      </trkpt>
      <trkpt lat="48.02778" lon="-0.78008">
        <ele>109</ele>
        <time>2017-10-29T11:04:30Z</time>
      </trkpt>
      <trkpt lat="48.02767" lon="-0.7801">
        <ele>108.5</ele>
        <time>2017-10-29T11:04:34Z</time>
      </trkpt>
      <trkpt lat="48.02747" lon="-0.78007">
        <ele>107.7</ele>
        <time>2017-10-29T11:04:38Z</time>
      </trkpt>
      <trkpt lat="48.02725" lon="-0.78003">
        <ele>107</ele>
        <time>2017-10-29T11:04:42Z</time>
      </trkpt>
      <trkpt lat="48.02703" lon="-0.77999">
        <ele>106.3</ele>
        <time>2017-10-29T11:04:46Z</time>
      </trkpt>
      <trkpt lat="48.02686" lon="-0.77991">
        <ele>105.7</ele>
        <time>2017-10-29T11:04:50Z</time>
      </trkpt>
      <trkpt lat="48.02687" lon="-0.77973">
        <ele>105.7</ele>
        <time>2017-10-29T11:04:54Z</time>
      </trkpt>
      <trkpt lat="48.02694" lon="-0.77958">
        <ele>106</ele>
        <time>2017-10-29T11:04:58Z</time>
      </trkpt>
      <trkpt lat="48.02698" lon="-0.77945">
        <ele>106</ele>
        <time>2017-10-29T11:05:02Z</time>
      </trkpt>
      <trkpt lat="48.02708" lon="-0.77926">
        <ele>106.3</ele>
        <time>2017-10-29T11:05:06Z</time>
      </trkpt>
      <trkpt lat="48.02722" lon="-0.779">
        <ele>107</ele>
        <time>2017-10-29T11:05:10Z</time>
      </trkpt>
      <trkpt lat="48.02733" lon="-0.77879">
        <ele>107.1</ele>
        <time>2017-10-29T11:05:14Z</time>
      </trkpt>
      <trkpt lat="48.02742" lon="-0.77862">
        <ele>107.7</ele>
        <time>2017-10-29T11:05:18Z</time>
      </trkpt>
      <trkpt lat="48.02757" lon="-0.77842">
        <ele>108.2</ele>
        <time>2017-10-29T11:05:22Z</time>
      </trkpt>
      <trkpt lat="48.02773" lon="-0.77824">
        <ele>108.8</ele>
        <time>2017-10-29T11:05:26Z</time>
      </trkpt>
      <trkpt lat="48.02783" lon="-0.77803">
        <ele>109.3</ele>
        <time>2017-10-29T11:05:30Z</time>
      </trkpt>
      <trkpt lat="48.02792" lon="-0.77788">
        <ele>109.8</ele>
        <time>2017-10-29T11:05:34Z</time>
      </trkpt>
      <trkpt lat="48.028" lon="-0.77773">
        <ele>110.1</ele>
        <time>2017-10-29T11:05:38Z</time>
      </trkpt>
      <trkpt lat="48.02811" lon="-0.77756">
        <ele>110.8</ele>
        <time>2017-10-29T11:05:42Z</time>
      </trkpt>
      <trkpt lat="48.02822" lon="-0.77738">
        <ele>111.3</ele>
        <time>2017-10-29T11:05:46Z</time>
      </trkpt>
      <trkpt lat="48.02831" lon="-0.77721">
        <ele>111.9</ele>
        <time>2017-10-29T11:05:50Z</time>
      </trkpt>
      <trkpt lat="48.02839" lon="-0.77708">
        <ele>112.1</ele>
        <time>2017-10-29T11:05:54Z</time>
      </trkpt>
      <trkpt lat="48.02855" lon="-0.77687">
        <ele>112.8</ele>
        <time>2017-10-29T11:05:58Z</time>
      </trkpt>
      <trkpt lat="48.02866" lon="-0.77671">
        <ele>113</ele>
        <time>2017-10-29T11:06:02Z</time>
      </trkpt>
      <trkpt lat="48.02878" lon="-0.77653">
        <ele>113</ele>
        <time>2017-10-29T11:06:06Z</time>
      </trkpt>
      <trkpt lat="48.02889" lon="-0.77635">
        <ele>113</ele>
        <time>2017-10-29T11:06:10Z</time>
      </trkpt>
      <trkpt lat="48.029" lon="-0.77618">
        <ele>113.4</ele>
        <time>2017-10-29T11:06:14Z</time>
      </trkpt>
      <trkpt lat="48.02912" lon="-0.77601">
        <ele>113.8</ele>
        <time>2017-10-29T11:06:18Z</time>
      </trkpt>
      <trkpt lat="48.02923" lon="-0.77583">
        <ele>114</ele>
        <time>2017-10-29T11:06:22Z</time>
      </trkpt>
      <trkpt lat="48.02933" lon="-0.77564">
        <ele>114</ele>
        <time>2017-10-29T11:06:26Z</time>
      </trkpt>
      <trkpt lat="48.02942" lon="-0.77545">
        <ele>114</ele>
        <time>2017-10-29T11:06:30Z</time>
      </trkpt>
      <trkpt lat="48.02951" lon="-0.77522">
        <ele>114.2</ele>
        <time>2017-10-29T11:06:34Z</time>
      </trkpt>
      <trkpt lat="48.02964" lon="-0.77491">
        <ele>114</ele>
        <time>2017-10-29T11:06:38Z</time>
      </trkpt>
      <trkpt lat="48.02975" lon="-0.77462">
        <ele>114.1</ele>
        <time>2017-10-29T11:06:42Z</time>
      </trkpt>
      <trkpt lat="48.02978" lon="-0.77441">
        <ele>114.2</ele>
        <time>2017-10-29T11:06:46Z</time>
      </trkpt>
      <trkpt lat="48.02986" lon="-0.77418">
        <ele>114.5</ele>
        <time>2017-10-29T11:06:50Z</time>
      </trkpt>
      <trkpt lat="48.02998" lon="-0.77392">
        <ele>114.1</ele>
        <time>2017-10-29T11:06:54Z</time>
      </trkpt>
      <trkpt lat="48.03013" lon="-0.77365">
        <ele>113.1</ele>
        <time>2017-10-29T11:06:58Z</time>
      </trkpt>
      <trkpt lat="48.03032" lon="-0.77339">
        <ele>113</ele>
        <time>2017-10-29T11:07:02Z</time>
      </trkpt>
      <trkpt lat="48.03044" lon="-0.77308">
        <ele>113.4</ele>
        <time>2017-10-29T11:07:06Z</time>
      </trkpt>
      <trkpt lat="48.03032" lon="-0.77284">
        <ele>113.2</ele>
        <time>2017-10-29T11:07:10Z</time>
      </trkpt>
      <trkpt lat="48.03015" lon="-0.77261">
        <ele>113.2</ele>
        <time>2017-10-29T11:07:14Z</time>
      </trkpt>
      <trkpt lat="48.02997" lon="-0.77236">
        <ele>113</ele>
        <time>2017-10-29T11:07:18Z</time>
      </trkpt>
      <trkpt lat="48.02979" lon="-0.77206">
        <ele>112.6</ele>
        <time>2017-10-29T11:07:22Z</time>
      </trkpt>
      <trkpt lat="48.02964" lon="-0.77176">
        <ele>112.6</ele>
        <time>2017-10-29T11:07:26Z</time>
      </trkpt>
      <trkpt lat="48.02951" lon="-0.77148">
        <ele>112.1</ele>
        <time>2017-10-29T11:07:30Z</time>
      </trkpt>
      <trkpt lat="48.02938" lon="-0.77128">
        <ele>111.9</ele>
        <time>2017-10-29T11:07:34Z</time>
      </trkpt>
      <trkpt lat="48.02927" lon="-0.77105">
        <ele>111.4</ele>
        <time>2017-10-29T11:07:38Z</time>
      </trkpt>
      <trkpt lat="48.02917" lon="-0.77078">
        <ele>111</ele>
        <time>2017-10-29T11:07:42Z</time>
      </trkpt>
      <trkpt lat="48.02899" lon="-0.77044">
        <ele>110.4</ele>
        <time>2017-10-29T11:07:46Z</time>
      </trkpt>
      <trkpt lat="48.02883" lon="-0.77013">
        <ele>110</ele>
        <time>2017-10-29T11:07:50Z</time>
      </trkpt>
      <trkpt lat="48.02862" lon="-0.76984">
        <ele>110</ele>
        <time>2017-10-29T11:07:54Z</time>
      </trkpt>
      <trkpt lat="48.02837" lon="-0.76951">
        <ele>109.1</ele>
        <time>2017-10-29T11:07:58Z</time>
      </trkpt>
      <trkpt lat="48.02815" lon="-0.76923">
        <ele>108.8</ele>
        <time>2017-10-29T11:08:02Z</time>
      </trkpt>
      <trkpt lat="48.02808" lon="-0.76891">
        <ele>108.1</ele>
        <time>2017-10-29T11:08:06Z</time>
      </trkpt>
      <trkpt lat="48.02816" lon="-0.76862">
        <ele>109</ele>
        <time>2017-10-29T11:08:10Z</time>
      </trkpt>
      <trkpt lat="48.02819" lon="-0.76826">
        <ele>108.9</ele>
        <time>2017-10-29T11:08:14Z</time>
      </trkpt>
      <trkpt lat="48.02817" lon="-0.7679">
        <ele>108.2</ele>
        <time>2017-10-29T11:08:18Z</time>
      </trkpt>
      <trkpt lat="48.02814" lon="-0.7677">
        <ele>108</ele>
        <time>2017-10-29T11:08:22Z</time>
      </trkpt>
      <trkpt lat="48.02812" lon="-0.76761">
        <ele>108</ele>
        <time>2017-10-29T11:08:26Z</time>
      </trkpt>
      <trkpt lat="48.02808" lon="-0.76752">
        <ele>108</ele>
        <time>2017-10-29T11:08:30Z</time>
      </trkpt>
      <trkpt lat="48.02807" lon="-0.7674">
        <ele>108</ele>
        <time>2017-10-29T11:08:34Z</time>
      </trkpt>
      <trkpt lat="48.02802" lon="-0.76722">
        <ele>107.9</ele>
        <time>2017-10-29T11:08:38Z</time>
      </trkpt>
      <trkpt lat="48.02802" lon="-0.76692">
        <ele>107</ele>
        <time>2017-10-29T11:08:43Z</time>
      </trkpt>
      <trkpt lat="48.02802" lon="-0.76657">
        <ele>106.6</ele>
        <time>2017-10-29T11:08:46Z</time>
      </trkpt>
      <trkpt lat="48.02793" lon="-0.76642">
        <ele>106.1</ele>
        <time>2017-10-29T11:08:50Z</time>
      </trkpt>
      <trkpt lat="48.02781" lon="-0.76645">
        <ele>106.2</ele>
        <time>2017-10-29T11:08:54Z</time>
      </trkpt>
      <trkpt lat="48.02762" lon="-0.7665">
        <ele>106.2</ele>
        <time>2017-10-29T11:08:58Z</time>
      </trkpt>
      <trkpt lat="48.02742" lon="-0.76655">
        <ele>106</ele>
        <time>2017-10-29T11:09:02Z</time>
      </trkpt>
      <trkpt lat="48.02723" lon="-0.76661">
        <ele>106</ele>
        <time>2017-10-29T11:09:06Z</time>
      </trkpt>
      <trkpt lat="48.02712" lon="-0.76656">
        <ele>106.2</ele>
        <time>2017-10-29T11:09:10Z</time>
      </trkpt>
      <trkpt lat="48.02702" lon="-0.7664">
        <ele>106</ele>
        <time>2017-10-29T11:09:14Z</time>
      </trkpt>
      <trkpt lat="48.02684" lon="-0.76632">
        <ele>106.3</ele>
        <time>2017-10-29T11:09:18Z</time>
      </trkpt>
      <trkpt lat="48.02663" lon="-0.76626">
        <ele>106.5</ele>
        <time>2017-10-29T11:09:22Z</time>
      </trkpt>
      <trkpt lat="48.02644" lon="-0.76632">
        <ele>106.3</ele>
        <time>2017-10-29T11:09:26Z</time>
      </trkpt>
      <trkpt lat="48.02627" lon="-0.76624">
        <ele>106.7</ele>
        <time>2017-10-29T11:09:30Z</time>
      </trkpt>
      <trkpt lat="48.02627" lon="-0.76594">
        <ele>107</ele>
        <time>2017-10-29T11:09:34Z</time>
      </trkpt>
      <trkpt lat="48.02632" lon="-0.76562">
        <ele>106.4</ele>
        <time>2017-10-29T11:09:38Z</time>
      </trkpt>
      <trkpt lat="48.02639" lon="-0.76529">
        <ele>106</ele>
        <time>2017-10-29T11:09:42Z</time>
      </trkpt>
      <trkpt lat="48.02646" lon="-0.76493">
        <ele>105.5</ele>
        <time>2017-10-29T11:09:46Z</time>
      </trkpt>
      <trkpt lat="48.02654" lon="-0.76453">
        <ele>103.8</ele>
        <time>2017-10-29T11:09:50Z</time>
      </trkpt>
      <trkpt lat="48.02662" lon="-0.76408">
        <ele>101.9</ele>
        <time>2017-10-29T11:09:54Z</time>
      </trkpt>
      <trkpt lat="48.02678" lon="-0.76368">
        <ele>99.5</ele>
        <time>2017-10-29T11:09:58Z</time>
      </trkpt>
      <trkpt lat="48.02702" lon="-0.76327">
        <ele>95.7</ele>
        <time>2017-10-29T11:10:02Z</time>
      </trkpt>
      <trkpt lat="48.02723" lon="-0.76307">
        <ele>94.1</ele>
        <time>2017-10-29T11:10:06Z</time>
      </trkpt>
      <trkpt lat="48.0274" lon="-0.76295">
        <ele>92.4</ele>
        <time>2017-10-29T11:10:10Z</time>
      </trkpt>
      <trkpt lat="48.0274" lon="-0.76268">
        <ele>91.4</ele>
        <time>2017-10-29T11:10:14Z</time>
      </trkpt>
      <trkpt lat="48.02749" lon="-0.76256">
        <ele>90.3</ele>
        <time>2017-10-29T11:10:18Z</time>
      </trkpt>
      <trkpt lat="48.0276" lon="-0.76242">
        <ele>89.8</ele>
        <time>2017-10-29T11:10:22Z</time>
      </trkpt>
      <trkpt lat="48.02767" lon="-0.76219">
        <ele>89.8</ele>
        <time>2017-10-29T11:10:26Z</time>
      </trkpt>
      <trkpt lat="48.02765" lon="-0.76202">
        <ele>89.9</ele>
        <time>2017-10-29T11:10:30Z</time>
      </trkpt>
      <trkpt lat="48.02748" lon="-0.76196">
        <ele>91.2</ele>
        <time>2017-10-29T11:10:34Z</time>
      </trkpt>
      <trkpt lat="48.0273" lon="-0.76195">
        <ele>93.1</ele>
        <time>2017-10-29T11:10:38Z</time>
      </trkpt>
      <trkpt lat="48.02712" lon="-0.76195">
        <ele>95</ele>
        <time>2017-10-29T11:10:42Z</time>
      </trkpt>
      <trkpt lat="48.02695" lon="-0.76198">
        <ele>96.8</ele>
        <time>2017-10-29T11:10:46Z</time>
      </trkpt>
      <trkpt lat="48.02679" lon="-0.76198">
        <ele>98.1</ele>
        <time>2017-10-29T11:10:50Z</time>
      </trkpt>
      <trkpt lat="48.02665" lon="-0.76194">
        <ele>99.1</ele>
        <time>2017-10-29T11:10:54Z</time>
      </trkpt>
      <trkpt lat="48.02652" lon="-0.76186">
        <ele>100.4</ele>
        <time>2017-10-29T11:10:58Z</time>
      </trkpt>
      <trkpt lat="48.0264" lon="-0.76177">
        <ele>101.5</ele>
        <time>2017-10-29T11:11:02Z</time>
      </trkpt>
      <trkpt lat="48.02627" lon="-0.76172">
        <ele>102.3</ele>
        <time>2017-10-29T11:11:06Z</time>
      </trkpt>
      <trkpt lat="48.02615" lon="-0.76166">
        <ele>102.9</ele>
        <time>2017-10-29T11:11:10Z</time>
      </trkpt>
      <trkpt lat="48.02603" lon="-0.76158">
        <ele>103.3</ele>
        <time>2017-10-29T11:11:14Z</time>
      </trkpt>
      <trkpt lat="48.02591" lon="-0.76149">
        <ele>103.7</ele>
        <time>2017-10-29T11:11:18Z</time>
      </trkpt>
      <trkpt lat="48.02578" lon="-0.76137">
        <ele>104.2</ele>
        <time>2017-10-29T11:11:22Z</time>
      </trkpt>
      <trkpt lat="48.02564" lon="-0.76124">
        <ele>104.7</ele>
        <time>2017-10-29T11:11:26Z</time>
      </trkpt>
      <trkpt lat="48.02548" lon="-0.7611">
        <ele>105</ele>
        <time>2017-10-29T11:11:30Z</time>
      </trkpt>
      <trkpt lat="48.02533" lon="-0.76099">
        <ele>105</ele>
        <time>2017-10-29T11:11:34Z</time>
      </trkpt>
      <trkpt lat="48.02516" lon="-0.76086">
        <ele>105</ele>
        <time>2017-10-29T11:11:38Z</time>
      </trkpt>
      <trkpt lat="48.025" lon="-0.76076">
        <ele>105</ele>
        <time>2017-10-29T11:11:42Z</time>
      </trkpt>
      <trkpt lat="48.02481" lon="-0.76065">
        <ele>105.2</ele>
        <time>2017-10-29T11:11:46Z</time>
      </trkpt>
      <trkpt lat="48.0246" lon="-0.76055">
        <ele>105</ele>
        <time>2017-10-29T11:11:50Z</time>
      </trkpt>
      <trkpt lat="48.02438" lon="-0.76048">
        <ele>105</ele>
        <time>2017-10-29T11:11:54Z</time>
      </trkpt>
      <trkpt lat="48.02416" lon="-0.76041">
        <ele>105</ele>
        <time>2017-10-29T11:11:58Z</time>
      </trkpt>
      <trkpt lat="48.02392" lon="-0.76036">
        <ele>105</ele>
        <time>2017-10-29T11:12:02Z</time>
      </trkpt>
      <trkpt lat="48.02375" lon="-0.76042">
        <ele>105.3</ele>
        <time>2017-10-29T11:12:06Z</time>
      </trkpt>
      <trkpt lat="48.02375" lon="-0.76067">
        <ele>105.7</ele>
        <time>2017-10-29T11:12:10Z</time>
      </trkpt>
      <trkpt lat="48.02373" lon="-0.76094">
        <ele>106.2</ele>
        <time>2017-10-29T11:12:14Z</time>
      </trkpt>
      <trkpt lat="48.02367" lon="-0.76121">
        <ele>106.5</ele>
        <time>2017-10-29T11:12:18Z</time>
      </trkpt>
      <trkpt lat="48.0236" lon="-0.76147">
        <ele>107</ele>
        <time>2017-10-29T11:12:22Z</time>
      </trkpt>
      <trkpt lat="48.02355" lon="-0.76171">
        <ele>107.1</ele>
        <time>2017-10-29T11:12:26Z</time>
      </trkpt>
      <trkpt lat="48.02349" lon="-0.76192">
        <ele>107.9</ele>
        <time>2017-10-29T11:12:30Z</time>
      </trkpt>
      <trkpt lat="48.0234" lon="-0.76211">
        <ele>108</ele>
        <time>2017-10-29T11:12:34Z</time>
      </trkpt>
      <trkpt lat="48.02326" lon="-0.76227">
        <ele>108.4</ele>
        <time>2017-10-29T11:12:38Z</time>
      </trkpt>
      <trkpt lat="48.0231" lon="-0.76245">
        <ele>109</ele>
        <time>2017-10-29T11:12:42Z</time>
      </trkpt>
      <trkpt lat="48.02294" lon="-0.76263">
        <ele>109</ele>
        <time>2017-10-29T11:12:46Z</time>
      </trkpt>
      <trkpt lat="48.0228" lon="-0.76277">
        <ele>109</ele>
        <time>2017-10-29T11:12:50Z</time>
      </trkpt>
      <trkpt lat="48.0227" lon="-0.7629">
        <ele>109.6</ele>
        <time>2017-10-29T11:12:54Z</time>
      </trkpt>
      <trkpt lat="48.0226" lon="-0.76302">
        <ele>109.9</ele>
        <time>2017-10-29T11:12:58Z</time>
      </trkpt>
      <trkpt lat="48.02247" lon="-0.76307">
        <ele>110</ele>
        <time>2017-10-29T11:13:02Z</time>
      </trkpt>
      <trkpt lat="48.02233" lon="-0.76306">
        <ele>110</ele>
        <time>2017-10-29T11:13:06Z</time>
      </trkpt>
      <trkpt lat="48.02223" lon="-0.76302">
        <ele>110</ele>
        <time>2017-10-29T11:13:10Z</time>
      </trkpt>
      <trkpt lat="48.02213" lon="-0.76305">
        <ele>110</ele>
        <time>2017-10-29T11:13:14Z</time>
      </trkpt>
      <trkpt lat="48.02202" lon="-0.76308">
        <ele>110</ele>
        <time>2017-10-29T11:13:18Z</time>
      </trkpt>
      <trkpt lat="48.02194" lon="-0.7631">
        <ele>110</ele>
        <time>2017-10-29T11:13:22Z</time>
      </trkpt>
      <trkpt lat="48.02191" lon="-0.76308">
        <ele>110</ele>
        <time>2017-10-29T11:13:26Z</time>
      </trkpt>
      <trkpt lat="48.02191" lon="-0.76296">
        <ele>110</ele>
        <time>2017-10-29T11:13:30Z</time>
      </trkpt>
      <trkpt lat="48.02187" lon="-0.7628">
        <ele>110</ele>
        <time>2017-10-29T11:13:34Z</time>
      </trkpt>
      <trkpt lat="48.02179" lon="-0.76272">
        <ele>110</ele>
        <time>2017-10-29T11:13:38Z</time>
      </trkpt>
      <trkpt lat="48.02169" lon="-0.76276">
        <ele>110</ele>
        <time>2017-10-29T11:13:43Z</time>
      </trkpt>
      <trkpt lat="48.0216" lon="-0.7628">
        <ele>110</ele>
        <time>2017-10-29T11:13:46Z</time>
      </trkpt>
      <trkpt lat="48.02153" lon="-0.76283">
        <ele>110</ele>
        <time>2017-10-29T11:13:50Z</time>
      </trkpt>
      <trkpt lat="48.02146" lon="-0.76286">
        <ele>110</ele>
        <time>2017-10-29T11:13:54Z</time>
      </trkpt>
      <trkpt lat="48.02138" lon="-0.76288">
        <ele>110</ele>
        <time>2017-10-29T11:13:58Z</time>
      </trkpt>
      <trkpt lat="48.0213" lon="-0.76289">
        <ele>109.7</ele>
        <time>2017-10-29T11:14:02Z</time>
      </trkpt>
      <trkpt lat="48.0212" lon="-0.76285">
        <ele>109.3</ele>
        <time>2017-10-29T11:14:06Z</time>
      </trkpt>
      <trkpt lat="48.0211" lon="-0.76283">
        <ele>109</ele>
        <time>2017-10-29T11:14:10Z</time>
      </trkpt>
      <trkpt lat="48.02101" lon="-0.76283">
        <ele>109</ele>
        <time>2017-10-29T11:14:14Z</time>
      </trkpt>
      <trkpt lat="48.02091" lon="-0.76279">
        <ele>109</ele>
        <time>2017-10-29T11:14:18Z</time>
      </trkpt>
      <trkpt lat="48.0208" lon="-0.76275">
        <ele>108.9</ele>
        <time>2017-10-29T11:14:22Z</time>
      </trkpt>
      <trkpt lat="48.02068" lon="-0.76272">
        <ele>108.4</ele>
        <time>2017-10-29T11:14:26Z</time>
      </trkpt>
      <trkpt lat="48.02061" lon="-0.76267">
        <ele>108.2</ele>
        <time>2017-10-29T11:14:30Z</time>
      </trkpt>
      <trkpt lat="48.0206" lon="-0.76264">
        <ele>108.2</ele>
        <time>2017-10-29T11:14:34Z</time>
      </trkpt>
      <trkpt lat="48.02062" lon="-0.76259">
        <ele>108.2</ele>
        <time>2017-10-29T11:14:38Z</time>
      </trkpt>
      <trkpt lat="48.02059" lon="-0.76258">
        <ele>108.1</ele>
        <time>2017-10-29T11:15:42Z</time>
      </trkpt>
      <trkpt lat="48.02059" lon="-0.76258">
        <ele>108.1</ele>
        <time>2017-10-29T11:16:10Z</time>
      </trkpt>
      <trkpt lat="48.02062" lon="-0.76258">
        <ele>108.2</ele>
        <time>2017-10-29T11:16:14Z</time>
      </trkpt>
      <trkpt lat="48.02064" lon="-0.76259">
        <ele>108.3</ele>
        <time>2017-10-29T11:19:22Z</time>
      </trkpt>
      <trkpt lat="48.02067" lon="-0.76259">
        <ele>108.4</ele>
        <time>2017-10-29T11:19:26Z</time>
      </trkpt>
      <trkpt lat="48.0207" lon="-0.76259">
        <ele>108.5</ele>
        <time>2017-10-29T11:19:30Z</time>
      </trkpt>
      <trkpt lat="48.02072" lon="-0.76262">
        <ele>108.6</ele>
        <time>2017-10-29T11:19:34Z</time>
      </trkpt>
      <trkpt lat="48.02076" lon="-0.7626">
        <ele>108.7</ele>
        <time>2017-10-29T11:39:30Z</time>
      </trkpt>
      <trkpt lat="48.02075" lon="-0.76256">
        <ele>108.7</ele>
        <time>2017-10-29T11:39:50Z</time>
      </trkpt>
      <trkpt lat="48.02072" lon="-0.76249">
        <ele>108.6</ele>
        <time>2017-10-29T11:39:54Z</time>
      </trkpt>
      <trkpt lat="48.02074" lon="-0.76239">
        <ele>108.7</ele>
        <time>2017-10-29T11:39:58Z</time>
      </trkpt>
      <trkpt lat="48.02077" lon="-0.76228">
        <ele>108.8</ele>
        <time>2017-10-29T11:40:02Z</time>
      </trkpt>
      <trkpt lat="48.02078" lon="-0.76217">
        <ele>108.8</ele>
        <time>2017-10-29T11:40:06Z</time>
      </trkpt>
      <trkpt lat="48.02079" lon="-0.76202">
        <ele>108.8</ele>
        <time>2017-10-29T11:40:10Z</time>
      </trkpt>
      <trkpt lat="48.02079" lon="-0.76184">
        <ele>108.9</ele>
        <time>2017-10-29T11:40:14Z</time>
      </trkpt>
      <trkpt lat="48.02079" lon="-0.76165">
        <ele>108.9</ele>
        <time>2017-10-29T11:40:18Z</time>
      </trkpt>
      <trkpt lat="48.02083" lon="-0.7615">
        <ele>109</ele>
        <time>2017-10-29T11:40:22Z</time>
      </trkpt>
      <trkpt lat="48.02095" lon="-0.76148">
        <ele>108.7</ele>
        <time>2017-10-29T11:40:26Z</time>
      </trkpt>
      <trkpt lat="48.02098" lon="-0.76128">
        <ele>108.3</ele>
        <time>2017-10-29T11:40:30Z</time>
      </trkpt>
      <trkpt lat="48.02085" lon="-0.7611">
        <ele>108</ele>
        <time>2017-10-29T11:40:34Z</time>
      </trkpt>
      <trkpt lat="48.02068" lon="-0.76095">
        <ele>108</ele>
        <time>2017-10-29T11:40:38Z</time>
      </trkpt>
      <trkpt lat="48.02053" lon="-0.76079">
        <ele>108.1</ele>
        <time>2017-10-29T11:40:42Z</time>
      </trkpt>
      <trkpt lat="48.02039" lon="-0.76058">
        <ele>108.6</ele>
        <time>2017-10-29T11:40:46Z</time>
      </trkpt>
      <trkpt lat="48.02028" lon="-0.76038">
        <ele>109</ele>
        <time>2017-10-29T11:40:50Z</time>
      </trkpt>
      <trkpt lat="48.02018" lon="-0.76016">
        <ele>109.4</ele>
        <time>2017-10-29T11:40:54Z</time>
      </trkpt>
      <trkpt lat="48.02008" lon="-0.75995">
        <ele>109.6</ele>
        <time>2017-10-29T11:40:58Z</time>
      </trkpt>
      <trkpt lat="48.01998" lon="-0.75973">
        <ele>109.1</ele>
        <time>2017-10-29T11:41:02Z</time>
      </trkpt>
      <trkpt lat="48.01986" lon="-0.75953">
        <ele>109.5</ele>
        <time>2017-10-29T11:41:06Z</time>
      </trkpt>
      <trkpt lat="48.01974" lon="-0.75931">
        <ele>109.9</ele>
        <time>2017-10-29T11:41:10Z</time>
      </trkpt>
      <trkpt lat="48.01962" lon="-0.75909">
        <ele>109.8</ele>
        <time>2017-10-29T11:41:14Z</time>
      </trkpt>
      <trkpt lat="48.01951" lon="-0.75883">
        <ele>109.6</ele>
        <time>2017-10-29T11:41:18Z</time>
      </trkpt>
      <trkpt lat="48.01941" lon="-0.75857">
        <ele>109.1</ele>
        <time>2017-10-29T11:41:22Z</time>
      </trkpt>
      <trkpt lat="48.01933" lon="-0.75833">
        <ele>109.4</ele>
        <time>2017-10-29T11:41:26Z</time>
      </trkpt>
      <trkpt lat="48.01925" lon="-0.75809">
        <ele>109.1</ele>
        <time>2017-10-29T11:41:30Z</time>
      </trkpt>
      <trkpt lat="48.01918" lon="-0.75787">
        <ele>109</ele>
        <time>2017-10-29T11:41:34Z</time>
      </trkpt>
      <trkpt lat="48.01909" lon="-0.7577">
        <ele>109</ele>
        <time>2017-10-29T11:41:38Z</time>
      </trkpt>
      <trkpt lat="48.019" lon="-0.75763">
        <ele>109</ele>
        <time>2017-10-29T11:41:42Z</time>
      </trkpt>
      <trkpt lat="48.01887" lon="-0.75752">
        <ele>108.9</ele>
        <time>2017-10-29T11:41:46Z</time>
      </trkpt>
      <trkpt lat="48.01867" lon="-0.75742">
        <ele>108.2</ele>
        <time>2017-10-29T11:41:50Z</time>
      </trkpt>
      <trkpt lat="48.01844" lon="-0.75733">
        <ele>108</ele>
        <time>2017-10-29T11:41:54Z</time>
      </trkpt>
      <trkpt lat="48.01829" lon="-0.75722">
        <ele>107.8</ele>
        <time>2017-10-29T11:41:58Z</time>
      </trkpt>
      <trkpt lat="48.01816" lon="-0.75714">
        <ele>107.3</ele>
        <time>2017-10-29T11:42:02Z</time>
      </trkpt>
      <trkpt lat="48.01798" lon="-0.75705">
        <ele>106.8</ele>
        <time>2017-10-29T11:42:06Z</time>
      </trkpt>
      <trkpt lat="48.01777" lon="-0.75693">
        <ele>106</ele>
        <time>2017-10-29T11:42:10Z</time>
      </trkpt>
      <trkpt lat="48.01753" lon="-0.75681">
        <ele>105.6</ele>
        <time>2017-10-29T11:42:14Z</time>
      </trkpt>
      <trkpt lat="48.01728" lon="-0.75666">
        <ele>105</ele>
        <time>2017-10-29T11:42:18Z</time>
      </trkpt>
      <trkpt lat="48.01702" lon="-0.75655">
        <ele>103.9</ele>
        <time>2017-10-29T11:42:22Z</time>
      </trkpt>
      <trkpt lat="48.01678" lon="-0.75642">
        <ele>103</ele>
        <time>2017-10-29T11:42:26Z</time>
      </trkpt>
      <trkpt lat="48.01656" lon="-0.7563">
        <ele>102.3</ele>
        <time>2017-10-29T11:42:30Z</time>
      </trkpt>
      <trkpt lat="48.01635" lon="-0.75617">
        <ele>101.2</ele>
        <time>2017-10-29T11:42:34Z</time>
      </trkpt>
      <trkpt lat="48.01613" lon="-0.75603">
        <ele>100.7</ele>
        <time>2017-10-29T11:42:38Z</time>
      </trkpt>
      <trkpt lat="48.01588" lon="-0.75591">
        <ele>100</ele>
        <time>2017-10-29T11:42:42Z</time>
      </trkpt>
      <trkpt lat="48.01565" lon="-0.75578">
        <ele>99.3</ele>
        <time>2017-10-29T11:42:46Z</time>
      </trkpt>
      <trkpt lat="48.0154" lon="-0.75563">
        <ele>98.6</ele>
        <time>2017-10-29T11:42:50Z</time>
      </trkpt>
      <trkpt lat="48.01515" lon="-0.75549">
        <ele>97.4</ele>
        <time>2017-10-29T11:42:54Z</time>
      </trkpt>
      <trkpt lat="48.01487" lon="-0.75534">
        <ele>96.7</ele>
        <time>2017-10-29T11:42:58Z</time>
      </trkpt>
      <trkpt lat="48.01459" lon="-0.75516">
        <ele>95.8</ele>
        <time>2017-10-29T11:43:02Z</time>
      </trkpt>
      <trkpt lat="48.01436" lon="-0.75507">
        <ele>95.5</ele>
        <time>2017-10-29T11:43:06Z</time>
      </trkpt>
      <trkpt lat="48.01407" lon="-0.75492">
        <ele>95.8</ele>
        <time>2017-10-29T11:43:10Z</time>
      </trkpt>
      <trkpt lat="48.0138" lon="-0.75476">
        <ele>96.3</ele>
        <time>2017-10-29T11:43:14Z</time>
      </trkpt>
      <trkpt lat="48.0135" lon="-0.75459">
        <ele>96.7</ele>
        <time>2017-10-29T11:43:18Z</time>
      </trkpt>
      <trkpt lat="48.01322" lon="-0.75449">
        <ele>97</ele>
        <time>2017-10-29T11:43:22Z</time>
      </trkpt>
      <trkpt lat="48.01298" lon="-0.75433">
        <ele>96.9</ele>
        <time>2017-10-29T11:43:26Z</time>
      </trkpt>
      <trkpt lat="48.01276" lon="-0.75418">
        <ele>96</ele>
        <time>2017-10-29T11:43:30Z</time>
      </trkpt>
      <trkpt lat="48.01256" lon="-0.75397">
        <ele>96</ele>
        <time>2017-10-29T11:43:34Z</time>
      </trkpt>
      <trkpt lat="48.01236" lon="-0.75375">
        <ele>95.5</ele>
        <time>2017-10-29T11:43:38Z</time>
      </trkpt>
      <trkpt lat="48.01215" lon="-0.75352">
        <ele>95.2</ele>
        <time>2017-10-29T11:43:43Z</time>
      </trkpt>
      <trkpt lat="48.01194" lon="-0.75328">
        <ele>95</ele>
        <time>2017-10-29T11:43:46Z</time>
      </trkpt>
      <trkpt lat="48.01174" lon="-0.75305">
        <ele>94.3</ele>
        <time>2017-10-29T11:43:50Z</time>
      </trkpt>
      <trkpt lat="48.01154" lon="-0.75281">
        <ele>94.5</ele>
        <time>2017-10-29T11:43:54Z</time>
      </trkpt>
      <trkpt lat="48.01134" lon="-0.75257">
        <ele>94.6</ele>
        <time>2017-10-29T11:43:58Z</time>
      </trkpt>
      <trkpt lat="48.01113" lon="-0.75231">
        <ele>94.1</ele>
        <time>2017-10-29T11:44:02Z</time>
      </trkpt>
      <trkpt lat="48.01091" lon="-0.75206">
        <ele>93.6</ele>
        <time>2017-10-29T11:44:06Z</time>
      </trkpt>
      <trkpt lat="48.01065" lon="-0.75183">
        <ele>92.1</ele>
        <time>2017-10-29T11:44:10Z</time>
      </trkpt>
      <trkpt lat="48.01038" lon="-0.7516">
        <ele>90.4</ele>
        <time>2017-10-29T11:44:14Z</time>
      </trkpt>
      <trkpt lat="48.0101" lon="-0.75138">
        <ele>88.8</ele>
        <time>2017-10-29T11:44:18Z</time>
      </trkpt>
      <trkpt lat="48.00982" lon="-0.75114">
        <ele>87.7</ele>
        <time>2017-10-29T11:44:22Z</time>
      </trkpt>
      <trkpt lat="48.00952" lon="-0.75089">
        <ele>85.5</ele>
        <time>2017-10-29T11:44:26Z</time>
      </trkpt>
      <trkpt lat="48.00921" lon="-0.75062">
        <ele>83.4</ele>
        <time>2017-10-29T11:44:30Z</time>
      </trkpt>
      <trkpt lat="48.00891" lon="-0.75033">
        <ele>81.2</ele>
        <time>2017-10-29T11:44:34Z</time>
      </trkpt>
      <trkpt lat="48.00876" lon="-0.74986">
        <ele>79.8</ele>
        <time>2017-10-29T11:44:38Z</time>
      </trkpt>
      <trkpt lat="48.00868" lon="-0.74936">
        <ele>78.5</ele>
        <time>2017-10-29T11:44:42Z</time>
      </trkpt>
      <trkpt lat="48.00868" lon="-0.74886">
        <ele>78.3</ele>
        <time>2017-10-29T11:44:46Z</time>
      </trkpt>
      <trkpt lat="48.00873" lon="-0.74837">
        <ele>77.6</ele>
        <time>2017-10-29T11:44:50Z</time>
      </trkpt>
      <trkpt lat="48.00879" lon="-0.74786">
        <ele>76.6</ele>
        <time>2017-10-29T11:44:54Z</time>
      </trkpt>
      <trkpt lat="48.0089" lon="-0.74735">
        <ele>75</ele>
        <time>2017-10-29T11:44:58Z</time>
      </trkpt>
      <trkpt lat="48.00906" lon="-0.74686">
        <ele>73.4</ele>
        <time>2017-10-29T11:45:02Z</time>
      </trkpt>
      <trkpt lat="48.00921" lon="-0.74633">
        <ele>72.1</ele>
        <time>2017-10-29T11:45:06Z</time>
      </trkpt>
      <trkpt lat="48.00925" lon="-0.74579">
        <ele>71</ele>
        <time>2017-10-29T11:45:10Z</time>
      </trkpt>
      <trkpt lat="48.00925" lon="-0.74521">
        <ele>70</ele>
        <time>2017-10-29T11:45:14Z</time>
      </trkpt>
      <trkpt lat="48.00922" lon="-0.74459">
        <ele>67.2</ele>
        <time>2017-10-29T11:45:18Z</time>
      </trkpt>
      <trkpt lat="48.00916" lon="-0.74396">
        <ele>64.1</ele>
        <time>2017-10-29T11:45:22Z</time>
      </trkpt>
      <trkpt lat="48.00917" lon="-0.74327">
        <ele>61.3</ele>
        <time>2017-10-29T11:45:26Z</time>
      </trkpt>
      <trkpt lat="48.00923" lon="-0.74255">
        <ele>57.6</ele>
        <time>2017-10-29T11:45:30Z</time>
      </trkpt>
      <trkpt lat="48.00928" lon="-0.74187">
        <ele>55.4</ele>
        <time>2017-10-29T11:45:34Z</time>
      </trkpt>
      <trkpt lat="48.00949" lon="-0.74137">
        <ele>53.4</ele>
        <time>2017-10-29T11:45:38Z</time>
      </trkpt>
      <trkpt lat="48.00983" lon="-0.74096">
        <ele>49.7</ele>
        <time>2017-10-29T11:45:42Z</time>
      </trkpt>
      <trkpt lat="48.01023" lon="-0.74058">
        <ele>47.4</ele>
        <time>2017-10-29T11:45:46Z</time>
      </trkpt>
      <trkpt lat="48.01069" lon="-0.74048">
        <ele>44.1</ele>
        <time>2017-10-29T11:45:50Z</time>
      </trkpt>
      <trkpt lat="48.01095" lon="-0.74047">
        <ele>43</ele>
        <time>2017-10-29T11:45:54Z</time>
      </trkpt>
      <trkpt lat="48.01095" lon="-0.74037">
        <ele>41.8</ele>
        <time>2017-10-29T11:45:58Z</time>
      </trkpt>
      <trkpt lat="48.0108" lon="-0.74032">
        <ele>41.6</ele>
        <time>2017-10-29T11:46:02Z</time>
      </trkpt>
      <trkpt lat="48.01062" lon="-0.74026">
        <ele>41.7</ele>
        <time>2017-10-29T11:46:06Z</time>
      </trkpt>
      <trkpt lat="48.01043" lon="-0.7402">
        <ele>41.4</ele>
        <time>2017-10-29T11:46:10Z</time>
      </trkpt>
      <trkpt lat="48.01023" lon="-0.74015">
        <ele>41.2</ele>
        <time>2017-10-29T11:46:14Z</time>
      </trkpt>
      <trkpt lat="48.01001" lon="-0.74007">
        <ele>41.2</ele>
        <time>2017-10-29T11:46:18Z</time>
      </trkpt>
      <trkpt lat="48.00977" lon="-0.73998">
        <ele>40.9</ele>
        <time>2017-10-29T11:46:22Z</time>
      </trkpt>
      <trkpt lat="48.00954" lon="-0.73987">
        <ele>40.9</ele>
        <time>2017-10-29T11:46:26Z</time>
      </trkpt>
      <trkpt lat="48.00931" lon="-0.73976">
        <ele>40.7</ele>
        <time>2017-10-29T11:46:30Z</time>
      </trkpt>
      <trkpt lat="48.00909" lon="-0.73962">
        <ele>40.9</ele>
        <time>2017-10-29T11:46:34Z</time>
      </trkpt>
      <trkpt lat="48.00885" lon="-0.73949">
        <ele>41.2</ele>
        <time>2017-10-29T11:46:38Z</time>
      </trkpt>
      <trkpt lat="48.0086" lon="-0.73937">
        <ele>40.7</ele>
        <time>2017-10-29T11:46:42Z</time>
      </trkpt>
      <trkpt lat="48.00834" lon="-0.73927">
        <ele>40.4</ele>
        <time>2017-10-29T11:46:46Z</time>
      </trkpt>
      <trkpt lat="48.00808" lon="-0.73929">
        <ele>40.4</ele>
        <time>2017-10-29T11:46:50Z</time>
      </trkpt>
      <trkpt lat="48.00782" lon="-0.73938">
        <ele>40.8</ele>
        <time>2017-10-29T11:46:54Z</time>
      </trkpt>
      <trkpt lat="48.00755" lon="-0.73943">
        <ele>40.9</ele>
        <time>2017-10-29T11:46:58Z</time>
      </trkpt>
      <trkpt lat="48.00727" lon="-0.73945">
        <ele>41</ele>
        <time>2017-10-29T11:47:02Z</time>
      </trkpt>
      <trkpt lat="48.00701" lon="-0.73944">
        <ele>41</ele>
        <time>2017-10-29T11:47:06Z</time>
      </trkpt>
      <trkpt lat="48.00674" lon="-0.73944">
        <ele>41</ele>
        <time>2017-10-29T11:47:10Z</time>
      </trkpt>
      <trkpt lat="48.00647" lon="-0.73945">
        <ele>41</ele>
        <time>2017-10-29T11:47:14Z</time>
      </trkpt>
      <trkpt lat="48.00619" lon="-0.73946">
        <ele>41.1</ele>
        <time>2017-10-29T11:47:18Z</time>
      </trkpt>
      <trkpt lat="48.0059" lon="-0.7395">
        <ele>41.2</ele>
        <time>2017-10-29T11:47:22Z</time>
      </trkpt>
      <trkpt lat="48.00562" lon="-0.73955">
        <ele>41.4</ele>
        <time>2017-10-29T11:47:26Z</time>
      </trkpt>
      <trkpt lat="48.00533" lon="-0.7396">
        <ele>41.2</ele>
        <time>2017-10-29T11:47:30Z</time>
      </trkpt>
      <trkpt lat="48.00505" lon="-0.73957">
        <ele>40.9</ele>
        <time>2017-10-29T11:47:34Z</time>
      </trkpt>
      <trkpt lat="48.00479" lon="-0.73944">
        <ele>40.8</ele>
        <time>2017-10-29T11:47:38Z</time>
      </trkpt>
      <trkpt lat="48.00452" lon="-0.73931">
        <ele>40.9</ele>
        <time>2017-10-29T11:47:42Z</time>
      </trkpt>
      <trkpt lat="48.00426" lon="-0.73918">
        <ele>41.5</ele>
        <time>2017-10-29T11:47:46Z</time>
      </trkpt>
      <trkpt lat="48.00404" lon="-0.73897">
        <ele>42.6</ele>
        <time>2017-10-29T11:47:50Z</time>
      </trkpt>
      <trkpt lat="48.00388" lon="-0.73874">
        <ele>41.6</ele>
        <time>2017-10-29T11:47:54Z</time>
      </trkpt>
      <trkpt lat="48.00369" lon="-0.73855">
        <ele>41.6</ele>
        <time>2017-10-29T11:47:58Z</time>
      </trkpt>
      <trkpt lat="48.0035" lon="-0.7384">
        <ele>41.4</ele>
        <time>2017-10-29T11:48:02Z</time>
      </trkpt>
      <trkpt lat="48.00329" lon="-0.73831">
        <ele>41.8</ele>
        <time>2017-10-29T11:48:06Z</time>
      </trkpt>
      <trkpt lat="48.00315" lon="-0.73829">
        <ele>41.7</ele>
        <time>2017-10-29T11:48:10Z</time>
      </trkpt>
      <trkpt lat="48.00296" lon="-0.73835">
        <ele>42.2</ele>
        <time>2017-10-29T11:48:14Z</time>
      </trkpt>
      <trkpt lat="48.00268" lon="-0.73847">
        <ele>43.2</ele>
        <time>2017-10-29T11:48:18Z</time>
      </trkpt>
      <trkpt lat="48.00239" lon="-0.73858">
        <ele>42.7</ele>
        <time>2017-10-29T11:48:22Z</time>
      </trkpt>
      <trkpt lat="48.00207" lon="-0.73869">
        <ele>41.8</ele>
        <time>2017-10-29T11:48:26Z</time>
      </trkpt>
      <trkpt lat="48.00173" lon="-0.73877">
        <ele>41.6</ele>
        <time>2017-10-29T11:48:30Z</time>
      </trkpt>
      <trkpt lat="48.00142" lon="-0.73887">
        <ele>43.5</ele>
        <time>2017-10-29T11:48:34Z</time>
      </trkpt>
      <trkpt lat="48.00111" lon="-0.73897">
        <ele>48.8</ele>
        <time>2017-10-29T11:48:38Z</time>
      </trkpt>
      <trkpt lat="48.00085" lon="-0.73905">
        <ele>48.4</ele>
        <time>2017-10-29T11:48:43Z</time>
      </trkpt>
      <trkpt lat="48.00062" lon="-0.73923">
        <ele>45</ele>
        <time>2017-10-29T11:48:46Z</time>
      </trkpt>
      <trkpt lat="48.0004" lon="-0.73941">
        <ele>42.9</ele>
        <time>2017-10-29T11:48:50Z</time>
      </trkpt>
      <trkpt lat="48.00019" lon="-0.7396">
        <ele>41.3</ele>
        <time>2017-10-29T11:48:54Z</time>
      </trkpt>
      <trkpt lat="47.99999" lon="-0.73982">
        <ele>41</ele>
        <time>2017-10-29T11:48:58Z</time>
      </trkpt>
      <trkpt lat="47.9998" lon="-0.74004">
        <ele>41</ele>
        <time>2017-10-29T11:49:02Z</time>
      </trkpt>
      <trkpt lat="47.99961" lon="-0.74026">
        <ele>41</ele>
        <time>2017-10-29T11:49:06Z</time>
      </trkpt>
      <trkpt lat="47.99942" lon="-0.74045">
        <ele>41</ele>
        <time>2017-10-29T11:49:10Z</time>
      </trkpt>
      <trkpt lat="47.99921" lon="-0.74061">
        <ele>41.1</ele>
        <time>2017-10-29T11:49:14Z</time>
      </trkpt>
      <trkpt lat="47.99898" lon="-0.74073">
        <ele>40.8</ele>
        <time>2017-10-29T11:49:18Z</time>
      </trkpt>
      <trkpt lat="47.99874" lon="-0.74083">
        <ele>41</ele>
        <time>2017-10-29T11:49:22Z</time>
      </trkpt>
      <trkpt lat="47.9985" lon="-0.74093">
        <ele>41</ele>
        <time>2017-10-29T11:49:26Z</time>
      </trkpt>
      <trkpt lat="47.99826" lon="-0.74101">
        <ele>41</ele>
        <time>2017-10-29T11:49:30Z</time>
      </trkpt>
      <trkpt lat="47.99802" lon="-0.74109">
        <ele>40.8</ele>
        <time>2017-10-29T11:49:34Z</time>
      </trkpt>
      <trkpt lat="47.99776" lon="-0.74117">
        <ele>39.9</ele>
        <time>2017-10-29T11:49:38Z</time>
      </trkpt>
      <trkpt lat="47.9975" lon="-0.74127">
        <ele>38.6</ele>
        <time>2017-10-29T11:49:42Z</time>
      </trkpt>
      <trkpt lat="47.99723" lon="-0.74137">
        <ele>39.9</ele>
        <time>2017-10-29T11:49:46Z</time>
      </trkpt>
      <trkpt lat="47.99695" lon="-0.74143">
        <ele>39.5</ele>
        <time>2017-10-29T11:49:50Z</time>
      </trkpt>
      <trkpt lat="47.99672" lon="-0.74151">
        <ele>39.9</ele>
        <time>2017-10-29T11:49:54Z</time>
      </trkpt>
      <trkpt lat="47.99663" lon="-0.7417">
        <ele>41.6</ele>
        <time>2017-10-29T11:49:58Z</time>
      </trkpt>
      <trkpt lat="47.99664" lon="-0.7419">
        <ele>41.8</ele>
        <time>2017-10-29T11:50:02Z</time>
      </trkpt>
      <trkpt lat="47.99668" lon="-0.7421">
        <ele>42.7</ele>
        <time>2017-10-29T11:50:06Z</time>
      </trkpt>
      <trkpt lat="47.99671" lon="-0.74229">
        <ele>44.2</ele>
        <time>2017-10-29T11:50:10Z</time>
      </trkpt>
      <trkpt lat="47.99674" lon="-0.74246">
        <ele>46.1</ele>
        <time>2017-10-29T11:50:14Z</time>
      </trkpt>
      <trkpt lat="47.99675" lon="-0.74261">
        <ele>47</ele>
        <time>2017-10-29T11:50:18Z</time>
      </trkpt>
      <trkpt lat="47.99678" lon="-0.74276">
        <ele>47.7</ele>
        <time>2017-10-29T11:50:22Z</time>
      </trkpt>
      <trkpt lat="47.99685" lon="-0.74284">
        <ele>48.7</ele>
        <time>2017-10-29T11:50:26Z</time>
      </trkpt>
      <trkpt lat="47.99688" lon="-0.74275">
        <ele>48.4</ele>
        <time>2017-10-29T11:50:30Z</time>
      </trkpt>
      <trkpt lat="47.99687" lon="-0.74255">
        <ele>47.7</ele>
        <time>2017-10-29T11:50:34Z</time>
      </trkpt>
      <trkpt lat="47.99686" lon="-0.7423">
        <ele>45.7</ele>
        <time>2017-10-29T11:50:38Z</time>
      </trkpt>
      <trkpt lat="47.99682" lon="-0.74202">
        <ele>43.6</ele>
        <time>2017-10-29T11:50:42Z</time>
      </trkpt>
      <trkpt lat="47.99679" lon="-0.74173">
        <ele>42.2</ele>
        <time>2017-10-29T11:50:46Z</time>
      </trkpt>
      <trkpt lat="47.99675" lon="-0.74144">
        <ele>39</ele>
        <time>2017-10-29T11:50:50Z</time>
      </trkpt>
      <trkpt lat="47.99671" lon="-0.74116">
        <ele>38</ele>
        <time>2017-10-29T11:50:54Z</time>
      </trkpt>
      <trkpt lat="47.99667" lon="-0.74088">
        <ele>38</ele>
        <time>2017-10-29T11:50:58Z</time>
      </trkpt>
      <trkpt lat="47.99662" lon="-0.74057">
        <ele>38</ele>
        <time>2017-10-29T11:51:02Z</time>
      </trkpt>
      <trkpt lat="47.99658" lon="-0.74027">
        <ele>39.7</ele>
        <time>2017-10-29T11:51:06Z</time>
      </trkpt>
      <trkpt lat="47.99651" lon="-0.73995">
        <ele>41.8</ele>
        <time>2017-10-29T11:51:10Z</time>
      </trkpt>
      <trkpt lat="47.99648" lon="-0.73964">
        <ele>44.1</ele>
        <time>2017-10-29T11:51:14Z</time>
      </trkpt>
      <trkpt lat="47.99646" lon="-0.73934">
        <ele>46</ele>
        <time>2017-10-29T11:51:18Z</time>
      </trkpt>
      <trkpt lat="47.99643" lon="-0.73906">
        <ele>47.3</ele>
        <time>2017-10-29T11:51:22Z</time>
      </trkpt>
      <trkpt lat="47.99631" lon="-0.73885">
        <ele>47.9</ele>
        <time>2017-10-29T11:51:26Z</time>
      </trkpt>
      <trkpt lat="47.99635" lon="-0.73859">
        <ele>48.9</ele>
        <time>2017-10-29T11:51:30Z</time>
      </trkpt>
      <trkpt lat="47.99646" lon="-0.73838">
        <ele>49.2</ele>
        <time>2017-10-29T11:51:34Z</time>
      </trkpt>
      <trkpt lat="47.99655" lon="-0.73811">
        <ele>50.7</ele>
        <time>2017-10-29T11:51:38Z</time>
      </trkpt>
      <trkpt lat="47.99665" lon="-0.73787">
        <ele>51.7</ele>
        <time>2017-10-29T11:51:42Z</time>
      </trkpt>
      <trkpt lat="47.99677" lon="-0.73766">
        <ele>52.8</ele>
        <time>2017-10-29T11:51:46Z</time>
      </trkpt>
      <trkpt lat="47.99687" lon="-0.73746">
        <ele>54.2</ele>
        <time>2017-10-29T11:51:50Z</time>
      </trkpt>
      <trkpt lat="47.99698" lon="-0.73726">
        <ele>54.8</ele>
        <time>2017-10-29T11:51:54Z</time>
      </trkpt>
      <trkpt lat="47.99708" lon="-0.73707">
        <ele>55.4</ele>
        <time>2017-10-29T11:51:58Z</time>
      </trkpt>
      <trkpt lat="47.99718" lon="-0.73688">
        <ele>56.2</ele>
        <time>2017-10-29T11:52:02Z</time>
      </trkpt>
      <trkpt lat="47.99728" lon="-0.73669">
        <ele>56.9</ele>
        <time>2017-10-29T11:52:06Z</time>
      </trkpt>
      <trkpt lat="47.99738" lon="-0.7365">
        <ele>57.6</ele>
        <time>2017-10-29T11:52:10Z</time>
      </trkpt>
      <trkpt lat="47.99748" lon="-0.73633">
        <ele>58.2</ele>
        <time>2017-10-29T11:52:14Z</time>
      </trkpt>
      <trkpt lat="47.99759" lon="-0.73616">
        <ele>58.8</ele>
        <time>2017-10-29T11:52:18Z</time>
      </trkpt>
      <trkpt lat="47.99769" lon="-0.73601">
        <ele>59.4</ele>
        <time>2017-10-29T11:52:22Z</time>
      </trkpt>
      <trkpt lat="47.9978" lon="-0.73586">
        <ele>60</ele>
        <time>2017-10-29T11:52:26Z</time>
      </trkpt>
      <trkpt lat="47.9979" lon="-0.73571">
        <ele>61.1</ele>
        <time>2017-10-29T11:52:30Z</time>
      </trkpt>
      <trkpt lat="47.998" lon="-0.73557">
        <ele>62</ele>
        <time>2017-10-29T11:52:34Z</time>
      </trkpt>
      <trkpt lat="47.9981" lon="-0.73539">
        <ele>62.8</ele>
        <time>2017-10-29T11:52:38Z</time>
      </trkpt>
      <trkpt lat="47.99818" lon="-0.7352">
        <ele>63.6</ele>
        <time>2017-10-29T11:52:42Z</time>
      </trkpt>
      <trkpt lat="47.99827" lon="-0.73502">
        <ele>64</ele>
        <time>2017-10-29T11:52:46Z</time>
      </trkpt>
      <trkpt lat="47.99837" lon="-0.73483">
        <ele>64.7</ele>
        <time>2017-10-29T11:52:50Z</time>
      </trkpt>
      <trkpt lat="47.99846" lon="-0.73463">
        <ele>65.5</ele>
        <time>2017-10-29T11:52:54Z</time>
      </trkpt>
      <trkpt lat="47.99853" lon="-0.73442">
        <ele>65.8</ele>
        <time>2017-10-29T11:52:58Z</time>
      </trkpt>
      <trkpt lat="47.99859" lon="-0.7342">
        <ele>66.8</ele>
        <time>2017-10-29T11:53:02Z</time>
      </trkpt>
      <trkpt lat="47.99865" lon="-0.73398">
        <ele>67.8</ele>
        <time>2017-10-29T11:53:06Z</time>
      </trkpt>
      <trkpt lat="47.99869" lon="-0.73377">
        <ele>68.3</ele>
        <time>2017-10-29T11:53:10Z</time>
      </trkpt>
      <trkpt lat="47.99874" lon="-0.73356">
        <ele>68.6</ele>
        <time>2017-10-29T11:53:14Z</time>
      </trkpt>
      <trkpt lat="47.99879" lon="-0.73335">
        <ele>69.6</ele>
        <time>2017-10-29T11:53:18Z</time>
      </trkpt>
      <trkpt lat="47.99884" lon="-0.73314">
        <ele>70.5</ele>
        <time>2017-10-29T11:53:22Z</time>
      </trkpt>
      <trkpt lat="47.99889" lon="-0.73294">
        <ele>71</ele>
        <time>2017-10-29T11:53:26Z</time>
      </trkpt>
      <trkpt lat="47.99894" lon="-0.73275">
        <ele>71.2</ele>
        <time>2017-10-29T11:53:30Z</time>
      </trkpt>
      <trkpt lat="47.999" lon="-0.73256">
        <ele>71.4</ele>
        <time>2017-10-29T11:53:34Z</time>
      </trkpt>
      <trkpt lat="47.99906" lon="-0.73236">
        <ele>72.3</ele>
        <time>2017-10-29T11:53:38Z</time>
      </trkpt>
      <trkpt lat="47.99913" lon="-0.73216">
        <ele>73.2</ele>
        <time>2017-10-29T11:53:42Z</time>
      </trkpt>
      <trkpt lat="47.99921" lon="-0.73196">
        <ele>74.1</ele>
        <time>2017-10-29T11:53:46Z</time>
      </trkpt>
      <trkpt lat="47.99929" lon="-0.73178">
        <ele>75.1</ele>
        <time>2017-10-29T11:53:50Z</time>
      </trkpt>
      <trkpt lat="47.99936" lon="-0.73158">
        <ele>75.6</ele>
        <time>2017-10-29T11:53:54Z</time>
      </trkpt>
      <trkpt lat="47.99944" lon="-0.73138">
        <ele>76</ele>
        <time>2017-10-29T11:53:58Z</time>
      </trkpt>
      <trkpt lat="47.99952" lon="-0.73117">
        <ele>76.6</ele>
        <time>2017-10-29T11:54:02Z</time>
      </trkpt>
      <trkpt lat="47.99961" lon="-0.73095">
        <ele>76.6</ele>
        <time>2017-10-29T11:54:06Z</time>
      </trkpt>
      <trkpt lat="47.99969" lon="-0.73073">
        <ele>76.5</ele>
        <time>2017-10-29T11:54:10Z</time>
      </trkpt>
      <trkpt lat="47.99979" lon="-0.73049">
        <ele>77.1</ele>
        <time>2017-10-29T11:54:14Z</time>
      </trkpt>
      <trkpt lat="47.99989" lon="-0.73025">
        <ele>76.7</ele>
        <time>2017-10-29T11:54:18Z</time>
      </trkpt>
      <trkpt lat="48" lon="-0.72998">
        <ele>76.1</ele>
        <time>2017-10-29T11:54:22Z</time>
      </trkpt>
      <trkpt lat="48.00012" lon="-0.72969">
        <ele>76.5</ele>
        <time>2017-10-29T11:54:26Z</time>
      </trkpt>
      <trkpt lat="48.00025" lon="-0.72937">
        <ele>75.1</ele>
        <time>2017-10-29T11:54:30Z</time>
      </trkpt>
      <trkpt lat="48.0004" lon="-0.72902">
        <ele>74</ele>
        <time>2017-10-29T11:54:34Z</time>
      </trkpt>
      <trkpt lat="48.00056" lon="-0.72863">
        <ele>72.1</ele>
        <time>2017-10-29T11:54:38Z</time>
      </trkpt>
      <trkpt lat="48.00074" lon="-0.72821">
        <ele>70.5</ele>
        <time>2017-10-29T11:54:42Z</time>
      </trkpt>
      <trkpt lat="48.00094" lon="-0.72776">
        <ele>67.5</ele>
        <time>2017-10-29T11:54:46Z</time>
      </trkpt>
      <trkpt lat="48.0011" lon="-0.72721">
        <ele>64</ele>
        <time>2017-10-29T11:54:50Z</time>
      </trkpt>
      <trkpt lat="48.00115" lon="-0.72664">
        <ele>61.3</ele>
        <time>2017-10-29T11:54:54Z</time>
      </trkpt>
      <trkpt lat="48.00125" lon="-0.72618">
        <ele>61.5</ele>
        <time>2017-10-29T11:54:58Z</time>
      </trkpt>
      <trkpt lat="48.00143" lon="-0.72589">
        <ele>62.3</ele>
        <time>2017-10-29T11:55:02Z</time>
      </trkpt>
      <trkpt lat="48.00159" lon="-0.72561">
        <ele>62.1</ele>
        <time>2017-10-29T11:55:06Z</time>
      </trkpt>
      <trkpt lat="48.00181" lon="-0.72554">
        <ele>62.4</ele>
        <time>2017-10-29T11:55:10Z</time>
      </trkpt>
      <trkpt lat="48.0019" lon="-0.72526">
        <ele>60.9</ele>
        <time>2017-10-29T11:55:14Z</time>
      </trkpt>
      <trkpt lat="48.0018" lon="-0.72485">
        <ele>58</ele>
        <time>2017-10-29T11:55:18Z</time>
      </trkpt>
      <trkpt lat="48.00159" lon="-0.72444">
        <ele>56.5</ele>
        <time>2017-10-29T11:55:22Z</time>
      </trkpt>
      <trkpt lat="48.00127" lon="-0.72414">
        <ele>54.9</ele>
        <time>2017-10-29T11:55:26Z</time>
      </trkpt>
      <trkpt lat="48.00094" lon="-0.72395">
        <ele>52.5</ele>
        <time>2017-10-29T11:55:30Z</time>
      </trkpt>
      <trkpt lat="48.00071" lon="-0.724">
        <ele>51.9</ele>
        <time>2017-10-29T11:55:34Z</time>
      </trkpt>
      <trkpt lat="48.00075" lon="-0.72372">
        <ele>51.1</ele>
        <time>2017-10-29T11:55:38Z</time>
      </trkpt>
      <trkpt lat="48.00087" lon="-0.72342">
        <ele>50</ele>
        <time>2017-10-29T11:55:42Z</time>
      </trkpt>
      <trkpt lat="48.00077" lon="-0.72317">
        <ele>48.8</ele>
        <time>2017-10-29T11:55:46Z</time>
      </trkpt>
      <trkpt lat="48.00059" lon="-0.72296">
        <ele>49.2</ele>
        <time>2017-10-29T11:55:50Z</time>
      </trkpt>
      <trkpt lat="48.00043" lon="-0.72278">
        <ele>47.5</ele>
        <time>2017-10-29T11:55:54Z</time>
      </trkpt>
      <trkpt lat="48.00029" lon="-0.72252">
        <ele>47</ele>
        <time>2017-10-29T11:55:58Z</time>
      </trkpt>
      <trkpt lat="48.00017" lon="-0.72227">
        <ele>45.7</ele>
        <time>2017-10-29T11:56:02Z</time>
      </trkpt>
      <trkpt lat="48.00003" lon="-0.72204">
        <ele>46.1</ele>
        <time>2017-10-29T11:56:06Z</time>
      </trkpt>
      <trkpt lat="47.99992" lon="-0.72181">
        <ele>45.5</ele>
        <time>2017-10-29T11:56:10Z</time>
      </trkpt>
      <trkpt lat="47.99981" lon="-0.72156">
        <ele>43.5</ele>
        <time>2017-10-29T11:56:14Z</time>
      </trkpt>
      <trkpt lat="47.9997" lon="-0.72131">
        <ele>46</ele>
        <time>2017-10-29T11:56:18Z</time>
      </trkpt>
      <trkpt lat="47.99959" lon="-0.72106">
        <ele>45.8</ele>
        <time>2017-10-29T11:56:22Z</time>
      </trkpt>
      <trkpt lat="47.99948" lon="-0.72082">
        <ele>45.1</ele>
        <time>2017-10-29T11:56:26Z</time>
      </trkpt>
      <trkpt lat="47.9994" lon="-0.72062">
        <ele>46</ele>
        <time>2017-10-29T11:56:30Z</time>
      </trkpt>
      <trkpt lat="47.99931" lon="-0.72042">
        <ele>46</ele>
        <time>2017-10-29T11:56:34Z</time>
      </trkpt>
      <trkpt lat="47.99923" lon="-0.72021">
        <ele>47.2</ele>
        <time>2017-10-29T11:56:38Z</time>
      </trkpt>
      <trkpt lat="47.99916" lon="-0.72003">
        <ele>48.8</ele>
        <time>2017-10-29T11:56:42Z</time>
      </trkpt>
      <trkpt lat="47.99913" lon="-0.71985">
        <ele>49</ele>
        <time>2017-10-29T11:56:46Z</time>
      </trkpt>
      <trkpt lat="47.99908" lon="-0.71965">
        <ele>49.2</ele>
        <time>2017-10-29T11:56:50Z</time>
      </trkpt>
      <trkpt lat="47.99904" lon="-0.71946">
        <ele>50</ele>
        <time>2017-10-29T11:56:54Z</time>
      </trkpt>
      <trkpt lat="47.99901" lon="-0.71927">
        <ele>50.3</ele>
        <time>2017-10-29T11:56:58Z</time>
      </trkpt>
      <trkpt lat="47.99898" lon="-0.71908">
        <ele>50.5</ele>
        <time>2017-10-29T11:57:02Z</time>
      </trkpt>
      <trkpt lat="47.99898" lon="-0.7189">
        <ele>51</ele>
        <time>2017-10-29T11:57:06Z</time>
      </trkpt>
      <trkpt lat="47.99899" lon="-0.7187">
        <ele>50.8</ele>
        <time>2017-10-29T11:57:10Z</time>
      </trkpt>
      <trkpt lat="47.99899" lon="-0.7185">
        <ele>51</ele>
        <time>2017-10-29T11:57:14Z</time>
      </trkpt>
      <trkpt lat="47.99899" lon="-0.71831">
        <ele>51.6</ele>
        <time>2017-10-29T11:57:18Z</time>
      </trkpt>
      <trkpt lat="47.99901" lon="-0.71815">
        <ele>51.6</ele>
        <time>2017-10-29T11:57:22Z</time>
      </trkpt>
      <trkpt lat="47.99901" lon="-0.718">
        <ele>51.6</ele>
        <time>2017-10-29T11:57:26Z</time>
      </trkpt>
      <trkpt lat="47.99902" lon="-0.71783">
        <ele>51.9</ele>
        <time>2017-10-29T11:57:30Z</time>
      </trkpt>
      <trkpt lat="47.99902" lon="-0.71761">
        <ele>52.3</ele>
        <time>2017-10-29T11:57:34Z</time>
      </trkpt>
      <trkpt lat="47.99902" lon="-0.71741">
        <ele>52.7</ele>
        <time>2017-10-29T11:57:38Z</time>
      </trkpt>
      <trkpt lat="47.99902" lon="-0.71722">
        <ele>53</ele>
        <time>2017-10-29T11:57:42Z</time>
      </trkpt>
      <trkpt lat="47.99902" lon="-0.71702">
        <ele>53.4</ele>
        <time>2017-10-29T11:57:46Z</time>
      </trkpt>
      <trkpt lat="47.99901" lon="-0.71686">
        <ele>53.6</ele>
        <time>2017-10-29T11:57:50Z</time>
      </trkpt>
      <trkpt lat="47.99894" lon="-0.7168">
        <ele>53.8</ele>
        <time>2017-10-29T11:57:54Z</time>
      </trkpt>
      <trkpt lat="47.99889" lon="-0.71679">
        <ele>54</ele>
        <time>2017-10-29T11:57:58Z</time>
      </trkpt>
      <trkpt lat="47.99885" lon="-0.71673">
        <ele>54</ele>
        <time>2017-10-29T11:58:22Z</time>
      </trkpt>
    </trkseg>
  </trk>
</gpx>